<?xml version="1.0" encoding="UTF-8" standalone="no" ?>
<gpx xmlns="http://www.topografix.com/GPX/1/1" xmlns:xsi="http://www.w3.org/2001/XMLSchema-instance" xsi:schemaLocation="http://www.topografix.com/GPX/1/1 http://www.topografix.com/GPX/1/1/gpx.xsd" version="1.1" creator="VisuGPX - https://www.visugpx.com">
  <metadata>
    <name>[CHJ] Tour sainté</name>
    <desc><![CDATA[Tour sainté]]></desc>
  </metadata>
  <trk>
    <name><![CDATA[[CHJ] Tour sainté_1]]></name>
    <trkseg>
      <trkpt lat="45.4264" lon="4.39621">
        <ele>570.77551269531</ele>
        <time>2015-12-20T17:37:26.000Z</time>
      </trkpt>
      <trkpt lat="45.4265" lon="4.39627">
        <ele>569.84564208984</ele>
        <time>2015-12-20T17:37:29.000Z</time>
      </trkpt>
      <trkpt lat="45.42657" lon="4.39628">
        <ele>570.98547363281</ele>
        <time>2015-12-20T17:37:32.000Z</time>
      </trkpt>
      <trkpt lat="45.4266" lon="4.39626">
        <ele>570.43853759766</ele>
        <time>2015-12-20T17:37:34.000Z</time>
      </trkpt>
      <trkpt lat="45.42662" lon="4.39626">
        <ele>569.04327392578</ele>
        <time>2015-12-20T17:37:36.000Z</time>
      </trkpt>
      <trkpt lat="45.42664" lon="4.39625">
        <ele>568.89575195312</ele>
        <time>2015-12-20T17:37:39.000Z</time>
      </trkpt>
      <trkpt lat="45.42664" lon="4.39626">
        <ele>569.33898925781</ele>
        <time>2015-12-20T17:37:41.000Z</time>
      </trkpt>
      <trkpt lat="45.42666" lon="4.3963">
        <ele>570.90496826172</ele>
        <time>2015-12-20T17:37:44.000Z</time>
      </trkpt>
      <trkpt lat="45.42667" lon="4.39633">
        <ele>571.27685546875</ele>
        <time>2015-12-20T17:37:46.000Z</time>
      </trkpt>
      <trkpt lat="45.42669" lon="4.3964">
        <ele>570.95440673828</ele>
        <time>2015-12-20T17:37:49.000Z</time>
      </trkpt>
      <trkpt lat="45.4267" lon="4.39638">
        <ele>568.67175292969</ele>
        <time>2015-12-20T17:37:51.000Z</time>
      </trkpt>
      <trkpt lat="45.42672" lon="4.39642">
        <ele>567.92877197266</ele>
        <time>2015-12-20T17:37:54.000Z</time>
      </trkpt>
      <trkpt lat="45.42673" lon="4.3965">
        <ele>568.43334960938</ele>
        <time>2015-12-20T17:37:56.000Z</time>
      </trkpt>
      <trkpt lat="45.42679" lon="4.39663">
        <ele>569.88885498047</ele>
        <time>2015-12-20T17:37:59.000Z</time>
      </trkpt>
      <trkpt lat="45.42684" lon="4.39669">
        <ele>568.27569580078</ele>
        <time>2015-12-20T17:38:02.000Z</time>
      </trkpt>
      <trkpt lat="45.42685" lon="4.39667">
        <ele>567.00421142578</ele>
        <time>2015-12-20T17:38:04.000Z</time>
      </trkpt>
      <trkpt lat="45.42687" lon="4.39662">
        <ele>565.60162353516</ele>
        <time>2015-12-20T17:38:07.000Z</time>
      </trkpt>
      <trkpt lat="45.42683" lon="4.39679">
        <ele>564.90393066406</ele>
        <time>2015-12-20T17:38:10.000Z</time>
      </trkpt>
      <trkpt lat="45.42669" lon="4.39701">
        <ele>569.31964111328</ele>
        <time>2015-12-20T17:38:13.000Z</time>
      </trkpt>
      <trkpt lat="45.42661" lon="4.39708">
        <ele>567.87774658203</ele>
        <time>2015-12-20T17:38:15.000Z</time>
      </trkpt>
      <trkpt lat="45.42659" lon="4.39713">
        <ele>567.20111083984</ele>
        <time>2015-12-20T17:38:17.000Z</time>
      </trkpt>
      <trkpt lat="45.42657" lon="4.39722">
        <ele>567.98510742188</ele>
        <time>2015-12-20T17:38:20.000Z</time>
      </trkpt>
      <trkpt lat="45.42652" lon="4.39727">
        <ele>568.61218261719</ele>
        <time>2015-12-20T17:38:22.000Z</time>
      </trkpt>
      <trkpt lat="45.42643" lon="4.39733">
        <ele>567.71801757812</ele>
        <time>2015-12-20T17:38:25.000Z</time>
      </trkpt>
      <trkpt lat="45.42642" lon="4.39741">
        <ele>568.22613525391</ele>
        <time>2015-12-20T17:38:28.000Z</time>
      </trkpt>
      <trkpt lat="45.42641" lon="4.39746">
        <ele>569.08544921875</ele>
        <time>2015-12-20T17:38:30.000Z</time>
      </trkpt>
      <trkpt lat="45.42646" lon="4.39757">
        <ele>569.94409179688</ele>
        <time>2015-12-20T17:38:33.000Z</time>
      </trkpt>
      <trkpt lat="45.42645" lon="4.39764">
        <ele>570.13073730469</ele>
        <time>2015-12-20T17:38:35.000Z</time>
      </trkpt>
      <trkpt lat="45.42641" lon="4.39768">
        <ele>570.18182373047</ele>
        <time>2015-12-20T17:38:37.000Z</time>
      </trkpt>
      <trkpt lat="45.42633" lon="4.39772">
        <ele>571.70129394531</ele>
        <time>2015-12-20T17:38:40.000Z</time>
      </trkpt>
      <trkpt lat="45.42631" lon="4.39778">
        <ele>573.12805175781</ele>
        <time>2015-12-20T17:38:43.000Z</time>
      </trkpt>
      <trkpt lat="45.4263" lon="4.39785">
        <ele>573.13525390625</ele>
        <time>2015-12-20T17:38:45.000Z</time>
      </trkpt>
      <trkpt lat="45.42629" lon="4.39794">
        <ele>574.17169189453</ele>
        <time>2015-12-20T17:38:48.000Z</time>
      </trkpt>
      <trkpt lat="45.42625" lon="4.39797">
        <ele>576.05535888672</ele>
        <time>2015-12-20T17:38:50.000Z</time>
      </trkpt>
      <trkpt lat="45.42621" lon="4.39801">
        <ele>578.56091308594</ele>
        <time>2015-12-20T17:38:53.000Z</time>
      </trkpt>
      <trkpt lat="45.42607" lon="4.39809">
        <ele>580.65783691406</ele>
        <time>2015-12-20T17:38:56.000Z</time>
      </trkpt>
      <trkpt lat="45.42611" lon="4.39818">
        <ele>581.46136474609</ele>
        <time>2015-12-20T17:38:59.000Z</time>
      </trkpt>
      <trkpt lat="45.42613" lon="4.39824">
        <ele>580.48254394531</ele>
        <time>2015-12-20T17:39:01.000Z</time>
      </trkpt>
      <trkpt lat="45.42614" lon="4.39832">
        <ele>580.75579833984</ele>
        <time>2015-12-20T17:39:04.000Z</time>
      </trkpt>
      <trkpt lat="45.42607" lon="4.39837">
        <ele>581.70068359375</ele>
        <time>2015-12-20T17:39:07.000Z</time>
      </trkpt>
      <trkpt lat="45.42597" lon="4.39847">
        <ele>581.47503662109</ele>
        <time>2015-12-20T17:39:10.000Z</time>
      </trkpt>
      <trkpt lat="45.42592" lon="4.39854">
        <ele>583.52447509766</ele>
        <time>2015-12-20T17:39:13.000Z</time>
      </trkpt>
      <trkpt lat="45.4259" lon="4.3986">
        <ele>584.40368652344</ele>
        <time>2015-12-20T17:39:15.000Z</time>
      </trkpt>
      <trkpt lat="45.42586" lon="4.39868">
        <ele>585.99029541016</ele>
        <time>2015-12-20T17:39:18.000Z</time>
      </trkpt>
      <trkpt lat="45.42581" lon="4.39874">
        <ele>584.68487548828</ele>
        <time>2015-12-20T17:39:20.000Z</time>
      </trkpt>
      <trkpt lat="45.42575" lon="4.39879">
        <ele>585.05108642578</ele>
        <time>2015-12-20T17:39:22.000Z</time>
      </trkpt>
      <trkpt lat="45.42569" lon="4.39886">
        <ele>586.3046875</ele>
        <time>2015-12-20T17:39:25.000Z</time>
      </trkpt>
      <trkpt lat="45.42566" lon="4.39891">
        <ele>586.14331054688</ele>
        <time>2015-12-20T17:39:27.000Z</time>
      </trkpt>
      <trkpt lat="45.42564" lon="4.39897">
        <ele>587.34271240234</ele>
        <time>2015-12-20T17:39:30.000Z</time>
      </trkpt>
      <trkpt lat="45.42561" lon="4.39903">
        <ele>587.89935302734</ele>
        <time>2015-12-20T17:39:32.000Z</time>
      </trkpt>
      <trkpt lat="45.42558" lon="4.3991">
        <ele>589.35827636719</ele>
        <time>2015-12-20T17:39:35.000Z</time>
      </trkpt>
      <trkpt lat="45.42554" lon="4.39915">
        <ele>590.98950195312</ele>
        <time>2015-12-20T17:39:37.000Z</time>
      </trkpt>
      <trkpt lat="45.42551" lon="4.39923">
        <ele>591.39825439453</ele>
        <time>2015-12-20T17:39:40.000Z</time>
      </trkpt>
      <trkpt lat="45.42548" lon="4.39928">
        <ele>592.84466552734</ele>
        <time>2015-12-20T17:39:42.000Z</time>
      </trkpt>
      <trkpt lat="45.42545" lon="4.39931">
        <ele>593.08715820312</ele>
        <time>2015-12-20T17:39:44.000Z</time>
      </trkpt>
      <trkpt lat="45.42541" lon="4.39938">
        <ele>593.52062988281</ele>
        <time>2015-12-20T17:39:47.000Z</time>
      </trkpt>
      <trkpt lat="45.42538" lon="4.39943">
        <ele>593.83563232422</ele>
        <time>2015-12-20T17:39:49.000Z</time>
      </trkpt>
      <trkpt lat="45.42536" lon="4.3995">
        <ele>594.39434814453</ele>
        <time>2015-12-20T17:39:52.000Z</time>
      </trkpt>
      <trkpt lat="45.4253" lon="4.39957">
        <ele>592.45104980469</ele>
        <time>2015-12-20T17:39:55.000Z</time>
      </trkpt>
      <trkpt lat="45.42527" lon="4.3996">
        <ele>592.74993896484</ele>
        <time>2015-12-20T17:39:57.000Z</time>
      </trkpt>
      <trkpt lat="45.42524" lon="4.39963">
        <ele>592.64086914062</ele>
        <time>2015-12-20T17:40:00.000Z</time>
      </trkpt>
      <trkpt lat="45.42519" lon="4.39971">
        <ele>592.49554443359</ele>
        <time>2015-12-20T17:40:03.000Z</time>
      </trkpt>
      <trkpt lat="45.42517" lon="4.39979">
        <ele>592.51330566406</ele>
        <time>2015-12-20T17:40:05.000Z</time>
      </trkpt>
      <trkpt lat="45.42513" lon="4.39985">
        <ele>592.78784179688</ele>
        <time>2015-12-20T17:40:07.000Z</time>
      </trkpt>
      <trkpt lat="45.42508" lon="4.39994">
        <ele>589.685546875</ele>
        <time>2015-12-20T17:40:10.000Z</time>
      </trkpt>
      <trkpt lat="45.42505" lon="4.40001">
        <ele>589.35095214844</ele>
        <time>2015-12-20T17:40:12.000Z</time>
      </trkpt>
      <trkpt lat="45.42497" lon="4.4001">
        <ele>590.23626708984</ele>
        <time>2015-12-20T17:40:15.000Z</time>
      </trkpt>
      <trkpt lat="45.42493" lon="4.40015">
        <ele>591.57275390625</ele>
        <time>2015-12-20T17:40:17.000Z</time>
      </trkpt>
      <trkpt lat="45.42487" lon="4.40024">
        <ele>592.00964355469</ele>
        <time>2015-12-20T17:40:20.000Z</time>
      </trkpt>
      <trkpt lat="45.42486" lon="4.40028">
        <ele>592.94012451172</ele>
        <time>2015-12-20T17:40:22.000Z</time>
      </trkpt>
      <trkpt lat="45.42483" lon="4.40035">
        <ele>595.47406005859</ele>
        <time>2015-12-20T17:40:25.000Z</time>
      </trkpt>
      <trkpt lat="45.42481" lon="4.40043">
        <ele>595.15393066406</ele>
        <time>2015-12-20T17:40:28.000Z</time>
      </trkpt>
      <trkpt lat="45.42479" lon="4.4005">
        <ele>595.57061767578</ele>
        <time>2015-12-20T17:40:30.000Z</time>
      </trkpt>
      <trkpt lat="45.42476" lon="4.40059">
        <ele>596.18988037109</ele>
        <time>2015-12-20T17:40:33.000Z</time>
      </trkpt>
      <trkpt lat="45.42476" lon="4.40066">
        <ele>597.84899902344</ele>
        <time>2015-12-20T17:40:36.000Z</time>
      </trkpt>
      <trkpt lat="45.42475" lon="4.40071">
        <ele>598.9091796875</ele>
        <time>2015-12-20T17:40:38.000Z</time>
      </trkpt>
      <trkpt lat="45.42473" lon="4.40081">
        <ele>599.25537109375</ele>
        <time>2015-12-20T17:40:41.000Z</time>
      </trkpt>
      <trkpt lat="45.4247" lon="4.40088">
        <ele>599.22637939453</ele>
        <time>2015-12-20T17:40:43.000Z</time>
      </trkpt>
      <trkpt lat="45.42465" lon="4.40101">
        <ele>596.64654541016</ele>
        <time>2015-12-20T17:40:46.000Z</time>
      </trkpt>
      <trkpt lat="45.42459" lon="4.40109">
        <ele>596.35028076172</ele>
        <time>2015-12-20T17:40:49.000Z</time>
      </trkpt>
      <trkpt lat="45.42457" lon="4.40115">
        <ele>595.82019042969</ele>
        <time>2015-12-20T17:40:51.000Z</time>
      </trkpt>
      <trkpt lat="45.42456" lon="4.40126">
        <ele>595.74963378906</ele>
        <time>2015-12-20T17:40:54.000Z</time>
      </trkpt>
      <trkpt lat="45.42454" lon="4.40131">
        <ele>595.97137451172</ele>
        <time>2015-12-20T17:40:56.000Z</time>
      </trkpt>
      <trkpt lat="45.42451" lon="4.40141">
        <ele>596.68762207031</ele>
        <time>2015-12-20T17:40:59.000Z</time>
      </trkpt>
      <trkpt lat="45.42447" lon="4.40154">
        <ele>594.47998046875</ele>
        <time>2015-12-20T17:41:02.000Z</time>
      </trkpt>
      <trkpt lat="45.42446" lon="4.40162">
        <ele>594.24829101562</ele>
        <time>2015-12-20T17:41:04.000Z</time>
      </trkpt>
      <trkpt lat="45.42446" lon="4.40167">
        <ele>594.62115478516</ele>
        <time>2015-12-20T17:41:06.000Z</time>
      </trkpt>
      <trkpt lat="45.42444" lon="4.40177">
        <ele>596.41638183594</ele>
        <time>2015-12-20T17:41:09.000Z</time>
      </trkpt>
      <trkpt lat="45.42442" lon="4.40182">
        <ele>596.87603759766</ele>
        <time>2015-12-20T17:41:11.000Z</time>
      </trkpt>
      <trkpt lat="45.42436" lon="4.40192">
        <ele>596.20825195312</ele>
        <time>2015-12-20T17:41:14.000Z</time>
      </trkpt>
      <trkpt lat="45.42427" lon="4.40202">
        <ele>594.10986328125</ele>
        <time>2015-12-20T17:41:17.000Z</time>
      </trkpt>
      <trkpt lat="45.4242" lon="4.40214">
        <ele>593.48822021484</ele>
        <time>2015-12-20T17:41:20.000Z</time>
      </trkpt>
      <trkpt lat="45.42418" lon="4.40221">
        <ele>592.83453369141</ele>
        <time>2015-12-20T17:41:22.000Z</time>
      </trkpt>
      <trkpt lat="45.42412" lon="4.40231">
        <ele>592.10888671875</ele>
        <time>2015-12-20T17:41:25.000Z</time>
      </trkpt>
      <trkpt lat="45.42407" lon="4.40241">
        <ele>591.85833740234</ele>
        <time>2015-12-20T17:41:28.000Z</time>
      </trkpt>
      <trkpt lat="45.42398" lon="4.40249">
        <ele>593.18170166016</ele>
        <time>2015-12-20T17:41:31.000Z</time>
      </trkpt>
      <trkpt lat="45.42392" lon="4.40256">
        <ele>592.58929443359</ele>
        <time>2015-12-20T17:41:33.000Z</time>
      </trkpt>
      <trkpt lat="45.42389" lon="4.40266">
        <ele>592.61840820312</ele>
        <time>2015-12-20T17:41:36.000Z</time>
      </trkpt>
      <trkpt lat="45.42387" lon="4.40278">
        <ele>591.92230224609</ele>
        <time>2015-12-20T17:41:39.000Z</time>
      </trkpt>
      <trkpt lat="45.42383" lon="4.40289">
        <ele>590.12091064453</ele>
        <time>2015-12-20T17:41:42.000Z</time>
      </trkpt>
      <trkpt lat="45.42382" lon="4.40295">
        <ele>590.35485839844</ele>
        <time>2015-12-20T17:41:44.000Z</time>
      </trkpt>
      <trkpt lat="45.42378" lon="4.40302">
        <ele>591.9306640625</ele>
        <time>2015-12-20T17:41:47.000Z</time>
      </trkpt>
      <trkpt lat="45.42371" lon="4.40312">
        <ele>591.60333251953</ele>
        <time>2015-12-20T17:41:50.000Z</time>
      </trkpt>
      <trkpt lat="45.42365" lon="4.40318">
        <ele>593.28167724609</ele>
        <time>2015-12-20T17:41:52.000Z</time>
      </trkpt>
      <trkpt lat="45.42361" lon="4.40332">
        <ele>594.54327392578</ele>
        <time>2015-12-20T17:41:55.000Z</time>
      </trkpt>
      <trkpt lat="45.4236" lon="4.40339">
        <ele>593.81903076172</ele>
        <time>2015-12-20T17:41:57.000Z</time>
      </trkpt>
      <trkpt lat="45.42356" lon="4.40348">
        <ele>592.89196777344</ele>
        <time>2015-12-20T17:42:00.000Z</time>
      </trkpt>
      <trkpt lat="45.4235" lon="4.40356">
        <ele>591.69427490234</ele>
        <time>2015-12-20T17:42:03.000Z</time>
      </trkpt>
      <trkpt lat="45.42348" lon="4.40359">
        <ele>592.76190185547</ele>
        <time>2015-12-20T17:42:06.000Z</time>
      </trkpt>
      <trkpt lat="45.42344" lon="4.40364">
        <ele>594.79724121094</ele>
        <time>2015-12-20T17:42:08.000Z</time>
      </trkpt>
      <trkpt lat="45.42339" lon="4.40374">
        <ele>593.65502929688</ele>
        <time>2015-12-20T17:42:11.000Z</time>
      </trkpt>
      <trkpt lat="45.42336" lon="4.40384">
        <ele>594.57275390625</ele>
        <time>2015-12-20T17:42:14.000Z</time>
      </trkpt>
      <trkpt lat="45.42333" lon="4.40391">
        <ele>595.3603515625</ele>
        <time>2015-12-20T17:42:16.000Z</time>
      </trkpt>
      <trkpt lat="45.42331" lon="4.40401">
        <ele>594.99884033203</ele>
        <time>2015-12-20T17:42:19.000Z</time>
      </trkpt>
      <trkpt lat="45.42329" lon="4.40406">
        <ele>594.94860839844</ele>
        <time>2015-12-20T17:42:21.000Z</time>
      </trkpt>
      <trkpt lat="45.42324" lon="4.40412">
        <ele>595.55584716797</ele>
        <time>2015-12-20T17:42:23.000Z</time>
      </trkpt>
      <trkpt lat="45.42323" lon="4.40424">
        <ele>594.94635009766</ele>
        <time>2015-12-20T17:42:26.000Z</time>
      </trkpt>
      <trkpt lat="45.42322" lon="4.40438">
        <ele>595.00744628906</ele>
        <time>2015-12-20T17:42:29.000Z</time>
      </trkpt>
      <trkpt lat="45.42319" lon="4.40452">
        <ele>595.33502197266</ele>
        <time>2015-12-20T17:42:32.000Z</time>
      </trkpt>
      <trkpt lat="45.42321" lon="4.40468">
        <ele>593.77154541016</ele>
        <time>2015-12-20T17:42:35.000Z</time>
      </trkpt>
      <trkpt lat="45.42325" lon="4.40477">
        <ele>590.49645996094</ele>
        <time>2015-12-20T17:42:37.000Z</time>
      </trkpt>
      <trkpt lat="45.42326" lon="4.40486">
        <ele>589.03564453125</ele>
        <time>2015-12-20T17:42:40.000Z</time>
      </trkpt>
      <trkpt lat="45.42326" lon="4.40491">
        <ele>589.18139648438</ele>
        <time>2015-12-20T17:42:42.000Z</time>
      </trkpt>
      <trkpt lat="45.42324" lon="4.40497">
        <ele>589.29766845703</ele>
        <time>2015-12-20T17:42:44.000Z</time>
      </trkpt>
      <trkpt lat="45.42321" lon="4.40507">
        <ele>589.81268310547</ele>
        <time>2015-12-20T17:42:47.000Z</time>
      </trkpt>
      <trkpt lat="45.42313" lon="4.40511">
        <ele>590.46160888672</ele>
        <time>2015-12-20T17:42:49.000Z</time>
      </trkpt>
      <trkpt lat="45.42303" lon="4.40519">
        <ele>591.89172363281</ele>
        <time>2015-12-20T17:42:52.000Z</time>
      </trkpt>
      <trkpt lat="45.423" lon="4.40525">
        <ele>590.96472167969</ele>
        <time>2015-12-20T17:42:55.000Z</time>
      </trkpt>
      <trkpt lat="45.42292" lon="4.40536">
        <ele>588.47454833984</ele>
        <time>2015-12-20T17:42:58.000Z</time>
      </trkpt>
      <trkpt lat="45.4229" lon="4.40538">
        <ele>590.42974853516</ele>
        <time>2015-12-20T17:43:00.000Z</time>
      </trkpt>
      <trkpt lat="45.42286" lon="4.40539">
        <ele>593.75616455078</ele>
        <time>2015-12-20T17:43:02.000Z</time>
      </trkpt>
      <trkpt lat="45.42277" lon="4.40545">
        <ele>595.14996337891</ele>
        <time>2015-12-20T17:43:05.000Z</time>
      </trkpt>
      <trkpt lat="45.42267" lon="4.40552">
        <ele>592.72253417969</ele>
        <time>2015-12-20T17:43:08.000Z</time>
      </trkpt>
      <trkpt lat="45.42258" lon="4.40555">
        <ele>592.77514648438</ele>
        <time>2015-12-20T17:43:10.000Z</time>
      </trkpt>
      <trkpt lat="45.42252" lon="4.4056">
        <ele>593.42437744141</ele>
        <time>2015-12-20T17:43:13.000Z</time>
      </trkpt>
      <trkpt lat="45.42247" lon="4.40563">
        <ele>592.71569824219</ele>
        <time>2015-12-20T17:43:15.000Z</time>
      </trkpt>
      <trkpt lat="45.42241" lon="4.40567">
        <ele>592.46044921875</ele>
        <time>2015-12-20T17:43:17.000Z</time>
      </trkpt>
      <trkpt lat="45.42237" lon="4.4057">
        <ele>592.44909667969</ele>
        <time>2015-12-20T17:43:19.000Z</time>
      </trkpt>
      <trkpt lat="45.4223" lon="4.40573">
        <ele>593.12298583984</ele>
        <time>2015-12-20T17:43:22.000Z</time>
      </trkpt>
      <trkpt lat="45.42223" lon="4.40579">
        <ele>595.49951171875</ele>
        <time>2015-12-20T17:43:25.000Z</time>
      </trkpt>
      <trkpt lat="45.42219" lon="4.40582">
        <ele>595.9873046875</ele>
        <time>2015-12-20T17:43:27.000Z</time>
      </trkpt>
      <trkpt lat="45.42213" lon="4.40586">
        <ele>597.09844970703</ele>
        <time>2015-12-20T17:43:30.000Z</time>
      </trkpt>
      <trkpt lat="45.4221" lon="4.40589">
        <ele>598.54052734375</ele>
        <time>2015-12-20T17:43:32.000Z</time>
      </trkpt>
      <trkpt lat="45.42205" lon="4.40592">
        <ele>599.060546875</ele>
        <time>2015-12-20T17:43:34.000Z</time>
      </trkpt>
      <trkpt lat="45.42197" lon="4.40596">
        <ele>600.15216064453</ele>
        <time>2015-12-20T17:43:37.000Z</time>
      </trkpt>
      <trkpt lat="45.42192" lon="4.40602">
        <ele>601.73992919922</ele>
        <time>2015-12-20T17:43:40.000Z</time>
      </trkpt>
      <trkpt lat="45.42184" lon="4.40604">
        <ele>603.23187255859</ele>
        <time>2015-12-20T17:43:43.000Z</time>
      </trkpt>
      <trkpt lat="45.42178" lon="4.40604">
        <ele>603.86804199219</ele>
        <time>2015-12-20T17:43:45.000Z</time>
      </trkpt>
      <trkpt lat="45.42176" lon="4.40604">
        <ele>604.65502929688</ele>
        <time>2015-12-20T17:43:47.000Z</time>
      </trkpt>
      <trkpt lat="45.42173" lon="4.40607">
        <ele>604.89898681641</ele>
        <time>2015-12-20T17:43:49.000Z</time>
      </trkpt>
      <trkpt lat="45.42173" lon="4.4061">
        <ele>604.98968505859</ele>
        <time>2015-12-20T17:43:52.000Z</time>
      </trkpt>
      <trkpt lat="45.42172" lon="4.40612">
        <ele>604.69183349609</ele>
        <time>2015-12-20T17:43:56.000Z</time>
      </trkpt>
      <trkpt lat="45.4217" lon="4.40613">
        <ele>604.42919921875</ele>
        <time>2015-12-20T17:44:01.000Z</time>
      </trkpt>
      <trkpt lat="45.42144" lon="4.40616">
        <ele>603.46099853516</ele>
        <time>2015-12-20T17:44:06.000Z</time>
      </trkpt>
      <trkpt lat="45.42133" lon="4.40616">
        <ele>601.34484863281</ele>
        <time>2015-12-20T17:44:09.000Z</time>
      </trkpt>
      <trkpt lat="45.42104" lon="4.40614">
        <ele>600.65881347656</ele>
        <time>2015-12-20T17:44:13.000Z</time>
      </trkpt>
      <trkpt lat="45.42096" lon="4.40613">
        <ele>600.61334228516</ele>
        <time>2015-12-20T17:44:15.000Z</time>
      </trkpt>
      <trkpt lat="45.42087" lon="4.40615">
        <ele>598.10095214844</ele>
        <time>2015-12-20T17:44:18.000Z</time>
      </trkpt>
      <trkpt lat="45.42081" lon="4.40615">
        <ele>596.12341308594</ele>
        <time>2015-12-20T17:44:20.000Z</time>
      </trkpt>
      <trkpt lat="45.42077" lon="4.40616">
        <ele>597.49932861328</ele>
        <time>2015-12-20T17:44:23.000Z</time>
      </trkpt>
      <trkpt lat="45.42072" lon="4.40615">
        <ele>597.59173583984</ele>
        <time>2015-12-20T17:44:26.000Z</time>
      </trkpt>
      <trkpt lat="45.42064" lon="4.40615">
        <ele>598.78363037109</ele>
        <time>2015-12-20T17:44:28.000Z</time>
      </trkpt>
      <trkpt lat="45.42054" lon="4.40614">
        <ele>600.37542724609</ele>
        <time>2015-12-20T17:44:31.000Z</time>
      </trkpt>
      <trkpt lat="45.42049" lon="4.40614">
        <ele>601.78967285156</ele>
        <time>2015-12-20T17:44:33.000Z</time>
      </trkpt>
      <trkpt lat="45.42042" lon="4.40612">
        <ele>601.80041503906</ele>
        <time>2015-12-20T17:44:36.000Z</time>
      </trkpt>
      <trkpt lat="45.42039" lon="4.40607">
        <ele>601.60046386719</ele>
        <time>2015-12-20T17:44:38.000Z</time>
      </trkpt>
      <trkpt lat="45.42034" lon="4.40603">
        <ele>601.70867919922</ele>
        <time>2015-12-20T17:44:41.000Z</time>
      </trkpt>
      <trkpt lat="45.42027" lon="4.40602">
        <ele>602.57043457031</ele>
        <time>2015-12-20T17:44:44.000Z</time>
      </trkpt>
      <trkpt lat="45.42026" lon="4.40602">
        <ele>602.033203125</ele>
        <time>2015-12-20T17:44:46.000Z</time>
      </trkpt>
      <trkpt lat="45.42022" lon="4.40602">
        <ele>600.63073730469</ele>
        <time>2015-12-20T17:44:48.000Z</time>
      </trkpt>
      <trkpt lat="45.42009" lon="4.40605">
        <ele>599.97863769531</ele>
        <time>2015-12-20T17:44:51.000Z</time>
      </trkpt>
      <trkpt lat="45.42" lon="4.40612">
        <ele>598.98950195312</ele>
        <time>2015-12-20T17:44:53.000Z</time>
      </trkpt>
      <trkpt lat="45.41995" lon="4.40614">
        <ele>598.24310302734</ele>
        <time>2015-12-20T17:44:55.000Z</time>
      </trkpt>
      <trkpt lat="45.41988" lon="4.40612">
        <ele>597.18914794922</ele>
        <time>2015-12-20T17:44:58.000Z</time>
      </trkpt>
      <trkpt lat="45.4198" lon="4.40609">
        <ele>597.48596191406</ele>
        <time>2015-12-20T17:45:00.000Z</time>
      </trkpt>
      <trkpt lat="45.41967" lon="4.40602">
        <ele>597.44744873047</ele>
        <time>2015-12-20T17:45:03.000Z</time>
      </trkpt>
      <trkpt lat="45.41958" lon="4.40604">
        <ele>597.05120849609</ele>
        <time>2015-12-20T17:45:05.000Z</time>
      </trkpt>
      <trkpt lat="45.41951" lon="4.40608">
        <ele>598.10430908203</ele>
        <time>2015-12-20T17:45:07.000Z</time>
      </trkpt>
      <trkpt lat="45.41942" lon="4.40614">
        <ele>600.82177734375</ele>
        <time>2015-12-20T17:45:10.000Z</time>
      </trkpt>
      <trkpt lat="45.41939" lon="4.40627">
        <ele>600.60028076172</ele>
        <time>2015-12-20T17:45:13.000Z</time>
      </trkpt>
      <trkpt lat="45.41936" lon="4.40633">
        <ele>601.49548339844</ele>
        <time>2015-12-20T17:45:15.000Z</time>
      </trkpt>
      <trkpt lat="45.4193" lon="4.4064">
        <ele>602.49639892578</ele>
        <time>2015-12-20T17:45:18.000Z</time>
      </trkpt>
      <trkpt lat="45.41925" lon="4.40647">
        <ele>601.36004638672</ele>
        <time>2015-12-20T17:45:20.000Z</time>
      </trkpt>
      <trkpt lat="45.41923" lon="4.40659">
        <ele>602.00610351562</ele>
        <time>2015-12-20T17:45:23.000Z</time>
      </trkpt>
      <trkpt lat="45.41923" lon="4.40667">
        <ele>602.63299560547</ele>
        <time>2015-12-20T17:45:26.000Z</time>
      </trkpt>
      <trkpt lat="45.41924" lon="4.40675">
        <ele>602.86602783203</ele>
        <time>2015-12-20T17:45:29.000Z</time>
      </trkpt>
      <trkpt lat="45.41927" lon="4.40682">
        <ele>603.30920410156</ele>
        <time>2015-12-20T17:45:32.000Z</time>
      </trkpt>
      <trkpt lat="45.4193" lon="4.40694">
        <ele>603.50482177734</ele>
        <time>2015-12-20T17:45:35.000Z</time>
      </trkpt>
      <trkpt lat="45.41932" lon="4.40708">
        <ele>602.43835449219</ele>
        <time>2015-12-20T17:45:38.000Z</time>
      </trkpt>
      <trkpt lat="45.41934" lon="4.4072">
        <ele>600.24749755859</ele>
        <time>2015-12-20T17:45:41.000Z</time>
      </trkpt>
      <trkpt lat="45.41938" lon="4.40734">
        <ele>597.38604736328</ele>
        <time>2015-12-20T17:45:44.000Z</time>
      </trkpt>
      <trkpt lat="45.41943" lon="4.40738">
        <ele>595.46411132812</ele>
        <time>2015-12-20T17:45:46.000Z</time>
      </trkpt>
      <trkpt lat="45.41948" lon="4.40743">
        <ele>596.00079345703</ele>
        <time>2015-12-20T17:45:48.000Z</time>
      </trkpt>
      <trkpt lat="45.41954" lon="4.40754">
        <ele>594.66882324219</ele>
        <time>2015-12-20T17:45:51.000Z</time>
      </trkpt>
      <trkpt lat="45.41959" lon="4.40763">
        <ele>593.87609863281</ele>
        <time>2015-12-20T17:45:54.000Z</time>
      </trkpt>
      <trkpt lat="45.41964" lon="4.40777">
        <ele>594.0615234375</ele>
        <time>2015-12-20T17:45:57.000Z</time>
      </trkpt>
      <trkpt lat="45.41968" lon="4.4079">
        <ele>593.013671875</ele>
        <time>2015-12-20T17:46:00.000Z</time>
      </trkpt>
      <trkpt lat="45.41973" lon="4.40802">
        <ele>593.92388916016</ele>
        <time>2015-12-20T17:46:03.000Z</time>
      </trkpt>
      <trkpt lat="45.41976" lon="4.40808">
        <ele>595.22106933594</ele>
        <time>2015-12-20T17:46:05.000Z</time>
      </trkpt>
      <trkpt lat="45.41979" lon="4.40817">
        <ele>595.11578369141</ele>
        <time>2015-12-20T17:46:08.000Z</time>
      </trkpt>
      <trkpt lat="45.41981" lon="4.40823">
        <ele>595.39996337891</ele>
        <time>2015-12-20T17:46:10.000Z</time>
      </trkpt>
      <trkpt lat="45.41984" lon="4.40833">
        <ele>595.49102783203</ele>
        <time>2015-12-20T17:46:13.000Z</time>
      </trkpt>
      <trkpt lat="45.41988" lon="4.40846">
        <ele>594.61828613281</ele>
        <time>2015-12-20T17:46:16.000Z</time>
      </trkpt>
      <trkpt lat="45.41992" lon="4.40858">
        <ele>592.74114990234</ele>
        <time>2015-12-20T17:46:19.000Z</time>
      </trkpt>
      <trkpt lat="45.41997" lon="4.4087">
        <ele>591.47344970703</ele>
        <time>2015-12-20T17:46:22.000Z</time>
      </trkpt>
      <trkpt lat="45.42001" lon="4.40882">
        <ele>591.64953613281</ele>
        <time>2015-12-20T17:46:25.000Z</time>
      </trkpt>
      <trkpt lat="45.42002" lon="4.40892">
        <ele>592.11804199219</ele>
        <time>2015-12-20T17:46:28.000Z</time>
      </trkpt>
      <trkpt lat="45.42001" lon="4.40898">
        <ele>592.85461425781</ele>
        <time>2015-12-20T17:46:30.000Z</time>
      </trkpt>
      <trkpt lat="45.41998" lon="4.40908">
        <ele>592.73626708984</ele>
        <time>2015-12-20T17:46:33.000Z</time>
      </trkpt>
      <trkpt lat="45.41995" lon="4.40915">
        <ele>592.87817382812</ele>
        <time>2015-12-20T17:46:35.000Z</time>
      </trkpt>
      <trkpt lat="45.41992" lon="4.40921">
        <ele>593.41436767578</ele>
        <time>2015-12-20T17:46:37.000Z</time>
      </trkpt>
      <trkpt lat="45.41987" lon="4.4093">
        <ele>592.67254638672</ele>
        <time>2015-12-20T17:46:40.000Z</time>
      </trkpt>
      <trkpt lat="45.41983" lon="4.40939">
        <ele>592.49932861328</ele>
        <time>2015-12-20T17:46:43.000Z</time>
      </trkpt>
      <trkpt lat="45.41979" lon="4.4095">
        <ele>592.490234375</ele>
        <time>2015-12-20T17:46:46.000Z</time>
      </trkpt>
      <trkpt lat="45.41976" lon="4.40956">
        <ele>592.48388671875</ele>
        <time>2015-12-20T17:46:48.000Z</time>
      </trkpt>
      <trkpt lat="45.41973" lon="4.40965">
        <ele>593.10498046875</ele>
        <time>2015-12-20T17:46:51.000Z</time>
      </trkpt>
      <trkpt lat="45.4197" lon="4.40974">
        <ele>592.28729248047</ele>
        <time>2015-12-20T17:46:54.000Z</time>
      </trkpt>
      <trkpt lat="45.41969" lon="4.4098">
        <ele>591.66326904297</ele>
        <time>2015-12-20T17:46:56.000Z</time>
      </trkpt>
      <trkpt lat="45.41964" lon="4.40986">
        <ele>590.53161621094</ele>
        <time>2015-12-20T17:46:58.000Z</time>
      </trkpt>
      <trkpt lat="45.41957" lon="4.40995">
        <ele>589.15686035156</ele>
        <time>2015-12-20T17:47:01.000Z</time>
      </trkpt>
      <trkpt lat="45.41955" lon="4.41">
        <ele>589.45050048828</ele>
        <time>2015-12-20T17:47:03.000Z</time>
      </trkpt>
      <trkpt lat="45.41949" lon="4.41008">
        <ele>588.48010253906</ele>
        <time>2015-12-20T17:47:06.000Z</time>
      </trkpt>
      <trkpt lat="45.41944" lon="4.41012">
        <ele>587.06549072266</ele>
        <time>2015-12-20T17:47:08.000Z</time>
      </trkpt>
      <trkpt lat="45.41939" lon="4.41018">
        <ele>586.45385742188</ele>
        <time>2015-12-20T17:47:10.000Z</time>
      </trkpt>
      <trkpt lat="45.41934" lon="4.41025">
        <ele>587.31402587891</ele>
        <time>2015-12-20T17:47:13.000Z</time>
      </trkpt>
      <trkpt lat="45.41927" lon="4.41031">
        <ele>586.57635498047</ele>
        <time>2015-12-20T17:47:16.000Z</time>
      </trkpt>
      <trkpt lat="45.41923" lon="4.41034">
        <ele>587.73419189453</ele>
        <time>2015-12-20T17:47:18.000Z</time>
      </trkpt>
      <trkpt lat="45.41918" lon="4.41042">
        <ele>588.66442871094</ele>
        <time>2015-12-20T17:47:21.000Z</time>
      </trkpt>
      <trkpt lat="45.41912" lon="4.41048">
        <ele>589.47546386719</ele>
        <time>2015-12-20T17:47:24.000Z</time>
      </trkpt>
      <trkpt lat="45.41907" lon="4.41051">
        <ele>590.00817871094</ele>
        <time>2015-12-20T17:47:26.000Z</time>
      </trkpt>
      <trkpt lat="45.41902" lon="4.41057">
        <ele>591.51226806641</ele>
        <time>2015-12-20T17:47:29.000Z</time>
      </trkpt>
      <trkpt lat="45.41896" lon="4.41061">
        <ele>591.48028564453</ele>
        <time>2015-12-20T17:47:31.000Z</time>
      </trkpt>
      <trkpt lat="45.4189" lon="4.41066">
        <ele>592.73883056641</ele>
        <time>2015-12-20T17:47:34.000Z</time>
      </trkpt>
      <trkpt lat="45.41884" lon="4.41068">
        <ele>592.29821777344</ele>
        <time>2015-12-20T17:47:36.000Z</time>
      </trkpt>
      <trkpt lat="45.41878" lon="4.4107">
        <ele>591.54974365234</ele>
        <time>2015-12-20T17:47:38.000Z</time>
      </trkpt>
      <trkpt lat="45.41873" lon="4.41071">
        <ele>590.59936523438</ele>
        <time>2015-12-20T17:47:40.000Z</time>
      </trkpt>
      <trkpt lat="45.41867" lon="4.41073">
        <ele>591.48742675781</ele>
        <time>2015-12-20T17:47:43.000Z</time>
      </trkpt>
      <trkpt lat="45.41862" lon="4.41074">
        <ele>591.97180175781</ele>
        <time>2015-12-20T17:47:46.000Z</time>
      </trkpt>
      <trkpt lat="45.41859" lon="4.41075">
        <ele>592.10388183594</ele>
        <time>2015-12-20T17:47:48.000Z</time>
      </trkpt>
      <trkpt lat="45.41853" lon="4.41078">
        <ele>593.51409912109</ele>
        <time>2015-12-20T17:47:51.000Z</time>
      </trkpt>
      <trkpt lat="45.41848" lon="4.41077">
        <ele>593.51385498047</ele>
        <time>2015-12-20T17:47:53.000Z</time>
      </trkpt>
      <trkpt lat="45.41844" lon="4.41077">
        <ele>592.68829345703</ele>
        <time>2015-12-20T17:47:55.000Z</time>
      </trkpt>
      <trkpt lat="45.41841" lon="4.41076">
        <ele>592.18634033203</ele>
        <time>2015-12-20T17:47:57.000Z</time>
      </trkpt>
      <trkpt lat="45.41833" lon="4.41072">
        <ele>592.57189941406</ele>
        <time>2015-12-20T17:48:00.000Z</time>
      </trkpt>
      <trkpt lat="45.41828" lon="4.4107">
        <ele>592.55596923828</ele>
        <time>2015-12-20T17:48:02.000Z</time>
      </trkpt>
      <trkpt lat="45.41822" lon="4.4107">
        <ele>593.01684570312</ele>
        <time>2015-12-20T17:48:04.000Z</time>
      </trkpt>
      <trkpt lat="45.41814" lon="4.41069">
        <ele>595.16876220703</ele>
        <time>2015-12-20T17:48:07.000Z</time>
      </trkpt>
      <trkpt lat="45.41809" lon="4.41068">
        <ele>595.51452636719</ele>
        <time>2015-12-20T17:48:09.000Z</time>
      </trkpt>
      <trkpt lat="45.41807" lon="4.41068">
        <ele>595.53985595703</ele>
        <time>2015-12-20T17:48:11.000Z</time>
      </trkpt>
      <trkpt lat="45.41801" lon="4.41067">
        <ele>597.64923095703</ele>
        <time>2015-12-20T17:48:14.000Z</time>
      </trkpt>
      <trkpt lat="45.41797" lon="4.4107">
        <ele>599.96618652344</ele>
        <time>2015-12-20T17:48:17.000Z</time>
      </trkpt>
      <trkpt lat="45.41794" lon="4.41072">
        <ele>600.59411621094</ele>
        <time>2015-12-20T17:48:19.000Z</time>
      </trkpt>
      <trkpt lat="45.4179" lon="4.41073">
        <ele>602.47644042969</ele>
        <time>2015-12-20T17:48:23.000Z</time>
      </trkpt>
      <trkpt lat="45.41787" lon="4.41071">
        <ele>603.73791503906</ele>
        <time>2015-12-20T17:48:25.000Z</time>
      </trkpt>
      <trkpt lat="45.4178" lon="4.41067">
        <ele>605.46710205078</ele>
        <time>2015-12-20T17:48:28.000Z</time>
      </trkpt>
      <trkpt lat="45.41776" lon="4.41065">
        <ele>604.87176513672</ele>
        <time>2015-12-20T17:48:30.000Z</time>
      </trkpt>
      <trkpt lat="45.41766" lon="4.41061">
        <ele>605.72595214844</ele>
        <time>2015-12-20T17:48:33.000Z</time>
      </trkpt>
      <trkpt lat="45.4176" lon="4.41058">
        <ele>606.15606689453</ele>
        <time>2015-12-20T17:48:35.000Z</time>
      </trkpt>
      <trkpt lat="45.41756" lon="4.41057">
        <ele>606.50701904297</ele>
        <time>2015-12-20T17:48:37.000Z</time>
      </trkpt>
      <trkpt lat="45.41747" lon="4.41055">
        <ele>607.32934570312</ele>
        <time>2015-12-20T17:48:41.000Z</time>
      </trkpt>
      <trkpt lat="45.41735" lon="4.41054">
        <ele>607.98681640625</ele>
        <time>2015-12-20T17:48:44.000Z</time>
      </trkpt>
      <trkpt lat="45.41729" lon="4.41055">
        <ele>606.61676025391</ele>
        <time>2015-12-20T17:48:46.000Z</time>
      </trkpt>
      <trkpt lat="45.41725" lon="4.41056">
        <ele>606.17608642578</ele>
        <time>2015-12-20T17:48:49.000Z</time>
      </trkpt>
      <trkpt lat="45.41722" lon="4.41056">
        <ele>609.03149414062</ele>
        <time>2015-12-20T17:48:52.000Z</time>
      </trkpt>
      <trkpt lat="45.41717" lon="4.41055">
        <ele>611.84039306641</ele>
        <time>2015-12-20T17:48:55.000Z</time>
      </trkpt>
      <trkpt lat="45.41713" lon="4.41056">
        <ele>605.78656005859</ele>
        <time>2015-12-20T17:48:57.000Z</time>
      </trkpt>
      <trkpt lat="45.41708" lon="4.41056">
        <ele>602.50250244141</ele>
        <time>2015-12-20T17:48:59.000Z</time>
      </trkpt>
      <trkpt lat="45.41703" lon="4.41059">
        <ele>605.82299804688</ele>
        <time>2015-12-20T17:49:02.000Z</time>
      </trkpt>
      <trkpt lat="45.417" lon="4.4106">
        <ele>606.82409667969</ele>
        <time>2015-12-20T17:49:04.000Z</time>
      </trkpt>
      <trkpt lat="45.41697" lon="4.41061">
        <ele>610.19677734375</ele>
        <time>2015-12-20T17:49:06.000Z</time>
      </trkpt>
      <trkpt lat="45.41692" lon="4.41061">
        <ele>612.79437255859</ele>
        <time>2015-12-20T17:49:08.000Z</time>
      </trkpt>
      <trkpt lat="45.41683" lon="4.41063">
        <ele>613.19757080078</ele>
        <time>2015-12-20T17:49:11.000Z</time>
      </trkpt>
      <trkpt lat="45.41679" lon="4.41064">
        <ele>612.96411132812</ele>
        <time>2015-12-20T17:49:13.000Z</time>
      </trkpt>
      <trkpt lat="45.4167" lon="4.41065">
        <ele>612.47430419922</ele>
        <time>2015-12-20T17:49:16.000Z</time>
      </trkpt>
      <trkpt lat="45.41663" lon="4.41066">
        <ele>612.482421875</ele>
        <time>2015-12-20T17:49:19.000Z</time>
      </trkpt>
      <trkpt lat="45.41658" lon="4.41067">
        <ele>612.47961425781</ele>
        <time>2015-12-20T17:49:21.000Z</time>
      </trkpt>
      <trkpt lat="45.41651" lon="4.41068">
        <ele>612.48358154297</ele>
        <time>2015-12-20T17:49:24.000Z</time>
      </trkpt>
      <trkpt lat="45.41646" lon="4.41069">
        <ele>611.59069824219</ele>
        <time>2015-12-20T17:49:26.000Z</time>
      </trkpt>
      <trkpt lat="45.41642" lon="4.4107">
        <ele>610.97039794922</ele>
        <time>2015-12-20T17:49:28.000Z</time>
      </trkpt>
      <trkpt lat="45.41638" lon="4.41074">
        <ele>611.68579101562</ele>
        <time>2015-12-20T17:49:31.000Z</time>
      </trkpt>
      <trkpt lat="45.41637" lon="4.41083">
        <ele>612.2177734375</ele>
        <time>2015-12-20T17:49:34.000Z</time>
      </trkpt>
      <trkpt lat="45.41637" lon="4.41087">
        <ele>612.38635253906</ele>
        <time>2015-12-20T17:49:36.000Z</time>
      </trkpt>
      <trkpt lat="45.41641" lon="4.41091">
        <ele>611.13952636719</ele>
        <time>2015-12-20T17:49:39.000Z</time>
      </trkpt>
      <trkpt lat="45.41647" lon="4.41093">
        <ele>610.4443359375</ele>
        <time>2015-12-20T17:49:42.000Z</time>
      </trkpt>
      <trkpt lat="45.41651" lon="4.41093">
        <ele>609.97875976562</ele>
        <time>2015-12-20T17:49:44.000Z</time>
      </trkpt>
      <trkpt lat="45.41657" lon="4.41096">
        <ele>608.55706787109</ele>
        <time>2015-12-20T17:49:47.000Z</time>
      </trkpt>
      <trkpt lat="45.41663" lon="4.41097">
        <ele>608.36999511719</ele>
        <time>2015-12-20T17:49:50.000Z</time>
      </trkpt>
      <trkpt lat="45.41671" lon="4.41099">
        <ele>607.56469726562</ele>
        <time>2015-12-20T17:49:53.000Z</time>
      </trkpt>
      <trkpt lat="45.41677" lon="4.41101">
        <ele>606.07415771484</ele>
        <time>2015-12-20T17:49:56.000Z</time>
      </trkpt>
      <trkpt lat="45.41682" lon="4.41102">
        <ele>605.95776367188</ele>
        <time>2015-12-20T17:49:58.000Z</time>
      </trkpt>
      <trkpt lat="45.41688" lon="4.41104">
        <ele>605.6064453125</ele>
        <time>2015-12-20T17:50:01.000Z</time>
      </trkpt>
      <trkpt lat="45.41695" lon="4.41108">
        <ele>604.00061035156</ele>
        <time>2015-12-20T17:50:04.000Z</time>
      </trkpt>
      <trkpt lat="45.417" lon="4.41111">
        <ele>603.44232177734</ele>
        <time>2015-12-20T17:50:06.000Z</time>
      </trkpt>
      <trkpt lat="45.41703" lon="4.41111">
        <ele>606.57299804688</ele>
        <time>2015-12-20T17:50:08.000Z</time>
      </trkpt>
      <trkpt lat="45.41706" lon="4.41111">
        <ele>611.29998779297</ele>
        <time>2015-12-20T17:50:11.000Z</time>
      </trkpt>
      <trkpt lat="45.4171" lon="4.41118">
        <ele>609.36077880859</ele>
        <time>2015-12-20T17:50:13.000Z</time>
      </trkpt>
      <trkpt lat="45.41713" lon="4.41129">
        <ele>605.99871826172</ele>
        <time>2015-12-20T17:50:16.000Z</time>
      </trkpt>
      <trkpt lat="45.41716" lon="4.41138">
        <ele>605.45147705078</ele>
        <time>2015-12-20T17:50:19.000Z</time>
      </trkpt>
      <trkpt lat="45.41717" lon="4.41144">
        <ele>606.3671875</ele>
        <time>2015-12-20T17:50:21.000Z</time>
      </trkpt>
      <trkpt lat="45.41716" lon="4.41154">
        <ele>607.50042724609</ele>
        <time>2015-12-20T17:50:24.000Z</time>
      </trkpt>
      <trkpt lat="45.41716" lon="4.41162">
        <ele>608.19219970703</ele>
        <time>2015-12-20T17:50:26.000Z</time>
      </trkpt>
      <trkpt lat="45.41715" lon="4.41172">
        <ele>609.81292724609</ele>
        <time>2015-12-20T17:50:29.000Z</time>
      </trkpt>
      <trkpt lat="45.41714" lon="4.41181">
        <ele>610.99017333984</ele>
        <time>2015-12-20T17:50:32.000Z</time>
      </trkpt>
      <trkpt lat="45.41711" lon="4.41191">
        <ele>610.18627929688</ele>
        <time>2015-12-20T17:50:35.000Z</time>
      </trkpt>
      <trkpt lat="45.41709" lon="4.41197">
        <ele>610.18572998047</ele>
        <time>2015-12-20T17:50:38.000Z</time>
      </trkpt>
      <trkpt lat="45.41706" lon="4.41206">
        <ele>611.04254150391</ele>
        <time>2015-12-20T17:50:40.000Z</time>
      </trkpt>
      <trkpt lat="45.41704" lon="4.41213">
        <ele>611.74444580078</ele>
        <time>2015-12-20T17:50:42.000Z</time>
      </trkpt>
      <trkpt lat="45.41702" lon="4.4122">
        <ele>611.90563964844</ele>
        <time>2015-12-20T17:50:44.000Z</time>
      </trkpt>
      <trkpt lat="45.41701" lon="4.41225">
        <ele>613.24859619141</ele>
        <time>2015-12-20T17:50:46.000Z</time>
      </trkpt>
      <trkpt lat="45.41698" lon="4.41231">
        <ele>616.48315429688</ele>
        <time>2015-12-20T17:50:49.000Z</time>
      </trkpt>
      <trkpt lat="45.41699" lon="4.41244">
        <ele>616.8818359375</ele>
        <time>2015-12-20T17:50:52.000Z</time>
      </trkpt>
      <trkpt lat="45.417" lon="4.41255">
        <ele>616.40826416016</ele>
        <time>2015-12-20T17:50:55.000Z</time>
      </trkpt>
      <trkpt lat="45.41701" lon="4.41263">
        <ele>617.37408447266</ele>
        <time>2015-12-20T17:50:58.000Z</time>
      </trkpt>
      <trkpt lat="45.41703" lon="4.41273">
        <ele>615.07220458984</ele>
        <time>2015-12-20T17:51:00.000Z</time>
      </trkpt>
      <trkpt lat="45.41706" lon="4.41287">
        <ele>613.15319824219</ele>
        <time>2015-12-20T17:51:03.000Z</time>
      </trkpt>
      <trkpt lat="45.4171" lon="4.41297">
        <ele>613.79058837891</ele>
        <time>2015-12-20T17:51:06.000Z</time>
      </trkpt>
      <trkpt lat="45.41713" lon="4.41308">
        <ele>611.85687255859</ele>
        <time>2015-12-20T17:51:08.000Z</time>
      </trkpt>
      <trkpt lat="45.41716" lon="4.41316">
        <ele>610.6416015625</ele>
        <time>2015-12-20T17:51:10.000Z</time>
      </trkpt>
      <trkpt lat="45.41719" lon="4.41331">
        <ele>610.12664794922</ele>
        <time>2015-12-20T17:51:13.000Z</time>
      </trkpt>
      <trkpt lat="45.41722" lon="4.41339">
        <ele>612.15234375</ele>
        <time>2015-12-20T17:51:16.000Z</time>
      </trkpt>
      <trkpt lat="45.41723" lon="4.41343">
        <ele>614.15106201172</ele>
        <time>2015-12-20T17:51:18.000Z</time>
      </trkpt>
      <trkpt lat="45.41724" lon="4.41349">
        <ele>615.07141113281</ele>
        <time>2015-12-20T17:51:21.000Z</time>
      </trkpt>
      <trkpt lat="45.41725" lon="4.41355">
        <ele>614.98352050781</ele>
        <time>2015-12-20T17:51:23.000Z</time>
      </trkpt>
      <trkpt lat="45.41728" lon="4.41366">
        <ele>615.63916015625</ele>
        <time>2015-12-20T17:51:26.000Z</time>
      </trkpt>
      <trkpt lat="45.4173" lon="4.41373">
        <ele>617.05151367188</ele>
        <time>2015-12-20T17:51:29.000Z</time>
      </trkpt>
      <trkpt lat="45.41735" lon="4.41385">
        <ele>613.21160888672</ele>
        <time>2015-12-20T17:51:32.000Z</time>
      </trkpt>
      <trkpt lat="45.41739" lon="4.41394">
        <ele>613.15045166016</ele>
        <time>2015-12-20T17:51:35.000Z</time>
      </trkpt>
      <trkpt lat="45.4174" lon="4.41402">
        <ele>613.89544677734</ele>
        <time>2015-12-20T17:51:37.000Z</time>
      </trkpt>
      <trkpt lat="45.41741" lon="4.41406">
        <ele>614.01818847656</ele>
        <time>2015-12-20T17:51:39.000Z</time>
      </trkpt>
      <trkpt lat="45.41743" lon="4.41412">
        <ele>613.68963623047</ele>
        <time>2015-12-20T17:51:41.000Z</time>
      </trkpt>
      <trkpt lat="45.41745" lon="4.41423">
        <ele>612.81530761719</ele>
        <time>2015-12-20T17:51:44.000Z</time>
      </trkpt>
      <trkpt lat="45.41747" lon="4.4143">
        <ele>613.91076660156</ele>
        <time>2015-12-20T17:51:46.000Z</time>
      </trkpt>
      <trkpt lat="45.4175" lon="4.41441">
        <ele>615.865234375</ele>
        <time>2015-12-20T17:51:49.000Z</time>
      </trkpt>
      <trkpt lat="45.41754" lon="4.41452">
        <ele>618.1611328125</ele>
        <time>2015-12-20T17:51:52.000Z</time>
      </trkpt>
      <trkpt lat="45.41756" lon="4.41459">
        <ele>618.59753417969</ele>
        <time>2015-12-20T17:51:54.000Z</time>
      </trkpt>
      <trkpt lat="45.41759" lon="4.4147">
        <ele>619.37200927734</ele>
        <time>2015-12-20T17:51:57.000Z</time>
      </trkpt>
      <trkpt lat="45.41761" lon="4.41479">
        <ele>619.29632568359</ele>
        <time>2015-12-20T17:52:00.000Z</time>
      </trkpt>
      <trkpt lat="45.41764" lon="4.41486">
        <ele>618.16864013672</ele>
        <time>2015-12-20T17:52:02.000Z</time>
      </trkpt>
      <trkpt lat="45.41766" lon="4.41494">
        <ele>617.23852539062</ele>
        <time>2015-12-20T17:52:04.000Z</time>
      </trkpt>
      <trkpt lat="45.41769" lon="4.41506">
        <ele>616.12762451172</ele>
        <time>2015-12-20T17:52:07.000Z</time>
      </trkpt>
      <trkpt lat="45.41771" lon="4.41511">
        <ele>616.74298095703</ele>
        <time>2015-12-20T17:52:09.000Z</time>
      </trkpt>
      <trkpt lat="45.41774" lon="4.41517">
        <ele>615.80755615234</ele>
        <time>2015-12-20T17:52:12.000Z</time>
      </trkpt>
      <trkpt lat="45.41775" lon="4.41522">
        <ele>615.53979492188</ele>
        <time>2015-12-20T17:52:14.000Z</time>
      </trkpt>
      <trkpt lat="45.41778" lon="4.41535">
        <ele>614.54376220703</ele>
        <time>2015-12-20T17:52:17.000Z</time>
      </trkpt>
      <trkpt lat="45.4178" lon="4.41543">
        <ele>614.88006591797</ele>
        <time>2015-12-20T17:52:19.000Z</time>
      </trkpt>
      <trkpt lat="45.41783" lon="4.41553">
        <ele>615.84637451172</ele>
        <time>2015-12-20T17:52:22.000Z</time>
      </trkpt>
      <trkpt lat="45.41785" lon="4.41562">
        <ele>616.75531005859</ele>
        <time>2015-12-20T17:52:24.000Z</time>
      </trkpt>
      <trkpt lat="45.41788" lon="4.41575">
        <ele>616.05004882812</ele>
        <time>2015-12-20T17:52:27.000Z</time>
      </trkpt>
      <trkpt lat="45.4179" lon="4.4158">
        <ele>616.02703857422</ele>
        <time>2015-12-20T17:52:29.000Z</time>
      </trkpt>
      <trkpt lat="45.41793" lon="4.41589">
        <ele>616.95556640625</ele>
        <time>2015-12-20T17:52:32.000Z</time>
      </trkpt>
      <trkpt lat="45.41794" lon="4.41594">
        <ele>616.64129638672</ele>
        <time>2015-12-20T17:52:34.000Z</time>
      </trkpt>
      <trkpt lat="45.41798" lon="4.41607">
        <ele>616.06646728516</ele>
        <time>2015-12-20T17:52:37.000Z</time>
      </trkpt>
      <trkpt lat="45.418" lon="4.41614">
        <ele>616.71710205078</ele>
        <time>2015-12-20T17:52:39.000Z</time>
      </trkpt>
      <trkpt lat="45.41803" lon="4.41621">
        <ele>619.02587890625</ele>
        <time>2015-12-20T17:52:42.000Z</time>
      </trkpt>
      <trkpt lat="45.41805" lon="4.41629">
        <ele>619.21887207031</ele>
        <time>2015-12-20T17:52:44.000Z</time>
      </trkpt>
      <trkpt lat="45.41808" lon="4.41638">
        <ele>620.95812988281</ele>
        <time>2015-12-20T17:52:47.000Z</time>
      </trkpt>
      <trkpt lat="45.4181" lon="4.41643">
        <ele>621.38043212891</ele>
        <time>2015-12-20T17:52:49.000Z</time>
      </trkpt>
      <trkpt lat="45.41813" lon="4.4165">
        <ele>623.79241943359</ele>
        <time>2015-12-20T17:52:52.000Z</time>
      </trkpt>
      <trkpt lat="45.41814" lon="4.41655">
        <ele>626.47467041016</ele>
        <time>2015-12-20T17:52:54.000Z</time>
      </trkpt>
      <trkpt lat="45.41816" lon="4.41664">
        <ele>628.04931640625</ele>
        <time>2015-12-20T17:52:57.000Z</time>
      </trkpt>
      <trkpt lat="45.41818" lon="4.4167">
        <ele>629.4287109375</ele>
        <time>2015-12-20T17:52:59.000Z</time>
      </trkpt>
      <trkpt lat="45.41821" lon="4.41679">
        <ele>632.78448486328</ele>
        <time>2015-12-20T17:53:02.000Z</time>
      </trkpt>
      <trkpt lat="45.41823" lon="4.41688">
        <ele>634.2177734375</ele>
        <time>2015-12-20T17:53:05.000Z</time>
      </trkpt>
      <trkpt lat="45.41825" lon="4.41696">
        <ele>634.88775634766</ele>
        <time>2015-12-20T17:53:07.000Z</time>
      </trkpt>
      <trkpt lat="45.41828" lon="4.41703">
        <ele>636.38830566406</ele>
        <time>2015-12-20T17:53:09.000Z</time>
      </trkpt>
      <trkpt lat="45.41831" lon="4.4171">
        <ele>640.01776123047</ele>
        <time>2015-12-20T17:53:12.000Z</time>
      </trkpt>
      <trkpt lat="45.41832" lon="4.41714">
        <ele>641.53625488281</ele>
        <time>2015-12-20T17:53:14.000Z</time>
      </trkpt>
      <trkpt lat="45.41834" lon="4.4172">
        <ele>643.23895263672</ele>
        <time>2015-12-20T17:53:17.000Z</time>
      </trkpt>
      <trkpt lat="45.41836" lon="4.41724">
        <ele>644.44805908203</ele>
        <time>2015-12-20T17:53:19.000Z</time>
      </trkpt>
      <trkpt lat="45.41838" lon="4.41731">
        <ele>647.56988525391</ele>
        <time>2015-12-20T17:53:22.000Z</time>
      </trkpt>
      <trkpt lat="45.41839" lon="4.4174">
        <ele>647.83135986328</ele>
        <time>2015-12-20T17:53:24.000Z</time>
      </trkpt>
      <trkpt lat="45.41842" lon="4.41752">
        <ele>645.67852783203</ele>
        <time>2015-12-20T17:53:27.000Z</time>
      </trkpt>
      <trkpt lat="45.41844" lon="4.4176">
        <ele>643.83807373047</ele>
        <time>2015-12-20T17:53:29.000Z</time>
      </trkpt>
      <trkpt lat="45.41852" lon="4.41784">
        <ele>634.94281005859</ele>
        <time>2015-12-20T17:53:32.000Z</time>
      </trkpt>
      <trkpt lat="45.41855" lon="4.41793">
        <ele>632.69458007812</ele>
        <time>2015-12-20T17:53:34.000Z</time>
      </trkpt>
      <trkpt lat="45.41856" lon="4.418">
        <ele>631.43029785156</ele>
        <time>2015-12-20T17:53:36.000Z</time>
      </trkpt>
      <trkpt lat="45.41858" lon="4.4181">
        <ele>630.31921386719</ele>
        <time>2015-12-20T17:53:39.000Z</time>
      </trkpt>
      <trkpt lat="45.41861" lon="4.4182">
        <ele>630.06390380859</ele>
        <time>2015-12-20T17:53:42.000Z</time>
      </trkpt>
      <trkpt lat="45.41862" lon="4.41826">
        <ele>630.61108398438</ele>
        <time>2015-12-20T17:53:44.000Z</time>
      </trkpt>
      <trkpt lat="45.41866" lon="4.41839">
        <ele>631.08953857422</ele>
        <time>2015-12-20T17:53:47.000Z</time>
      </trkpt>
      <trkpt lat="45.41868" lon="4.41849">
        <ele>631.19311523438</ele>
        <time>2015-12-20T17:53:50.000Z</time>
      </trkpt>
      <trkpt lat="45.4187" lon="4.41856">
        <ele>631.12133789062</ele>
        <time>2015-12-20T17:53:52.000Z</time>
      </trkpt>
      <trkpt lat="45.41873" lon="4.41867">
        <ele>630.63995361328</ele>
        <time>2015-12-20T17:53:55.000Z</time>
      </trkpt>
      <trkpt lat="45.41876" lon="4.41881">
        <ele>631.04779052734</ele>
        <time>2015-12-20T17:53:58.000Z</time>
      </trkpt>
      <trkpt lat="45.41878" lon="4.41888">
        <ele>631.02917480469</ele>
        <time>2015-12-20T17:54:00.000Z</time>
      </trkpt>
      <trkpt lat="45.41881" lon="4.419">
        <ele>629.30004882812</ele>
        <time>2015-12-20T17:54:03.000Z</time>
      </trkpt>
      <trkpt lat="45.41883" lon="4.41905">
        <ele>628.31091308594</ele>
        <time>2015-12-20T17:54:05.000Z</time>
      </trkpt>
      <trkpt lat="45.41887" lon="4.41915">
        <ele>626.36376953125</ele>
        <time>2015-12-20T17:54:08.000Z</time>
      </trkpt>
      <trkpt lat="45.4189" lon="4.41922">
        <ele>625.224609375</ele>
        <time>2015-12-20T17:54:11.000Z</time>
      </trkpt>
      <trkpt lat="45.41891" lon="4.41926">
        <ele>627.43304443359</ele>
        <time>2015-12-20T17:54:13.000Z</time>
      </trkpt>
      <trkpt lat="45.41893" lon="4.41931">
        <ele>629.56713867188</ele>
        <time>2015-12-20T17:54:15.000Z</time>
      </trkpt>
      <trkpt lat="45.41895" lon="4.4194">
        <ele>630.50537109375</ele>
        <time>2015-12-20T17:54:18.000Z</time>
      </trkpt>
      <trkpt lat="45.41897" lon="4.41946">
        <ele>631.54040527344</ele>
        <time>2015-12-20T17:54:20.000Z</time>
      </trkpt>
      <trkpt lat="45.41899" lon="4.41953">
        <ele>632.39227294922</ele>
        <time>2015-12-20T17:54:22.000Z</time>
      </trkpt>
      <trkpt lat="45.41901" lon="4.4196">
        <ele>632.94604492188</ele>
        <time>2015-12-20T17:54:25.000Z</time>
      </trkpt>
      <trkpt lat="45.41904" lon="4.4197">
        <ele>632.50164794922</ele>
        <time>2015-12-20T17:54:28.000Z</time>
      </trkpt>
      <trkpt lat="45.41906" lon="4.41978">
        <ele>632.46722412109</ele>
        <time>2015-12-20T17:54:30.000Z</time>
      </trkpt>
      <trkpt lat="45.41908" lon="4.41988">
        <ele>633.35894775391</ele>
        <time>2015-12-20T17:54:33.000Z</time>
      </trkpt>
      <trkpt lat="45.4191" lon="4.41993">
        <ele>634.18731689453</ele>
        <time>2015-12-20T17:54:35.000Z</time>
      </trkpt>
      <trkpt lat="45.41914" lon="4.42003">
        <ele>635.66723632812</ele>
        <time>2015-12-20T17:54:38.000Z</time>
      </trkpt>
      <trkpt lat="45.41918" lon="4.42015">
        <ele>636.21752929688</ele>
        <time>2015-12-20T17:54:41.000Z</time>
      </trkpt>
      <trkpt lat="45.41922" lon="4.42024">
        <ele>636.77563476562</ele>
        <time>2015-12-20T17:54:44.000Z</time>
      </trkpt>
      <trkpt lat="45.41924" lon="4.4203">
        <ele>637.23980712891</ele>
        <time>2015-12-20T17:54:46.000Z</time>
      </trkpt>
      <trkpt lat="45.41928" lon="4.4204">
        <ele>635.40490722656</ele>
        <time>2015-12-20T17:54:49.000Z</time>
      </trkpt>
      <trkpt lat="45.41932" lon="4.4205">
        <ele>635.01153564453</ele>
        <time>2015-12-20T17:54:52.000Z</time>
      </trkpt>
      <trkpt lat="45.41936" lon="4.42058">
        <ele>634.90838623047</ele>
        <time>2015-12-20T17:54:55.000Z</time>
      </trkpt>
      <trkpt lat="45.41941" lon="4.42066">
        <ele>637.00732421875</ele>
        <time>2015-12-20T17:54:58.000Z</time>
      </trkpt>
      <trkpt lat="45.41945" lon="4.42074">
        <ele>636.99755859375</ele>
        <time>2015-12-20T17:55:01.000Z</time>
      </trkpt>
      <trkpt lat="45.41949" lon="4.42081">
        <ele>634.23986816406</ele>
        <time>2015-12-20T17:55:03.000Z</time>
      </trkpt>
      <trkpt lat="45.41955" lon="4.42088">
        <ele>627.61364746094</ele>
        <time>2015-12-20T17:55:06.000Z</time>
      </trkpt>
      <trkpt lat="45.41961" lon="4.421">
        <ele>622.61218261719</ele>
        <time>2015-12-20T17:55:09.000Z</time>
      </trkpt>
      <trkpt lat="45.41963" lon="4.42106">
        <ele>621.48834228516</ele>
        <time>2015-12-20T17:55:11.000Z</time>
      </trkpt>
      <trkpt lat="45.41968" lon="4.42116">
        <ele>623.60931396484</ele>
        <time>2015-12-20T17:55:14.000Z</time>
      </trkpt>
      <trkpt lat="45.41972" lon="4.42123">
        <ele>623.60412597656</ele>
        <time>2015-12-20T17:55:16.000Z</time>
      </trkpt>
      <trkpt lat="45.41978" lon="4.42132">
        <ele>622.46282958984</ele>
        <time>2015-12-20T17:55:19.000Z</time>
      </trkpt>
      <trkpt lat="45.41984" lon="4.42139">
        <ele>623.34283447266</ele>
        <time>2015-12-20T17:55:22.000Z</time>
      </trkpt>
      <trkpt lat="45.41987" lon="4.42144">
        <ele>623.47711181641</ele>
        <time>2015-12-20T17:55:24.000Z</time>
      </trkpt>
      <trkpt lat="45.4199" lon="4.42148">
        <ele>624.31311035156</ele>
        <time>2015-12-20T17:55:26.000Z</time>
      </trkpt>
      <trkpt lat="45.41994" lon="4.42154">
        <ele>625.81512451172</ele>
        <time>2015-12-20T17:55:29.000Z</time>
      </trkpt>
      <trkpt lat="45.42" lon="4.42159">
        <ele>624.13409423828</ele>
        <time>2015-12-20T17:55:31.000Z</time>
      </trkpt>
      <trkpt lat="45.42008" lon="4.42165">
        <ele>620.48095703125</ele>
        <time>2015-12-20T17:55:34.000Z</time>
      </trkpt>
      <trkpt lat="45.42012" lon="4.4217">
        <ele>618.08740234375</ele>
        <time>2015-12-20T17:55:36.000Z</time>
      </trkpt>
      <trkpt lat="45.42015" lon="4.42177">
        <ele>618.41748046875</ele>
        <time>2015-12-20T17:55:38.000Z</time>
      </trkpt>
      <trkpt lat="45.42021" lon="4.42187">
        <ele>617.94488525391</ele>
        <time>2015-12-20T17:55:41.000Z</time>
      </trkpt>
      <trkpt lat="45.42025" lon="4.42191">
        <ele>616.94635009766</ele>
        <time>2015-12-20T17:55:43.000Z</time>
      </trkpt>
      <trkpt lat="45.42031" lon="4.42197">
        <ele>613.27899169922</ele>
        <time>2015-12-20T17:55:46.000Z</time>
      </trkpt>
      <trkpt lat="45.42037" lon="4.42204">
        <ele>612.91235351562</ele>
        <time>2015-12-20T17:55:49.000Z</time>
      </trkpt>
      <trkpt lat="45.42043" lon="4.42209">
        <ele>613.89892578125</ele>
        <time>2015-12-20T17:55:52.000Z</time>
      </trkpt>
      <trkpt lat="45.42049" lon="4.42214">
        <ele>615.77130126953</ele>
        <time>2015-12-20T17:55:55.000Z</time>
      </trkpt>
      <trkpt lat="45.42054" lon="4.42218">
        <ele>617.6142578125</ele>
        <time>2015-12-20T17:55:58.000Z</time>
      </trkpt>
      <trkpt lat="45.42061" lon="4.42222">
        <ele>619.2734375</ele>
        <time>2015-12-20T17:56:01.000Z</time>
      </trkpt>
      <trkpt lat="45.42067" lon="4.42227">
        <ele>620.74993896484</ele>
        <time>2015-12-20T17:56:04.000Z</time>
      </trkpt>
      <trkpt lat="45.42071" lon="4.42228">
        <ele>624.05450439453</ele>
        <time>2015-12-20T17:56:06.000Z</time>
      </trkpt>
      <trkpt lat="45.42075" lon="4.42231">
        <ele>626.80096435547</ele>
        <time>2015-12-20T17:56:09.000Z</time>
      </trkpt>
      <trkpt lat="45.42081" lon="4.42237">
        <ele>627.81683349609</ele>
        <time>2015-12-20T17:56:12.000Z</time>
      </trkpt>
      <trkpt lat="45.42088" lon="4.42245">
        <ele>626.98596191406</ele>
        <time>2015-12-20T17:56:15.000Z</time>
      </trkpt>
      <trkpt lat="45.42093" lon="4.42251">
        <ele>626.11968994141</ele>
        <time>2015-12-20T17:56:17.000Z</time>
      </trkpt>
      <trkpt lat="45.42098" lon="4.42258">
        <ele>625.99011230469</ele>
        <time>2015-12-20T17:56:19.000Z</time>
      </trkpt>
      <trkpt lat="45.42104" lon="4.42263">
        <ele>625.16687011719</ele>
        <time>2015-12-20T17:56:21.000Z</time>
      </trkpt>
      <trkpt lat="45.42114" lon="4.42268">
        <ele>623.50421142578</ele>
        <time>2015-12-20T17:56:24.000Z</time>
      </trkpt>
      <trkpt lat="45.42118" lon="4.42269">
        <ele>620.52661132812</ele>
        <time>2015-12-20T17:56:26.000Z</time>
      </trkpt>
      <trkpt lat="45.42121" lon="4.42268">
        <ele>619.61529541016</ele>
        <time>2015-12-20T17:56:28.000Z</time>
      </trkpt>
      <trkpt lat="45.42128" lon="4.42269">
        <ele>621.80603027344</ele>
        <time>2015-12-20T17:56:31.000Z</time>
      </trkpt>
      <trkpt lat="45.42135" lon="4.42273">
        <ele>623.19659423828</ele>
        <time>2015-12-20T17:56:34.000Z</time>
      </trkpt>
      <trkpt lat="45.42141" lon="4.42283">
        <ele>623.70123291016</ele>
        <time>2015-12-20T17:56:37.000Z</time>
      </trkpt>
      <trkpt lat="45.42144" lon="4.42292">
        <ele>624.42761230469</ele>
        <time>2015-12-20T17:56:39.000Z</time>
      </trkpt>
      <trkpt lat="45.42151" lon="4.42298">
        <ele>624.91613769531</ele>
        <time>2015-12-20T17:56:42.000Z</time>
      </trkpt>
      <trkpt lat="45.42156" lon="4.42301">
        <ele>624.61730957031</ele>
        <time>2015-12-20T17:56:44.000Z</time>
      </trkpt>
      <trkpt lat="45.42162" lon="4.42304">
        <ele>624.43841552734</ele>
        <time>2015-12-20T17:56:46.000Z</time>
      </trkpt>
      <trkpt lat="45.42167" lon="4.42307">
        <ele>623.65802001953</ele>
        <time>2015-12-20T17:56:48.000Z</time>
      </trkpt>
      <trkpt lat="45.42175" lon="4.42311">
        <ele>622.83471679688</ele>
        <time>2015-12-20T17:56:51.000Z</time>
      </trkpt>
      <trkpt lat="45.42184" lon="4.42315">
        <ele>617.71551513672</ele>
        <time>2015-12-20T17:56:54.000Z</time>
      </trkpt>
      <trkpt lat="45.42189" lon="4.42317">
        <ele>616.18347167969</ele>
        <time>2015-12-20T17:56:56.000Z</time>
      </trkpt>
      <trkpt lat="45.42196" lon="4.42317">
        <ele>615.41326904297</ele>
        <time>2015-12-20T17:56:58.000Z</time>
      </trkpt>
      <trkpt lat="45.42202" lon="4.42318">
        <ele>613.34344482422</ele>
        <time>2015-12-20T17:57:00.000Z</time>
      </trkpt>
      <trkpt lat="45.42209" lon="4.42318">
        <ele>612.0546875</ele>
        <time>2015-12-20T17:57:03.000Z</time>
      </trkpt>
      <trkpt lat="45.42218" lon="4.42319">
        <ele>611.14752197266</ele>
        <time>2015-12-20T17:57:06.000Z</time>
      </trkpt>
      <trkpt lat="45.42225" lon="4.42319">
        <ele>610.1171875</ele>
        <time>2015-12-20T17:57:09.000Z</time>
      </trkpt>
      <trkpt lat="45.42233" lon="4.42319">
        <ele>608.14874267578</ele>
        <time>2015-12-20T17:57:12.000Z</time>
      </trkpt>
      <trkpt lat="45.42238" lon="4.42319">
        <ele>607.10473632812</ele>
        <time>2015-12-20T17:57:14.000Z</time>
      </trkpt>
      <trkpt lat="45.42247" lon="4.42319">
        <ele>607.98516845703</ele>
        <time>2015-12-20T17:57:17.000Z</time>
      </trkpt>
      <trkpt lat="45.42254" lon="4.42318">
        <ele>610.46911621094</ele>
        <time>2015-12-20T17:57:20.000Z</time>
      </trkpt>
      <trkpt lat="45.42261" lon="4.42316">
        <ele>611.91528320312</ele>
        <time>2015-12-20T17:57:23.000Z</time>
      </trkpt>
      <trkpt lat="45.42265" lon="4.42314">
        <ele>613.05816650391</ele>
        <time>2015-12-20T17:57:25.000Z</time>
      </trkpt>
      <trkpt lat="45.42271" lon="4.42313">
        <ele>613.53674316406</ele>
        <time>2015-12-20T17:57:27.000Z</time>
      </trkpt>
      <trkpt lat="45.42276" lon="4.42312">
        <ele>613.69787597656</ele>
        <time>2015-12-20T17:57:29.000Z</time>
      </trkpt>
      <trkpt lat="45.4228" lon="4.42309">
        <ele>614.51245117188</ele>
        <time>2015-12-20T17:57:31.000Z</time>
      </trkpt>
      <trkpt lat="45.42287" lon="4.42306">
        <ele>613.03527832031</ele>
        <time>2015-12-20T17:57:34.000Z</time>
      </trkpt>
      <trkpt lat="45.42293" lon="4.42303">
        <ele>613.98022460938</ele>
        <time>2015-12-20T17:57:36.000Z</time>
      </trkpt>
      <trkpt lat="45.42301" lon="4.42298">
        <ele>616.44763183594</ele>
        <time>2015-12-20T17:57:39.000Z</time>
      </trkpt>
      <trkpt lat="45.42309" lon="4.42293">
        <ele>618.08209228516</ele>
        <time>2015-12-20T17:57:42.000Z</time>
      </trkpt>
      <trkpt lat="45.42313" lon="4.42289">
        <ele>618.16027832031</ele>
        <time>2015-12-20T17:57:44.000Z</time>
      </trkpt>
      <trkpt lat="45.42318" lon="4.42285">
        <ele>619.84826660156</ele>
        <time>2015-12-20T17:57:46.000Z</time>
      </trkpt>
      <trkpt lat="45.42323" lon="4.4228">
        <ele>620.08160400391</ele>
        <time>2015-12-20T17:57:48.000Z</time>
      </trkpt>
      <trkpt lat="45.42329" lon="4.42275">
        <ele>622.02630615234</ele>
        <time>2015-12-20T17:57:51.000Z</time>
      </trkpt>
      <trkpt lat="45.42334" lon="4.42268">
        <ele>622.18395996094</ele>
        <time>2015-12-20T17:57:54.000Z</time>
      </trkpt>
      <trkpt lat="45.42338" lon="4.42263">
        <ele>622.49060058594</ele>
        <time>2015-12-20T17:57:57.000Z</time>
      </trkpt>
      <trkpt lat="45.42344" lon="4.42258">
        <ele>622.52868652344</ele>
        <time>2015-12-20T17:58:00.000Z</time>
      </trkpt>
      <trkpt lat="45.42348" lon="4.42252">
        <ele>620.84149169922</ele>
        <time>2015-12-20T17:58:03.000Z</time>
      </trkpt>
      <trkpt lat="45.42353" lon="4.42247">
        <ele>620.94744873047</ele>
        <time>2015-12-20T17:58:06.000Z</time>
      </trkpt>
      <trkpt lat="45.42358" lon="4.42243">
        <ele>622.43353271484</ele>
        <time>2015-12-20T17:58:08.000Z</time>
      </trkpt>
      <trkpt lat="45.42362" lon="4.42239">
        <ele>623.39862060547</ele>
        <time>2015-12-20T17:58:10.000Z</time>
      </trkpt>
      <trkpt lat="45.42367" lon="4.42233">
        <ele>625.50061035156</ele>
        <time>2015-12-20T17:58:13.000Z</time>
      </trkpt>
      <trkpt lat="45.4237" lon="4.42228">
        <ele>625.60974121094</ele>
        <time>2015-12-20T17:58:15.000Z</time>
      </trkpt>
      <trkpt lat="45.42374" lon="4.42225">
        <ele>625.63336181641</ele>
        <time>2015-12-20T17:58:17.000Z</time>
      </trkpt>
      <trkpt lat="45.4238" lon="4.42218">
        <ele>626.39135742188</ele>
        <time>2015-12-20T17:58:20.000Z</time>
      </trkpt>
      <trkpt lat="45.42383" lon="4.42213">
        <ele>627.39135742188</ele>
        <time>2015-12-20T17:58:22.000Z</time>
      </trkpt>
      <trkpt lat="45.42388" lon="4.42207">
        <ele>628.87438964844</ele>
        <time>2015-12-20T17:58:25.000Z</time>
      </trkpt>
      <trkpt lat="45.42394" lon="4.422">
        <ele>630.42364501953</ele>
        <time>2015-12-20T17:58:28.000Z</time>
      </trkpt>
      <trkpt lat="45.42397" lon="4.42197">
        <ele>630.54022216797</ele>
        <time>2015-12-20T17:58:30.000Z</time>
      </trkpt>
      <trkpt lat="45.42403" lon="4.42191">
        <ele>631.41149902344</ele>
        <time>2015-12-20T17:58:33.000Z</time>
      </trkpt>
      <trkpt lat="45.42407" lon="4.42187">
        <ele>631.54071044922</ele>
        <time>2015-12-20T17:58:35.000Z</time>
      </trkpt>
      <trkpt lat="45.4241" lon="4.42183">
        <ele>631.52294921875</ele>
        <time>2015-12-20T17:58:37.000Z</time>
      </trkpt>
      <trkpt lat="45.42414" lon="4.4218">
        <ele>631.52154541016</ele>
        <time>2015-12-20T17:58:39.000Z</time>
      </trkpt>
      <trkpt lat="45.42417" lon="4.42176">
        <ele>631.89154052734</ele>
        <time>2015-12-20T17:58:41.000Z</time>
      </trkpt>
      <trkpt lat="45.4242" lon="4.42173">
        <ele>632.39239501953</ele>
        <time>2015-12-20T17:58:43.000Z</time>
      </trkpt>
      <trkpt lat="45.42423" lon="4.4217">
        <ele>633.40100097656</ele>
        <time>2015-12-20T17:58:45.000Z</time>
      </trkpt>
      <trkpt lat="45.4243" lon="4.42162">
        <ele>632.04412841797</ele>
        <time>2015-12-20T17:58:48.000Z</time>
      </trkpt>
      <trkpt lat="45.42436" lon="4.42157">
        <ele>631.50463867188</ele>
        <time>2015-12-20T17:58:51.000Z</time>
      </trkpt>
      <trkpt lat="45.42442" lon="4.42152">
        <ele>631.52453613281</ele>
        <time>2015-12-20T17:58:54.000Z</time>
      </trkpt>
      <trkpt lat="45.42448" lon="4.42144">
        <ele>631.14068603516</ele>
        <time>2015-12-20T17:58:57.000Z</time>
      </trkpt>
      <trkpt lat="45.42452" lon="4.4214">
        <ele>631.89044189453</ele>
        <time>2015-12-20T17:58:59.000Z</time>
      </trkpt>
      <trkpt lat="45.42458" lon="4.42134">
        <ele>631.78967285156</ele>
        <time>2015-12-20T17:59:02.000Z</time>
      </trkpt>
      <trkpt lat="45.42465" lon="4.42128">
        <ele>630.50457763672</ele>
        <time>2015-12-20T17:59:05.000Z</time>
      </trkpt>
      <trkpt lat="45.42471" lon="4.42121">
        <ele>630.15899658203</ele>
        <time>2015-12-20T17:59:08.000Z</time>
      </trkpt>
      <trkpt lat="45.42475" lon="4.42117">
        <ele>629.62982177734</ele>
        <time>2015-12-20T17:59:10.000Z</time>
      </trkpt>
      <trkpt lat="45.42481" lon="4.4211">
        <ele>630.14532470703</ele>
        <time>2015-12-20T17:59:13.000Z</time>
      </trkpt>
      <trkpt lat="45.42484" lon="4.42105">
        <ele>631.36889648438</ele>
        <time>2015-12-20T17:59:15.000Z</time>
      </trkpt>
      <trkpt lat="45.4249" lon="4.42099">
        <ele>632.4140625</ele>
        <time>2015-12-20T17:59:18.000Z</time>
      </trkpt>
      <trkpt lat="45.42493" lon="4.42095">
        <ele>632.93341064453</ele>
        <time>2015-12-20T17:59:20.000Z</time>
      </trkpt>
      <trkpt lat="45.42499" lon="4.42088">
        <ele>632.02514648438</ele>
        <time>2015-12-20T17:59:23.000Z</time>
      </trkpt>
      <trkpt lat="45.42503" lon="4.42085">
        <ele>632.40014648438</ele>
        <time>2015-12-20T17:59:25.000Z</time>
      </trkpt>
      <trkpt lat="45.42509" lon="4.42078">
        <ele>632.91967773438</ele>
        <time>2015-12-20T17:59:28.000Z</time>
      </trkpt>
      <trkpt lat="45.42517" lon="4.42072">
        <ele>627.62615966797</ele>
        <time>2015-12-20T17:59:31.000Z</time>
      </trkpt>
      <trkpt lat="45.42521" lon="4.42068">
        <ele>626.61834716797</ele>
        <time>2015-12-20T17:59:33.000Z</time>
      </trkpt>
      <trkpt lat="45.42525" lon="4.42059">
        <ele>628.31243896484</ele>
        <time>2015-12-20T17:59:36.000Z</time>
      </trkpt>
      <trkpt lat="45.42529" lon="4.42054">
        <ele>628.57409667969</ele>
        <time>2015-12-20T17:59:38.000Z</time>
      </trkpt>
      <trkpt lat="45.42533" lon="4.4205">
        <ele>626.98748779297</ele>
        <time>2015-12-20T17:59:40.000Z</time>
      </trkpt>
      <trkpt lat="45.42539" lon="4.42043">
        <ele>625.00378417969</ele>
        <time>2015-12-20T17:59:43.000Z</time>
      </trkpt>
      <trkpt lat="45.42545" lon="4.42038">
        <ele>623.9990234375</ele>
        <time>2015-12-20T17:59:46.000Z</time>
      </trkpt>
      <trkpt lat="45.42548" lon="4.42033">
        <ele>623.51861572266</ele>
        <time>2015-12-20T17:59:48.000Z</time>
      </trkpt>
      <trkpt lat="45.42556" lon="4.42024">
        <ele>622.62237548828</ele>
        <time>2015-12-20T17:59:51.000Z</time>
      </trkpt>
      <trkpt lat="45.4256" lon="4.4202">
        <ele>625.29919433594</ele>
        <time>2015-12-20T17:59:54.000Z</time>
      </trkpt>
      <trkpt lat="45.42563" lon="4.42016">
        <ele>627.46026611328</ele>
        <time>2015-12-20T17:59:56.000Z</time>
      </trkpt>
      <trkpt lat="45.42569" lon="4.42009">
        <ele>628.06256103516</ele>
        <time>2015-12-20T17:59:59.000Z</time>
      </trkpt>
      <trkpt lat="45.42574" lon="4.42004">
        <ele>628.50164794922</ele>
        <time>2015-12-20T18:00:01.000Z</time>
      </trkpt>
      <trkpt lat="45.42582" lon="4.41999">
        <ele>626.52795410156</ele>
        <time>2015-12-20T18:00:04.000Z</time>
      </trkpt>
      <trkpt lat="45.42588" lon="4.41996">
        <ele>621.34204101562</ele>
        <time>2015-12-20T18:00:06.000Z</time>
      </trkpt>
      <trkpt lat="45.42592" lon="4.41992">
        <ele>620.31280517578</ele>
        <time>2015-12-20T18:00:08.000Z</time>
      </trkpt>
      <trkpt lat="45.426" lon="4.41986">
        <ele>619.58355712891</ele>
        <time>2015-12-20T18:00:11.000Z</time>
      </trkpt>
      <trkpt lat="45.42604" lon="4.41982">
        <ele>620.26354980469</ele>
        <time>2015-12-20T18:00:13.000Z</time>
      </trkpt>
      <trkpt lat="45.4261" lon="4.41974">
        <ele>619.24548339844</ele>
        <time>2015-12-20T18:00:16.000Z</time>
      </trkpt>
      <trkpt lat="45.42615" lon="4.41965">
        <ele>617.62969970703</ele>
        <time>2015-12-20T18:00:19.000Z</time>
      </trkpt>
      <trkpt lat="45.42621" lon="4.41957">
        <ele>617.30828857422</ele>
        <time>2015-12-20T18:00:22.000Z</time>
      </trkpt>
      <trkpt lat="45.42627" lon="4.41949">
        <ele>616.73101806641</ele>
        <time>2015-12-20T18:00:25.000Z</time>
      </trkpt>
      <trkpt lat="45.42634" lon="4.41941">
        <ele>617.97479248047</ele>
        <time>2015-12-20T18:00:28.000Z</time>
      </trkpt>
      <trkpt lat="45.42638" lon="4.41937">
        <ele>616.89093017578</ele>
        <time>2015-12-20T18:00:30.000Z</time>
      </trkpt>
      <trkpt lat="45.42646" lon="4.41929">
        <ele>615.59387207031</ele>
        <time>2015-12-20T18:00:33.000Z</time>
      </trkpt>
      <trkpt lat="45.42651" lon="4.41924">
        <ele>614.69451904297</ele>
        <time>2015-12-20T18:00:35.000Z</time>
      </trkpt>
      <trkpt lat="45.42656" lon="4.41919">
        <ele>614.06353759766</ele>
        <time>2015-12-20T18:00:37.000Z</time>
      </trkpt>
      <trkpt lat="45.42664" lon="4.41911">
        <ele>615.27819824219</ele>
        <time>2015-12-20T18:00:40.000Z</time>
      </trkpt>
      <trkpt lat="45.42668" lon="4.41907">
        <ele>615.53912353516</ele>
        <time>2015-12-20T18:00:42.000Z</time>
      </trkpt>
      <trkpt lat="45.42676" lon="4.41899">
        <ele>615.30725097656</ele>
        <time>2015-12-20T18:00:45.000Z</time>
      </trkpt>
      <trkpt lat="45.42682" lon="4.41891">
        <ele>614.59869384766</ele>
        <time>2015-12-20T18:00:48.000Z</time>
      </trkpt>
      <trkpt lat="45.42689" lon="4.41883">
        <ele>615.83917236328</ele>
        <time>2015-12-20T18:00:51.000Z</time>
      </trkpt>
      <trkpt lat="45.42693" lon="4.41877">
        <ele>615.73114013672</ele>
        <time>2015-12-20T18:00:53.000Z</time>
      </trkpt>
      <trkpt lat="45.42699" lon="4.41869">
        <ele>616.97540283203</ele>
        <time>2015-12-20T18:00:56.000Z</time>
      </trkpt>
      <trkpt lat="45.42702" lon="4.41863">
        <ele>617.47039794922</ele>
        <time>2015-12-20T18:00:58.000Z</time>
      </trkpt>
      <trkpt lat="45.42706" lon="4.41856">
        <ele>617.54376220703</ele>
        <time>2015-12-20T18:01:00.000Z</time>
      </trkpt>
      <trkpt lat="45.42712" lon="4.41848">
        <ele>614.99401855469</ele>
        <time>2015-12-20T18:01:03.000Z</time>
      </trkpt>
      <trkpt lat="45.42716" lon="4.41843">
        <ele>614.53344726562</ele>
        <time>2015-12-20T18:01:05.000Z</time>
      </trkpt>
      <trkpt lat="45.4272" lon="4.41836">
        <ele>613.39526367188</ele>
        <time>2015-12-20T18:01:07.000Z</time>
      </trkpt>
      <trkpt lat="45.42725" lon="4.41828">
        <ele>611.134765625</ele>
        <time>2015-12-20T18:01:10.000Z</time>
      </trkpt>
      <trkpt lat="45.42731" lon="4.41819">
        <ele>611.46551513672</ele>
        <time>2015-12-20T18:01:13.000Z</time>
      </trkpt>
      <trkpt lat="45.42736" lon="4.41812">
        <ele>610.38226318359</ele>
        <time>2015-12-20T18:01:15.000Z</time>
      </trkpt>
      <trkpt lat="45.4274" lon="4.41805">
        <ele>610.36547851562</ele>
        <time>2015-12-20T18:01:17.000Z</time>
      </trkpt>
      <trkpt lat="45.42745" lon="4.41799">
        <ele>609.77990722656</ele>
        <time>2015-12-20T18:01:19.000Z</time>
      </trkpt>
      <trkpt lat="45.4275" lon="4.41789">
        <ele>609.52014160156</ele>
        <time>2015-12-20T18:01:22.000Z</time>
      </trkpt>
      <trkpt lat="45.42756" lon="4.41779">
        <ele>608.62249755859</ele>
        <time>2015-12-20T18:01:25.000Z</time>
      </trkpt>
      <trkpt lat="45.42761" lon="4.41769">
        <ele>608.51062011719</ele>
        <time>2015-12-20T18:01:28.000Z</time>
      </trkpt>
      <trkpt lat="45.42765" lon="4.41763">
        <ele>607.80023193359</ele>
        <time>2015-12-20T18:01:30.000Z</time>
      </trkpt>
      <trkpt lat="45.42772" lon="4.41752">
        <ele>607.908203125</ele>
        <time>2015-12-20T18:01:33.000Z</time>
      </trkpt>
      <trkpt lat="45.42776" lon="4.41742">
        <ele>607.60180664062</ele>
        <time>2015-12-20T18:01:36.000Z</time>
      </trkpt>
      <trkpt lat="45.42781" lon="4.41732">
        <ele>607.15118408203</ele>
        <time>2015-12-20T18:01:39.000Z</time>
      </trkpt>
      <trkpt lat="45.42785" lon="4.41722">
        <ele>607.40362548828</ele>
        <time>2015-12-20T18:01:42.000Z</time>
      </trkpt>
      <trkpt lat="45.42787" lon="4.41713">
        <ele>607.89007568359</ele>
        <time>2015-12-20T18:01:45.000Z</time>
      </trkpt>
      <trkpt lat="45.42791" lon="4.41703">
        <ele>607.30249023438</ele>
        <time>2015-12-20T18:01:48.000Z</time>
      </trkpt>
      <trkpt lat="45.42794" lon="4.41694">
        <ele>606.25274658203</ele>
        <time>2015-12-20T18:01:51.000Z</time>
      </trkpt>
      <trkpt lat="45.42797" lon="4.41689">
        <ele>606.07061767578</ele>
        <time>2015-12-20T18:01:53.000Z</time>
      </trkpt>
      <trkpt lat="45.42803" lon="4.4168">
        <ele>605.17126464844</ele>
        <time>2015-12-20T18:01:56.000Z</time>
      </trkpt>
      <trkpt lat="45.42809" lon="4.41672">
        <ele>602.66448974609</ele>
        <time>2015-12-20T18:01:59.000Z</time>
      </trkpt>
      <trkpt lat="45.42817" lon="4.41666">
        <ele>604.00231933594</ele>
        <time>2015-12-20T18:02:01.000Z</time>
      </trkpt>
      <trkpt lat="45.42826" lon="4.41663">
        <ele>605.38330078125</ele>
        <time>2015-12-20T18:02:04.000Z</time>
      </trkpt>
      <trkpt lat="45.42832" lon="4.41663">
        <ele>603.96875</ele>
        <time>2015-12-20T18:02:06.000Z</time>
      </trkpt>
      <trkpt lat="45.42838" lon="4.41663">
        <ele>602.54705810547</ele>
        <time>2015-12-20T18:02:08.000Z</time>
      </trkpt>
      <trkpt lat="45.42843" lon="4.41663">
        <ele>601.56243896484</ele>
        <time>2015-12-20T18:02:10.000Z</time>
      </trkpt>
      <trkpt lat="45.42853" lon="4.41665">
        <ele>599.51232910156</ele>
        <time>2015-12-20T18:02:13.000Z</time>
      </trkpt>
      <trkpt lat="45.4286" lon="4.41667">
        <ele>598.54498291016</ele>
        <time>2015-12-20T18:02:16.000Z</time>
      </trkpt>
      <trkpt lat="45.42866" lon="4.41671">
        <ele>596.96691894531</ele>
        <time>2015-12-20T18:02:18.000Z</time>
      </trkpt>
      <trkpt lat="45.42874" lon="4.41673">
        <ele>598.36541748047</ele>
        <time>2015-12-20T18:02:21.000Z</time>
      </trkpt>
      <trkpt lat="45.42881" lon="4.41674">
        <ele>600.91632080078</ele>
        <time>2015-12-20T18:02:24.000Z</time>
      </trkpt>
      <trkpt lat="45.42888" lon="4.41677">
        <ele>601.47564697266</ele>
        <time>2015-12-20T18:02:27.000Z</time>
      </trkpt>
      <trkpt lat="45.42895" lon="4.41681">
        <ele>600.56829833984</ele>
        <time>2015-12-20T18:02:30.000Z</time>
      </trkpt>
      <trkpt lat="45.42902" lon="4.41684">
        <ele>600.45220947266</ele>
        <time>2015-12-20T18:02:33.000Z</time>
      </trkpt>
      <trkpt lat="45.42907" lon="4.41687">
        <ele>600.984375</ele>
        <time>2015-12-20T18:02:35.000Z</time>
      </trkpt>
      <trkpt lat="45.42915" lon="4.41691">
        <ele>601.38311767578</ele>
        <time>2015-12-20T18:02:38.000Z</time>
      </trkpt>
      <trkpt lat="45.42923" lon="4.41697">
        <ele>600.54833984375</ele>
        <time>2015-12-20T18:02:41.000Z</time>
      </trkpt>
      <trkpt lat="45.42933" lon="4.41701">
        <ele>598.94689941406</ele>
        <time>2015-12-20T18:02:44.000Z</time>
      </trkpt>
      <trkpt lat="45.42938" lon="4.41702">
        <ele>597.90301513672</ele>
        <time>2015-12-20T18:02:46.000Z</time>
      </trkpt>
      <trkpt lat="45.42946" lon="4.417">
        <ele>596.61395263672</ele>
        <time>2015-12-20T18:02:49.000Z</time>
      </trkpt>
      <trkpt lat="45.42953" lon="4.41696">
        <ele>595.99920654297</ele>
        <time>2015-12-20T18:02:52.000Z</time>
      </trkpt>
      <trkpt lat="45.42961" lon="4.41693">
        <ele>595.51550292969</ele>
        <time>2015-12-20T18:02:55.000Z</time>
      </trkpt>
      <trkpt lat="45.4297" lon="4.41685">
        <ele>595.53363037109</ele>
        <time>2015-12-20T18:02:58.000Z</time>
      </trkpt>
      <trkpt lat="45.42978" lon="4.41678">
        <ele>593.59576416016</ele>
        <time>2015-12-20T18:03:01.000Z</time>
      </trkpt>
      <trkpt lat="45.42984" lon="4.41675">
        <ele>592.96380615234</ele>
        <time>2015-12-20T18:03:03.000Z</time>
      </trkpt>
      <trkpt lat="45.42989" lon="4.41672">
        <ele>592.51068115234</ele>
        <time>2015-12-20T18:03:05.000Z</time>
      </trkpt>
      <trkpt lat="45.42997" lon="4.41667">
        <ele>591.09954833984</ele>
        <time>2015-12-20T18:03:08.000Z</time>
      </trkpt>
      <trkpt lat="45.43005" lon="4.41666">
        <ele>589.58489990234</ele>
        <time>2015-12-20T18:03:11.000Z</time>
      </trkpt>
      <trkpt lat="45.43012" lon="4.41666">
        <ele>589.07507324219</ele>
        <time>2015-12-20T18:03:13.000Z</time>
      </trkpt>
      <trkpt lat="45.4302" lon="4.41666">
        <ele>589.12005615234</ele>
        <time>2015-12-20T18:03:16.000Z</time>
      </trkpt>
      <trkpt lat="45.43026" lon="4.41666">
        <ele>589.50817871094</ele>
        <time>2015-12-20T18:03:18.000Z</time>
      </trkpt>
      <trkpt lat="45.43034" lon="4.41667">
        <ele>589.05017089844</ele>
        <time>2015-12-20T18:03:21.000Z</time>
      </trkpt>
      <trkpt lat="45.43042" lon="4.41668">
        <ele>587.91247558594</ele>
        <time>2015-12-20T18:03:24.000Z</time>
      </trkpt>
      <trkpt lat="45.43049" lon="4.4167">
        <ele>586.88623046875</ele>
        <time>2015-12-20T18:03:26.000Z</time>
      </trkpt>
      <trkpt lat="45.43056" lon="4.41673">
        <ele>587.33526611328</ele>
        <time>2015-12-20T18:03:29.000Z</time>
      </trkpt>
      <trkpt lat="45.43064" lon="4.41673">
        <ele>589.7138671875</ele>
        <time>2015-12-20T18:03:32.000Z</time>
      </trkpt>
      <trkpt lat="45.43072" lon="4.41673">
        <ele>592.46490478516</ele>
        <time>2015-12-20T18:03:35.000Z</time>
      </trkpt>
      <trkpt lat="45.43081" lon="4.41675">
        <ele>591.51751708984</ele>
        <time>2015-12-20T18:03:38.000Z</time>
      </trkpt>
      <trkpt lat="45.43086" lon="4.41677">
        <ele>591.44909667969</ele>
        <time>2015-12-20T18:03:40.000Z</time>
      </trkpt>
      <trkpt lat="45.43094" lon="4.41679">
        <ele>591.46740722656</ele>
        <time>2015-12-20T18:03:43.000Z</time>
      </trkpt>
      <trkpt lat="45.43102" lon="4.4168">
        <ele>593.40838623047</ele>
        <time>2015-12-20T18:03:46.000Z</time>
      </trkpt>
      <trkpt lat="45.4311" lon="4.41682">
        <ele>594.017578125</ele>
        <time>2015-12-20T18:03:49.000Z</time>
      </trkpt>
      <trkpt lat="45.43118" lon="4.41685">
        <ele>593.45581054688</ele>
        <time>2015-12-20T18:03:52.000Z</time>
      </trkpt>
      <trkpt lat="45.43123" lon="4.41687">
        <ele>593.34088134766</ele>
        <time>2015-12-20T18:03:54.000Z</time>
      </trkpt>
      <trkpt lat="45.43128" lon="4.41692">
        <ele>592.98858642578</ele>
        <time>2015-12-20T18:03:56.000Z</time>
      </trkpt>
      <trkpt lat="45.43133" lon="4.41696">
        <ele>593.45941162109</ele>
        <time>2015-12-20T18:03:58.000Z</time>
      </trkpt>
      <trkpt lat="45.43141" lon="4.41707">
        <ele>589.4931640625</ele>
        <time>2015-12-20T18:04:01.000Z</time>
      </trkpt>
      <trkpt lat="45.43148" lon="4.41714">
        <ele>589.44970703125</ele>
        <time>2015-12-20T18:04:04.000Z</time>
      </trkpt>
      <trkpt lat="45.43152" lon="4.41717">
        <ele>590.35711669922</ele>
        <time>2015-12-20T18:04:06.000Z</time>
      </trkpt>
      <trkpt lat="45.43157" lon="4.4172">
        <ele>589.57269287109</ele>
        <time>2015-12-20T18:04:08.000Z</time>
      </trkpt>
      <trkpt lat="45.43165" lon="4.41725">
        <ele>589.35485839844</ele>
        <time>2015-12-20T18:04:11.000Z</time>
      </trkpt>
      <trkpt lat="45.43173" lon="4.4173">
        <ele>588.91259765625</ele>
        <time>2015-12-20T18:04:14.000Z</time>
      </trkpt>
      <trkpt lat="45.4318" lon="4.41737">
        <ele>588.43975830078</ele>
        <time>2015-12-20T18:04:17.000Z</time>
      </trkpt>
      <trkpt lat="45.43185" lon="4.41739">
        <ele>588.45739746094</ele>
        <time>2015-12-20T18:04:19.000Z</time>
      </trkpt>
      <trkpt lat="45.43193" lon="4.41743">
        <ele>589.09167480469</ele>
        <time>2015-12-20T18:04:22.000Z</time>
      </trkpt>
      <trkpt lat="45.43201" lon="4.41746">
        <ele>589.46734619141</ele>
        <time>2015-12-20T18:04:25.000Z</time>
      </trkpt>
      <trkpt lat="45.43207" lon="4.41749">
        <ele>589.45520019531</ele>
        <time>2015-12-20T18:04:27.000Z</time>
      </trkpt>
      <trkpt lat="45.43215" lon="4.41752">
        <ele>590.00939941406</ele>
        <time>2015-12-20T18:04:30.000Z</time>
      </trkpt>
      <trkpt lat="45.43221" lon="4.41753">
        <ele>590.48229980469</ele>
        <time>2015-12-20T18:04:32.000Z</time>
      </trkpt>
      <trkpt lat="45.43226" lon="4.41755">
        <ele>588.62322998047</ele>
        <time>2015-12-20T18:04:34.000Z</time>
      </trkpt>
      <trkpt lat="45.43235" lon="4.41759">
        <ele>588.44763183594</ele>
        <time>2015-12-20T18:04:37.000Z</time>
      </trkpt>
      <trkpt lat="45.43243" lon="4.41763">
        <ele>587.91937255859</ele>
        <time>2015-12-20T18:04:40.000Z</time>
      </trkpt>
      <trkpt lat="45.43249" lon="4.41767">
        <ele>586.83636474609</ele>
        <time>2015-12-20T18:04:42.000Z</time>
      </trkpt>
      <trkpt lat="45.43258" lon="4.41771">
        <ele>586.08538818359</ele>
        <time>2015-12-20T18:04:45.000Z</time>
      </trkpt>
      <trkpt lat="45.43262" lon="4.41774">
        <ele>587.34533691406</ele>
        <time>2015-12-20T18:04:47.000Z</time>
      </trkpt>
      <trkpt lat="45.43269" lon="4.41779">
        <ele>587.46258544922</ele>
        <time>2015-12-20T18:04:50.000Z</time>
      </trkpt>
      <trkpt lat="45.43274" lon="4.41782">
        <ele>587.45416259766</ele>
        <time>2015-12-20T18:04:52.000Z</time>
      </trkpt>
      <trkpt lat="45.4328" lon="4.41789">
        <ele>587.56176757812</ele>
        <time>2015-12-20T18:04:55.000Z</time>
      </trkpt>
      <trkpt lat="45.43287" lon="4.41797">
        <ele>587.82659912109</ele>
        <time>2015-12-20T18:04:58.000Z</time>
      </trkpt>
      <trkpt lat="45.43293" lon="4.41803">
        <ele>588.45434570312</ele>
        <time>2015-12-20T18:05:01.000Z</time>
      </trkpt>
      <trkpt lat="45.43299" lon="4.41808">
        <ele>589.46124267578</ele>
        <time>2015-12-20T18:05:04.000Z</time>
      </trkpt>
      <trkpt lat="45.43303" lon="4.41812">
        <ele>589.46759033203</ele>
        <time>2015-12-20T18:05:06.000Z</time>
      </trkpt>
      <trkpt lat="45.4331" lon="4.4182">
        <ele>589.85406494141</ele>
        <time>2015-12-20T18:05:09.000Z</time>
      </trkpt>
      <trkpt lat="45.43314" lon="4.41825">
        <ele>589.98577880859</ele>
        <time>2015-12-20T18:05:11.000Z</time>
      </trkpt>
      <trkpt lat="45.4332" lon="4.41831">
        <ele>589.96728515625</ele>
        <time>2015-12-20T18:05:14.000Z</time>
      </trkpt>
      <trkpt lat="45.43326" lon="4.41837">
        <ele>589.44915771484</ele>
        <time>2015-12-20T18:05:17.000Z</time>
      </trkpt>
      <trkpt lat="45.4333" lon="4.41842">
        <ele>589.45855712891</ele>
        <time>2015-12-20T18:05:19.000Z</time>
      </trkpt>
      <trkpt lat="45.43336" lon="4.41851">
        <ele>591.25073242188</ele>
        <time>2015-12-20T18:05:22.000Z</time>
      </trkpt>
      <trkpt lat="45.43341" lon="4.41859">
        <ele>591.486328125</ele>
        <time>2015-12-20T18:05:24.000Z</time>
      </trkpt>
      <trkpt lat="45.43345" lon="4.41865">
        <ele>591.45642089844</ele>
        <time>2015-12-20T18:05:26.000Z</time>
      </trkpt>
      <trkpt lat="45.43349" lon="4.41871">
        <ele>590.60028076172</ele>
        <time>2015-12-20T18:05:28.000Z</time>
      </trkpt>
      <trkpt lat="45.43353" lon="4.4188">
        <ele>590.46551513672</ele>
        <time>2015-12-20T18:05:31.000Z</time>
      </trkpt>
      <trkpt lat="45.43356" lon="4.41885">
        <ele>590.94274902344</ele>
        <time>2015-12-20T18:05:33.000Z</time>
      </trkpt>
      <trkpt lat="45.43358" lon="4.41888">
        <ele>591.43780517578</ele>
        <time>2015-12-20T18:05:35.000Z</time>
      </trkpt>
      <trkpt lat="45.43363" lon="4.41899">
        <ele>588.63891601562</ele>
        <time>2015-12-20T18:05:38.000Z</time>
      </trkpt>
      <trkpt lat="45.43367" lon="4.41909">
        <ele>587.95989990234</ele>
        <time>2015-12-20T18:05:41.000Z</time>
      </trkpt>
      <trkpt lat="45.4337" lon="4.41919">
        <ele>587.10827636719</ele>
        <time>2015-12-20T18:05:44.000Z</time>
      </trkpt>
      <trkpt lat="45.43372" lon="4.41925">
        <ele>585.42791748047</ele>
        <time>2015-12-20T18:05:46.000Z</time>
      </trkpt>
      <trkpt lat="45.43376" lon="4.41935">
        <ele>586.20928955078</ele>
        <time>2015-12-20T18:05:49.000Z</time>
      </trkpt>
      <trkpt lat="45.43378" lon="4.41946">
        <ele>587.47155761719</ele>
        <time>2015-12-20T18:05:52.000Z</time>
      </trkpt>
      <trkpt lat="45.43381" lon="4.41955">
        <ele>588.71307373047</ele>
        <time>2015-12-20T18:05:55.000Z</time>
      </trkpt>
      <trkpt lat="45.43384" lon="4.41966">
        <ele>587.75823974609</ele>
        <time>2015-12-20T18:05:58.000Z</time>
      </trkpt>
      <trkpt lat="45.43386" lon="4.41978">
        <ele>587.09332275391</ele>
        <time>2015-12-20T18:06:01.000Z</time>
      </trkpt>
      <trkpt lat="45.43388" lon="4.41985">
        <ele>586.60803222656</ele>
        <time>2015-12-20T18:06:03.000Z</time>
      </trkpt>
      <trkpt lat="45.43389" lon="4.41997">
        <ele>585.31597900391</ele>
        <time>2015-12-20T18:06:06.000Z</time>
      </trkpt>
      <trkpt lat="45.43389" lon="4.42008">
        <ele>584.22796630859</ele>
        <time>2015-12-20T18:06:09.000Z</time>
      </trkpt>
      <trkpt lat="45.4339" lon="4.42018">
        <ele>583.26721191406</ele>
        <time>2015-12-20T18:06:12.000Z</time>
      </trkpt>
      <trkpt lat="45.43391" lon="4.42029">
        <ele>583.25170898438</ele>
        <time>2015-12-20T18:06:15.000Z</time>
      </trkpt>
      <trkpt lat="45.43391" lon="4.42036">
        <ele>583.1796875</ele>
        <time>2015-12-20T18:06:17.000Z</time>
      </trkpt>
      <trkpt lat="45.43393" lon="4.42044">
        <ele>582.80297851562</ele>
        <time>2015-12-20T18:06:20.000Z</time>
      </trkpt>
      <trkpt lat="45.43396" lon="4.42047">
        <ele>582.55108642578</ele>
        <time>2015-12-20T18:06:22.000Z</time>
      </trkpt>
      <trkpt lat="45.43402" lon="4.42053">
        <ele>582.45568847656</ele>
        <time>2015-12-20T18:06:25.000Z</time>
      </trkpt>
      <trkpt lat="45.43407" lon="4.42059">
        <ele>582.45715332031</ele>
        <time>2015-12-20T18:06:28.000Z</time>
      </trkpt>
      <trkpt lat="45.43414" lon="4.42061">
        <ele>581.47192382812</ele>
        <time>2015-12-20T18:06:31.000Z</time>
      </trkpt>
      <trkpt lat="45.43421" lon="4.42063">
        <ele>581.46362304688</ele>
        <time>2015-12-20T18:06:34.000Z</time>
      </trkpt>
      <trkpt lat="45.43425" lon="4.42064">
        <ele>581.46319580078</ele>
        <time>2015-12-20T18:06:36.000Z</time>
      </trkpt>
      <trkpt lat="45.43431" lon="4.42067">
        <ele>581.45556640625</ele>
        <time>2015-12-20T18:06:38.000Z</time>
      </trkpt>
      <trkpt lat="45.43435" lon="4.42066">
        <ele>582.38745117188</ele>
        <time>2015-12-20T18:06:40.000Z</time>
      </trkpt>
      <trkpt lat="45.43441" lon="4.42066">
        <ele>582.63165283203</ele>
        <time>2015-12-20T18:06:43.000Z</time>
      </trkpt>
      <trkpt lat="45.43449" lon="4.42067">
        <ele>583.02807617188</ele>
        <time>2015-12-20T18:06:46.000Z</time>
      </trkpt>
      <trkpt lat="45.43456" lon="4.42067">
        <ele>583.15960693359</ele>
        <time>2015-12-20T18:06:49.000Z</time>
      </trkpt>
      <trkpt lat="45.43459" lon="4.42058">
        <ele>583.46179199219</ele>
        <time>2015-12-20T18:06:52.000Z</time>
      </trkpt>
      <trkpt lat="45.4346" lon="4.42048">
        <ele>583.40783691406</ele>
        <time>2015-12-20T18:06:55.000Z</time>
      </trkpt>
      <trkpt lat="45.4346" lon="4.42042">
        <ele>583.35809326172</ele>
        <time>2015-12-20T18:06:57.000Z</time>
      </trkpt>
      <trkpt lat="45.43457" lon="4.42036">
        <ele>583.52789306641</ele>
        <time>2015-12-20T18:06:59.000Z</time>
      </trkpt>
      <trkpt lat="45.43455" lon="4.42023">
        <ele>584.62487792969</ele>
        <time>2015-12-20T18:07:02.000Z</time>
      </trkpt>
      <trkpt lat="45.4345" lon="4.42012">
        <ele>583.16558837891</ele>
        <time>2015-12-20T18:07:05.000Z</time>
      </trkpt>
      <trkpt lat="45.43445" lon="4.42006">
        <ele>583.50048828125</ele>
        <time>2015-12-20T18:07:08.000Z</time>
      </trkpt>
      <trkpt lat="45.43443" lon="4.42001">
        <ele>584.8310546875</ele>
        <time>2015-12-20T18:07:10.000Z</time>
      </trkpt>
      <trkpt lat="45.4344" lon="4.41995">
        <ele>584.35821533203</ele>
        <time>2015-12-20T18:07:12.000Z</time>
      </trkpt>
      <trkpt lat="45.43438" lon="4.41983">
        <ele>583.53265380859</ele>
        <time>2015-12-20T18:07:15.000Z</time>
      </trkpt>
      <trkpt lat="45.43435" lon="4.41974">
        <ele>583.09558105469</ele>
        <time>2015-12-20T18:07:18.000Z</time>
      </trkpt>
      <trkpt lat="45.43433" lon="4.41968">
        <ele>583.36688232422</ele>
        <time>2015-12-20T18:07:20.000Z</time>
      </trkpt>
      <trkpt lat="45.43433" lon="4.41954">
        <ele>581.23870849609</ele>
        <time>2015-12-20T18:07:23.000Z</time>
      </trkpt>
      <trkpt lat="45.43431" lon="4.41947">
        <ele>581.41387939453</ele>
        <time>2015-12-20T18:07:25.000Z</time>
      </trkpt>
      <trkpt lat="45.4343" lon="4.41939">
        <ele>580.81048583984</ele>
        <time>2015-12-20T18:07:27.000Z</time>
      </trkpt>
      <trkpt lat="45.43427" lon="4.41929">
        <ele>578.61511230469</ele>
        <time>2015-12-20T18:07:30.000Z</time>
      </trkpt>
      <trkpt lat="45.43427" lon="4.4192">
        <ele>578.15441894531</ele>
        <time>2015-12-20T18:07:32.000Z</time>
      </trkpt>
      <trkpt lat="45.43427" lon="4.41912">
        <ele>577.74145507812</ele>
        <time>2015-12-20T18:07:34.000Z</time>
      </trkpt>
      <trkpt lat="45.43425" lon="4.41904">
        <ele>576.06744384766</ele>
        <time>2015-12-20T18:07:37.000Z</time>
      </trkpt>
      <trkpt lat="45.43424" lon="4.41897">
        <ele>574.90533447266</ele>
        <time>2015-12-20T18:07:39.000Z</time>
      </trkpt>
      <trkpt lat="45.43423" lon="4.41883">
        <ele>576.94061279297</ele>
        <time>2015-12-20T18:07:42.000Z</time>
      </trkpt>
      <trkpt lat="45.43422" lon="4.41872">
        <ele>577.99157714844</ele>
        <time>2015-12-20T18:07:45.000Z</time>
      </trkpt>
      <trkpt lat="45.43421" lon="4.4186">
        <ele>578.66900634766</ele>
        <time>2015-12-20T18:07:48.000Z</time>
      </trkpt>
      <trkpt lat="45.43423" lon="4.41844">
        <ele>579.09924316406</ele>
        <time>2015-12-20T18:07:51.000Z</time>
      </trkpt>
      <trkpt lat="45.43427" lon="4.41833">
        <ele>578.86987304688</ele>
        <time>2015-12-20T18:07:54.000Z</time>
      </trkpt>
      <trkpt lat="45.43429" lon="4.4182">
        <ele>579.73199462891</ele>
        <time>2015-12-20T18:07:57.000Z</time>
      </trkpt>
      <trkpt lat="45.4343" lon="4.41813">
        <ele>579.70428466797</ele>
        <time>2015-12-20T18:07:59.000Z</time>
      </trkpt>
      <trkpt lat="45.43431" lon="4.41798">
        <ele>578.68194580078</ele>
        <time>2015-12-20T18:08:02.000Z</time>
      </trkpt>
      <trkpt lat="45.43434" lon="4.41791">
        <ele>579.09582519531</ele>
        <time>2015-12-20T18:08:04.000Z</time>
      </trkpt>
      <trkpt lat="45.43434" lon="4.41784">
        <ele>579.08190917969</ele>
        <time>2015-12-20T18:08:07.000Z</time>
      </trkpt>
      <trkpt lat="45.43433" lon="4.41781">
        <ele>578.34112548828</ele>
        <time>2015-12-20T18:08:09.000Z</time>
      </trkpt>
      <trkpt lat="45.4343" lon="4.4177">
        <ele>577.54504394531</ele>
        <time>2015-12-20T18:08:12.000Z</time>
      </trkpt>
      <trkpt lat="45.43429" lon="4.4176">
        <ele>577.42596435547</ele>
        <time>2015-12-20T18:08:14.000Z</time>
      </trkpt>
      <trkpt lat="45.43429" lon="4.41748">
        <ele>577.16607666016</ele>
        <time>2015-12-20T18:08:17.000Z</time>
      </trkpt>
      <trkpt lat="45.43428" lon="4.41742">
        <ele>577.31262207031</ele>
        <time>2015-12-20T18:08:19.000Z</time>
      </trkpt>
      <trkpt lat="45.43428" lon="4.41729">
        <ele>577.89093017578</ele>
        <time>2015-12-20T18:08:22.000Z</time>
      </trkpt>
      <trkpt lat="45.43426" lon="4.41721">
        <ele>579.44812011719</ele>
        <time>2015-12-20T18:08:24.000Z</time>
      </trkpt>
      <trkpt lat="45.43424" lon="4.41712">
        <ele>580.47418212891</ele>
        <time>2015-12-20T18:08:26.000Z</time>
      </trkpt>
      <trkpt lat="45.43422" lon="4.41706">
        <ele>581.33758544922</ele>
        <time>2015-12-20T18:08:28.000Z</time>
      </trkpt>
      <trkpt lat="45.4342" lon="4.41693">
        <ele>580.38836669922</ele>
        <time>2015-12-20T18:08:31.000Z</time>
      </trkpt>
      <trkpt lat="45.43418" lon="4.41681">
        <ele>580.23284912109</ele>
        <time>2015-12-20T18:08:34.000Z</time>
      </trkpt>
      <trkpt lat="45.43417" lon="4.41674">
        <ele>580.10223388672</ele>
        <time>2015-12-20T18:08:36.000Z</time>
      </trkpt>
      <trkpt lat="45.43413" lon="4.41665">
        <ele>579.20642089844</ele>
        <time>2015-12-20T18:08:39.000Z</time>
      </trkpt>
      <trkpt lat="45.43408" lon="4.41657">
        <ele>578.5615234375</ele>
        <time>2015-12-20T18:08:42.000Z</time>
      </trkpt>
      <trkpt lat="45.43402" lon="4.41647">
        <ele>578.73822021484</ele>
        <time>2015-12-20T18:08:45.000Z</time>
      </trkpt>
      <trkpt lat="45.43394" lon="4.41637">
        <ele>577.00567626953</ele>
        <time>2015-12-20T18:08:48.000Z</time>
      </trkpt>
      <trkpt lat="45.43391" lon="4.41632">
        <ele>576.05810546875</ele>
        <time>2015-12-20T18:08:50.000Z</time>
      </trkpt>
      <trkpt lat="45.43387" lon="4.41627">
        <ele>576.41271972656</ele>
        <time>2015-12-20T18:08:52.000Z</time>
      </trkpt>
      <trkpt lat="45.43383" lon="4.41623">
        <ele>576.54638671875</ele>
        <time>2015-12-20T18:08:54.000Z</time>
      </trkpt>
      <trkpt lat="45.43378" lon="4.41617">
        <ele>576.54254150391</ele>
        <time>2015-12-20T18:08:57.000Z</time>
      </trkpt>
      <trkpt lat="45.43371" lon="4.41611">
        <ele>575.00036621094</ele>
        <time>2015-12-20T18:09:00.000Z</time>
      </trkpt>
      <trkpt lat="45.43366" lon="4.41608">
        <ele>573.9970703125</ele>
        <time>2015-12-20T18:09:02.000Z</time>
      </trkpt>
      <trkpt lat="45.43359" lon="4.41604">
        <ele>573.52508544922</ele>
        <time>2015-12-20T18:09:05.000Z</time>
      </trkpt>
      <trkpt lat="45.43354" lon="4.41601">
        <ele>573.16223144531</ele>
        <time>2015-12-20T18:09:07.000Z</time>
      </trkpt>
      <trkpt lat="45.43349" lon="4.41597">
        <ele>574.05981445312</ele>
        <time>2015-12-20T18:09:09.000Z</time>
      </trkpt>
      <trkpt lat="45.43346" lon="4.41593">
        <ele>575.05670166016</ele>
        <time>2015-12-20T18:09:11.000Z</time>
      </trkpt>
      <trkpt lat="45.43341" lon="4.41588">
        <ele>576.40966796875</ele>
        <time>2015-12-20T18:09:14.000Z</time>
      </trkpt>
      <trkpt lat="45.43337" lon="4.41583">
        <ele>577.04205322266</ele>
        <time>2015-12-20T18:09:16.000Z</time>
      </trkpt>
      <trkpt lat="45.43333" lon="4.41576">
        <ele>577.56042480469</ele>
        <time>2015-12-20T18:09:19.000Z</time>
      </trkpt>
      <trkpt lat="45.43328" lon="4.4157">
        <ele>577.54638671875</ele>
        <time>2015-12-20T18:09:21.000Z</time>
      </trkpt>
      <trkpt lat="45.43324" lon="4.41564">
        <ele>577.54962158203</ele>
        <time>2015-12-20T18:09:23.000Z</time>
      </trkpt>
      <trkpt lat="45.43319" lon="4.4156">
        <ele>577.54284667969</ele>
        <time>2015-12-20T18:09:25.000Z</time>
      </trkpt>
      <trkpt lat="45.43314" lon="4.41553">
        <ele>577.65997314453</ele>
        <time>2015-12-20T18:09:28.000Z</time>
      </trkpt>
      <trkpt lat="45.4331" lon="4.41549">
        <ele>578.42321777344</ele>
        <time>2015-12-20T18:09:30.000Z</time>
      </trkpt>
      <trkpt lat="45.43306" lon="4.41546">
        <ele>578.5537109375</ele>
        <time>2015-12-20T18:09:32.000Z</time>
      </trkpt>
      <trkpt lat="45.43301" lon="4.4154">
        <ele>579.52911376953</ele>
        <time>2015-12-20T18:09:35.000Z</time>
      </trkpt>
      <trkpt lat="45.43296" lon="4.41535">
        <ele>579.55780029297</ele>
        <time>2015-12-20T18:09:37.000Z</time>
      </trkpt>
      <trkpt lat="45.43292" lon="4.4153">
        <ele>580.06707763672</ele>
        <time>2015-12-20T18:09:39.000Z</time>
      </trkpt>
      <trkpt lat="45.43285" lon="4.41525">
        <ele>580.18951416016</ele>
        <time>2015-12-20T18:09:42.000Z</time>
      </trkpt>
      <trkpt lat="45.4328" lon="4.41519">
        <ele>580.16973876953</ele>
        <time>2015-12-20T18:09:45.000Z</time>
      </trkpt>
      <trkpt lat="45.43275" lon="4.41511">
        <ele>580.53344726562</ele>
        <time>2015-12-20T18:09:48.000Z</time>
      </trkpt>
      <trkpt lat="45.4327" lon="4.41503">
        <ele>581.02337646484</ele>
        <time>2015-12-20T18:09:51.000Z</time>
      </trkpt>
      <trkpt lat="45.43266" lon="4.415">
        <ele>581.54827880859</ele>
        <time>2015-12-20T18:09:53.000Z</time>
      </trkpt>
      <trkpt lat="45.4326" lon="4.41492">
        <ele>580.53942871094</ele>
        <time>2015-12-20T18:09:56.000Z</time>
      </trkpt>
      <trkpt lat="45.43253" lon="4.4149">
        <ele>581.53192138672</ele>
        <time>2015-12-20T18:09:59.000Z</time>
      </trkpt>
      <trkpt lat="45.43248" lon="4.41482">
        <ele>581.40051269531</ele>
        <time>2015-12-20T18:10:02.000Z</time>
      </trkpt>
      <trkpt lat="45.43243" lon="4.41475">
        <ele>581.54266357422</ele>
        <time>2015-12-20T18:10:05.000Z</time>
      </trkpt>
      <trkpt lat="45.4324" lon="4.41464">
        <ele>581.16632080078</ele>
        <time>2015-12-20T18:10:08.000Z</time>
      </trkpt>
      <trkpt lat="45.43237" lon="4.41459">
        <ele>581.13067626953</ele>
        <time>2015-12-20T18:10:10.000Z</time>
      </trkpt>
      <trkpt lat="45.43232" lon="4.41452">
        <ele>582.40344238281</ele>
        <time>2015-12-20T18:10:13.000Z</time>
      </trkpt>
      <trkpt lat="45.43228" lon="4.41446">
        <ele>583.51934814453</ele>
        <time>2015-12-20T18:10:16.000Z</time>
      </trkpt>
      <trkpt lat="45.43225" lon="4.41442">
        <ele>583.54931640625</ele>
        <time>2015-12-20T18:10:18.000Z</time>
      </trkpt>
      <trkpt lat="45.43222" lon="4.41435">
        <ele>584.36834716797</ele>
        <time>2015-12-20T18:10:21.000Z</time>
      </trkpt>
      <trkpt lat="45.43219" lon="4.41431">
        <ele>585.39276123047</ele>
        <time>2015-12-20T18:10:23.000Z</time>
      </trkpt>
      <trkpt lat="45.43216" lon="4.41426">
        <ele>584.68804931641</ele>
        <time>2015-12-20T18:10:25.000Z</time>
      </trkpt>
      <trkpt lat="45.43212" lon="4.41416">
        <ele>583.14154052734</ele>
        <time>2015-12-20T18:10:28.000Z</time>
      </trkpt>
      <trkpt lat="45.43207" lon="4.41409">
        <ele>583.17596435547</ele>
        <time>2015-12-20T18:10:31.000Z</time>
      </trkpt>
      <trkpt lat="45.43204" lon="4.41404">
        <ele>583.51281738281</ele>
        <time>2015-12-20T18:10:33.000Z</time>
      </trkpt>
      <trkpt lat="45.432" lon="4.41397">
        <ele>585.85229492188</ele>
        <time>2015-12-20T18:10:36.000Z</time>
      </trkpt>
      <trkpt lat="45.43195" lon="4.41393">
        <ele>587.07354736328</ele>
        <time>2015-12-20T18:10:39.000Z</time>
      </trkpt>
      <trkpt lat="45.4319" lon="4.41386">
        <ele>587.54516601562</ele>
        <time>2015-12-20T18:10:42.000Z</time>
      </trkpt>
      <trkpt lat="45.43186" lon="4.41382">
        <ele>586.67034912109</ele>
        <time>2015-12-20T18:10:44.000Z</time>
      </trkpt>
      <trkpt lat="45.43181" lon="4.41377">
        <ele>586.17388916016</ele>
        <time>2015-12-20T18:10:47.000Z</time>
      </trkpt>
      <trkpt lat="45.43179" lon="4.41372">
        <ele>586.50189208984</ele>
        <time>2015-12-20T18:10:49.000Z</time>
      </trkpt>
      <trkpt lat="45.43174" lon="4.41365">
        <ele>586.53997802734</ele>
        <time>2015-12-20T18:10:52.000Z</time>
      </trkpt>
      <trkpt lat="45.43171" lon="4.41356">
        <ele>586.52349853516</ele>
        <time>2015-12-20T18:10:55.000Z</time>
      </trkpt>
      <trkpt lat="45.43166" lon="4.41349">
        <ele>586.20727539062</ele>
        <time>2015-12-20T18:10:58.000Z</time>
      </trkpt>
      <trkpt lat="45.43162" lon="4.41343">
        <ele>586.53436279297</ele>
        <time>2015-12-20T18:11:01.000Z</time>
      </trkpt>
      <trkpt lat="45.43158" lon="4.41336">
        <ele>587.06042480469</ele>
        <time>2015-12-20T18:11:04.000Z</time>
      </trkpt>
      <trkpt lat="45.43155" lon="4.41331">
        <ele>586.55706787109</ele>
        <time>2015-12-20T18:11:06.000Z</time>
      </trkpt>
      <trkpt lat="45.43151" lon="4.41325">
        <ele>586.91845703125</ele>
        <time>2015-12-20T18:11:09.000Z</time>
      </trkpt>
      <trkpt lat="45.43148" lon="4.41321">
        <ele>587.40014648438</ele>
        <time>2015-12-20T18:11:11.000Z</time>
      </trkpt>
      <trkpt lat="45.43145" lon="4.41317">
        <ele>588.01910400391</ele>
        <time>2015-12-20T18:11:13.000Z</time>
      </trkpt>
      <trkpt lat="45.43142" lon="4.4131">
        <ele>589.51184082031</ele>
        <time>2015-12-20T18:11:16.000Z</time>
      </trkpt>
      <trkpt lat="45.43138" lon="4.41302">
        <ele>590.54577636719</ele>
        <time>2015-12-20T18:11:19.000Z</time>
      </trkpt>
      <trkpt lat="45.43135" lon="4.41297">
        <ele>591.41333007812</ele>
        <time>2015-12-20T18:11:21.000Z</time>
      </trkpt>
      <trkpt lat="45.43131" lon="4.41292">
        <ele>591.55389404297</ele>
        <time>2015-12-20T18:11:23.000Z</time>
      </trkpt>
      <trkpt lat="45.43126" lon="4.41286">
        <ele>592.03430175781</ele>
        <time>2015-12-20T18:11:26.000Z</time>
      </trkpt>
      <trkpt lat="45.43123" lon="4.41281">
        <ele>591.55389404297</ele>
        <time>2015-12-20T18:11:28.000Z</time>
      </trkpt>
      <trkpt lat="45.43117" lon="4.41278">
        <ele>591.53894042969</ele>
        <time>2015-12-20T18:11:31.000Z</time>
      </trkpt>
      <trkpt lat="45.43113" lon="4.41274">
        <ele>590.66900634766</ele>
        <time>2015-12-20T18:11:33.000Z</time>
      </trkpt>
      <trkpt lat="45.43109" lon="4.41267">
        <ele>591.00646972656</ele>
        <time>2015-12-20T18:11:36.000Z</time>
      </trkpt>
      <trkpt lat="45.43106" lon="4.41263">
        <ele>591.5322265625</ele>
        <time>2015-12-20T18:11:38.000Z</time>
      </trkpt>
      <trkpt lat="45.431" lon="4.41257">
        <ele>592.93084716797</ele>
        <time>2015-12-20T18:11:41.000Z</time>
      </trkpt>
      <trkpt lat="45.43095" lon="4.41252">
        <ele>592.53363037109</ele>
        <time>2015-12-20T18:11:44.000Z</time>
      </trkpt>
      <trkpt lat="45.43092" lon="4.41247">
        <ele>592.52563476562</ele>
        <time>2015-12-20T18:11:46.000Z</time>
      </trkpt>
      <trkpt lat="45.43089" lon="4.41243">
        <ele>593.88677978516</ele>
        <time>2015-12-20T18:11:48.000Z</time>
      </trkpt>
      <trkpt lat="45.43085" lon="4.41239">
        <ele>593.68792724609</ele>
        <time>2015-12-20T18:11:50.000Z</time>
      </trkpt>
      <trkpt lat="45.43081" lon="4.41234">
        <ele>594.51959228516</ele>
        <time>2015-12-20T18:11:53.000Z</time>
      </trkpt>
      <trkpt lat="45.43076" lon="4.41228">
        <ele>594.05603027344</ele>
        <time>2015-12-20T18:11:56.000Z</time>
      </trkpt>
      <trkpt lat="45.43073" lon="4.41224">
        <ele>593.53601074219</ele>
        <time>2015-12-20T18:11:58.000Z</time>
      </trkpt>
      <trkpt lat="45.43068" lon="4.4122">
        <ele>594.18676757812</ele>
        <time>2015-12-20T18:12:01.000Z</time>
      </trkpt>
      <trkpt lat="45.43064" lon="4.41216">
        <ele>595.50268554688</ele>
        <time>2015-12-20T18:12:03.000Z</time>
      </trkpt>
      <trkpt lat="45.43061" lon="4.41213">
        <ele>596.61877441406</ele>
        <time>2015-12-20T18:12:05.000Z</time>
      </trkpt>
      <trkpt lat="45.43057" lon="4.41209">
        <ele>598.39471435547</ele>
        <time>2015-12-20T18:12:08.000Z</time>
      </trkpt>
      <trkpt lat="45.43055" lon="4.41206">
        <ele>598.99957275391</ele>
        <time>2015-12-20T18:12:10.000Z</time>
      </trkpt>
      <trkpt lat="45.43052" lon="4.41203">
        <ele>599.06512451172</ele>
        <time>2015-12-20T18:12:12.000Z</time>
      </trkpt>
      <trkpt lat="45.43047" lon="4.41198">
        <ele>600.02026367188</ele>
        <time>2015-12-20T18:12:15.000Z</time>
      </trkpt>
      <trkpt lat="45.43041" lon="4.41194">
        <ele>601.41223144531</ele>
        <time>2015-12-20T18:12:18.000Z</time>
      </trkpt>
      <trkpt lat="45.43038" lon="4.4119">
        <ele>602.40441894531</ele>
        <time>2015-12-20T18:12:20.000Z</time>
      </trkpt>
      <trkpt lat="45.43034" lon="4.41187">
        <ele>604.19024658203</ele>
        <time>2015-12-20T18:12:23.000Z</time>
      </trkpt>
      <trkpt lat="45.43032" lon="4.41184">
        <ele>605.05065917969</ele>
        <time>2015-12-20T18:12:25.000Z</time>
      </trkpt>
      <trkpt lat="45.43027" lon="4.41178">
        <ele>604.70727539062</ele>
        <time>2015-12-20T18:12:28.000Z</time>
      </trkpt>
      <trkpt lat="45.43023" lon="4.41175">
        <ele>605.38470458984</ele>
        <time>2015-12-20T18:12:31.000Z</time>
      </trkpt>
      <trkpt lat="45.4302" lon="4.41173">
        <ele>605.54724121094</ele>
        <time>2015-12-20T18:12:33.000Z</time>
      </trkpt>
      <trkpt lat="45.43017" lon="4.41169">
        <ele>606.47528076172</ele>
        <time>2015-12-20T18:12:36.000Z</time>
      </trkpt>
      <trkpt lat="45.43015" lon="4.41165">
        <ele>606.09674072266</ele>
        <time>2015-12-20T18:12:38.000Z</time>
      </trkpt>
      <trkpt lat="45.43013" lon="4.41157">
        <ele>606.84020996094</ele>
        <time>2015-12-20T18:12:41.000Z</time>
      </trkpt>
      <trkpt lat="45.43011" lon="4.41153">
        <ele>607.44677734375</ele>
        <time>2015-12-20T18:12:43.000Z</time>
      </trkpt>
      <trkpt lat="45.43008" lon="4.41147">
        <ele>606.5712890625</ele>
        <time>2015-12-20T18:12:46.000Z</time>
      </trkpt>
      <trkpt lat="45.43003" lon="4.4114">
        <ele>606.52807617188</ele>
        <time>2015-12-20T18:12:49.000Z</time>
      </trkpt>
      <trkpt lat="45.42999" lon="4.41133">
        <ele>605.54284667969</ele>
        <time>2015-12-20T18:12:52.000Z</time>
      </trkpt>
      <trkpt lat="45.42996" lon="4.41128">
        <ele>605.521484375</ele>
        <time>2015-12-20T18:12:54.000Z</time>
      </trkpt>
      <trkpt lat="45.42994" lon="4.41123">
        <ele>605.1650390625</ele>
        <time>2015-12-20T18:12:56.000Z</time>
      </trkpt>
      <trkpt lat="45.42989" lon="4.41116">
        <ele>607.50128173828</ele>
        <time>2015-12-20T18:12:59.000Z</time>
      </trkpt>
      <trkpt lat="45.42987" lon="4.41112">
        <ele>608.029296875</ele>
        <time>2015-12-20T18:13:01.000Z</time>
      </trkpt>
      <trkpt lat="45.42984" lon="4.41103">
        <ele>609.29632568359</ele>
        <time>2015-12-20T18:13:04.000Z</time>
      </trkpt>
      <trkpt lat="45.42981" lon="4.41099">
        <ele>609.9912109375</ele>
        <time>2015-12-20T18:13:06.000Z</time>
      </trkpt>
      <trkpt lat="45.42979" lon="4.41093">
        <ele>610.92724609375</ele>
        <time>2015-12-20T18:13:08.000Z</time>
      </trkpt>
      <trkpt lat="45.42975" lon="4.41084">
        <ele>612.04547119141</ele>
        <time>2015-12-20T18:13:11.000Z</time>
      </trkpt>
      <trkpt lat="45.42973" lon="4.41078">
        <ele>611.68731689453</ele>
        <time>2015-12-20T18:13:13.000Z</time>
      </trkpt>
      <trkpt lat="45.4297" lon="4.4107">
        <ele>611.51452636719</ele>
        <time>2015-12-20T18:13:16.000Z</time>
      </trkpt>
      <trkpt lat="45.42968" lon="4.41064">
        <ele>611.52716064453</ele>
        <time>2015-12-20T18:13:18.000Z</time>
      </trkpt>
      <trkpt lat="45.42965" lon="4.41055">
        <ele>611.50476074219</ele>
        <time>2015-12-20T18:13:21.000Z</time>
      </trkpt>
      <trkpt lat="45.42963" lon="4.4105">
        <ele>611.52416992188</ele>
        <time>2015-12-20T18:13:23.000Z</time>
      </trkpt>
      <trkpt lat="45.42961" lon="4.41044">
        <ele>611.52801513672</ele>
        <time>2015-12-20T18:13:25.000Z</time>
      </trkpt>
      <trkpt lat="45.42957" lon="4.41033">
        <ele>610.90899658203</ele>
        <time>2015-12-20T18:13:28.000Z</time>
      </trkpt>
      <trkpt lat="45.42955" lon="4.41028">
        <ele>611.00573730469</ele>
        <time>2015-12-20T18:13:30.000Z</time>
      </trkpt>
      <trkpt lat="45.4295" lon="4.4102">
        <ele>610.68780517578</ele>
        <time>2015-12-20T18:13:33.000Z</time>
      </trkpt>
      <trkpt lat="45.42949" lon="4.41015">
        <ele>610.51776123047</ele>
        <time>2015-12-20T18:13:35.000Z</time>
      </trkpt>
      <trkpt lat="45.42946" lon="4.41009">
        <ele>611.33776855469</ele>
        <time>2015-12-20T18:13:37.000Z</time>
      </trkpt>
      <trkpt lat="45.42944" lon="4.41004">
        <ele>611.54486083984</ele>
        <time>2015-12-20T18:13:39.000Z</time>
      </trkpt>
      <trkpt lat="45.42941" lon="4.40997">
        <ele>611.07757568359</ele>
        <time>2015-12-20T18:13:41.000Z</time>
      </trkpt>
      <trkpt lat="45.42936" lon="4.40988">
        <ele>610.52026367188</ele>
        <time>2015-12-20T18:13:44.000Z</time>
      </trkpt>
      <trkpt lat="45.42936" lon="4.40981">
        <ele>610.44384765625</ele>
        <time>2015-12-20T18:13:46.000Z</time>
      </trkpt>
      <trkpt lat="45.42935" lon="4.40973">
        <ele>611.07012939453</ele>
        <time>2015-12-20T18:13:49.000Z</time>
      </trkpt>
      <trkpt lat="45.4293" lon="4.40965">
        <ele>610.57434082031</ele>
        <time>2015-12-20T18:13:52.000Z</time>
      </trkpt>
      <trkpt lat="45.42926" lon="4.40963">
        <ele>610.96722412109</ele>
        <time>2015-12-20T18:13:54.000Z</time>
      </trkpt>
      <trkpt lat="45.42923" lon="4.40957">
        <ele>610.74481201172</ele>
        <time>2015-12-20T18:13:56.000Z</time>
      </trkpt>
      <trkpt lat="45.4292" lon="4.40945">
        <ele>609.34039306641</ele>
        <time>2015-12-20T18:13:59.000Z</time>
      </trkpt>
      <trkpt lat="45.42917" lon="4.40939">
        <ele>608.26910400391</ele>
        <time>2015-12-20T18:14:01.000Z</time>
      </trkpt>
      <trkpt lat="45.42913" lon="4.40933">
        <ele>607.58563232422</ele>
        <time>2015-12-20T18:14:03.000Z</time>
      </trkpt>
      <trkpt lat="45.42908" lon="4.40922">
        <ele>607.51745605469</ele>
        <time>2015-12-20T18:14:06.000Z</time>
      </trkpt>
      <trkpt lat="45.42907" lon="4.40914">
        <ele>607.15545654297</ele>
        <time>2015-12-20T18:14:08.000Z</time>
      </trkpt>
      <trkpt lat="45.42905" lon="4.409">
        <ele>607.36657714844</ele>
        <time>2015-12-20T18:14:11.000Z</time>
      </trkpt>
      <trkpt lat="45.42902" lon="4.40895">
        <ele>607.56481933594</ele>
        <time>2015-12-20T18:14:13.000Z</time>
      </trkpt>
      <trkpt lat="45.42897" lon="4.40886">
        <ele>606.60479736328</ele>
        <time>2015-12-20T18:14:16.000Z</time>
      </trkpt>
      <trkpt lat="45.42896" lon="4.40878">
        <ele>607.19207763672</ele>
        <time>2015-12-20T18:14:18.000Z</time>
      </trkpt>
      <trkpt lat="45.42895" lon="4.40863">
        <ele>606.17742919922</ele>
        <time>2015-12-20T18:14:21.000Z</time>
      </trkpt>
      <trkpt lat="45.42895" lon="4.40852">
        <ele>605.298828125</ele>
        <time>2015-12-20T18:14:23.000Z</time>
      </trkpt>
      <trkpt lat="45.42894" lon="4.40844">
        <ele>604.67425537109</ele>
        <time>2015-12-20T18:14:25.000Z</time>
      </trkpt>
      <trkpt lat="45.42892" lon="4.4083">
        <ele>603.60754394531</ele>
        <time>2015-12-20T18:14:28.000Z</time>
      </trkpt>
      <trkpt lat="45.42886" lon="4.40824">
        <ele>602.59637451172</ele>
        <time>2015-12-20T18:14:31.000Z</time>
      </trkpt>
      <trkpt lat="45.42883" lon="4.40814">
        <ele>602.51635742188</ele>
        <time>2015-12-20T18:14:34.000Z</time>
      </trkpt>
      <trkpt lat="45.42883" lon="4.40798">
        <ele>602.04248046875</ele>
        <time>2015-12-20T18:14:37.000Z</time>
      </trkpt>
      <trkpt lat="45.42884" lon="4.40779">
        <ele>601.41186523438</ele>
        <time>2015-12-20T18:14:40.000Z</time>
      </trkpt>
      <trkpt lat="45.42884" lon="4.40771">
        <ele>601.34924316406</ele>
        <time>2015-12-20T18:14:42.000Z</time>
      </trkpt>
      <trkpt lat="45.42882" lon="4.40765">
        <ele>601.21087646484</ele>
        <time>2015-12-20T18:14:44.000Z</time>
      </trkpt>
      <trkpt lat="45.42879" lon="4.40755">
        <ele>600.87280273438</ele>
        <time>2015-12-20T18:14:47.000Z</time>
      </trkpt>
      <trkpt lat="45.42878" lon="4.40747">
        <ele>601.201171875</ele>
        <time>2015-12-20T18:14:49.000Z</time>
      </trkpt>
      <trkpt lat="45.42876" lon="4.40734">
        <ele>600.03253173828</ele>
        <time>2015-12-20T18:14:52.000Z</time>
      </trkpt>
      <trkpt lat="45.42875" lon="4.40724">
        <ele>597.83746337891</ele>
        <time>2015-12-20T18:14:55.000Z</time>
      </trkpt>
      <trkpt lat="45.42875" lon="4.40716">
        <ele>597.02923583984</ele>
        <time>2015-12-20T18:14:57.000Z</time>
      </trkpt>
      <trkpt lat="45.42874" lon="4.40706">
        <ele>595.22827148438</ele>
        <time>2015-12-20T18:15:00.000Z</time>
      </trkpt>
      <trkpt lat="45.42873" lon="4.40699">
        <ele>595.38922119141</ele>
        <time>2015-12-20T18:15:02.000Z</time>
      </trkpt>
      <trkpt lat="45.4287" lon="4.40689">
        <ele>594.69104003906</ele>
        <time>2015-12-20T18:15:05.000Z</time>
      </trkpt>
      <trkpt lat="45.42869" lon="4.40681">
        <ele>594.51153564453</ele>
        <time>2015-12-20T18:15:07.000Z</time>
      </trkpt>
      <trkpt lat="45.42866" lon="4.40671">
        <ele>594.51129150391</ele>
        <time>2015-12-20T18:15:10.000Z</time>
      </trkpt>
      <trkpt lat="45.42865" lon="4.40663">
        <ele>593.55346679688</ele>
        <time>2015-12-20T18:15:12.000Z</time>
      </trkpt>
      <trkpt lat="45.42865" lon="4.40643">
        <ele>590.18627929688</ele>
        <time>2015-12-20T18:15:15.000Z</time>
      </trkpt>
      <trkpt lat="45.42863" lon="4.40633">
        <ele>588.50219726562</ele>
        <time>2015-12-20T18:15:18.000Z</time>
      </trkpt>
      <trkpt lat="45.42862" lon="4.40626">
        <ele>587.00207519531</ele>
        <time>2015-12-20T18:15:20.000Z</time>
      </trkpt>
      <trkpt lat="45.42859" lon="4.40617">
        <ele>587.43676757812</ele>
        <time>2015-12-20T18:15:23.000Z</time>
      </trkpt>
      <trkpt lat="45.42858" lon="4.40608">
        <ele>587.19604492188</ele>
        <time>2015-12-20T18:15:25.000Z</time>
      </trkpt>
      <trkpt lat="45.42857" lon="4.40599">
        <ele>586.77203369141</ele>
        <time>2015-12-20T18:15:27.000Z</time>
      </trkpt>
      <trkpt lat="45.42855" lon="4.40586">
        <ele>586.48223876953</ele>
        <time>2015-12-20T18:15:30.000Z</time>
      </trkpt>
      <trkpt lat="45.42854" lon="4.40573">
        <ele>586.15466308594</ele>
        <time>2015-12-20T18:15:33.000Z</time>
      </trkpt>
      <trkpt lat="45.4285" lon="4.40562">
        <ele>586.60705566406</ele>
        <time>2015-12-20T18:15:36.000Z</time>
      </trkpt>
      <trkpt lat="45.42848" lon="4.40556">
        <ele>586.97772216797</ele>
        <time>2015-12-20T18:15:38.000Z</time>
      </trkpt>
      <trkpt lat="45.42847" lon="4.40549">
        <ele>586.93432617188</ele>
        <time>2015-12-20T18:15:40.000Z</time>
      </trkpt>
      <trkpt lat="45.42845" lon="4.40539">
        <ele>586.55780029297</ele>
        <time>2015-12-20T18:15:43.000Z</time>
      </trkpt>
      <trkpt lat="45.42844" lon="4.40532">
        <ele>585.25347900391</ele>
        <time>2015-12-20T18:15:45.000Z</time>
      </trkpt>
      <trkpt lat="45.42844" lon="4.40524">
        <ele>584.00744628906</ele>
        <time>2015-12-20T18:15:47.000Z</time>
      </trkpt>
      <trkpt lat="45.42843" lon="4.40516">
        <ele>582.06909179688</ele>
        <time>2015-12-20T18:15:49.000Z</time>
      </trkpt>
      <trkpt lat="45.42841" lon="4.40506">
        <ele>580.92144775391</ele>
        <time>2015-12-20T18:15:52.000Z</time>
      </trkpt>
      <trkpt lat="45.42838" lon="4.40495">
        <ele>581.42120361328</ele>
        <time>2015-12-20T18:15:55.000Z</time>
      </trkpt>
      <trkpt lat="45.42837" lon="4.40482">
        <ele>581.40234375</ele>
        <time>2015-12-20T18:15:58.000Z</time>
      </trkpt>
      <trkpt lat="45.42838" lon="4.40469">
        <ele>581.71502685547</ele>
        <time>2015-12-20T18:16:01.000Z</time>
      </trkpt>
      <trkpt lat="45.42839" lon="4.40462">
        <ele>582.69085693359</ele>
        <time>2015-12-20T18:16:03.000Z</time>
      </trkpt>
      <trkpt lat="45.42842" lon="4.40449">
        <ele>584.34600830078</ele>
        <time>2015-12-20T18:16:06.000Z</time>
      </trkpt>
      <trkpt lat="45.42844" lon="4.40434">
        <ele>585.78649902344</ele>
        <time>2015-12-20T18:16:09.000Z</time>
      </trkpt>
      <trkpt lat="45.42845" lon="4.4042">
        <ele>586.4912109375</ele>
        <time>2015-12-20T18:16:12.000Z</time>
      </trkpt>
      <trkpt lat="45.42846" lon="4.40408">
        <ele>587.306640625</ele>
        <time>2015-12-20T18:16:15.000Z</time>
      </trkpt>
      <trkpt lat="45.42847" lon="4.404">
        <ele>588.04614257812</ele>
        <time>2015-12-20T18:16:17.000Z</time>
      </trkpt>
      <trkpt lat="45.42849" lon="4.4039">
        <ele>589.20941162109</ele>
        <time>2015-12-20T18:16:20.000Z</time>
      </trkpt>
      <trkpt lat="45.4285" lon="4.40382">
        <ele>589.85437011719</ele>
        <time>2015-12-20T18:16:22.000Z</time>
      </trkpt>
      <trkpt lat="45.42855" lon="4.40375">
        <ele>590.92431640625</ele>
        <time>2015-12-20T18:16:25.000Z</time>
      </trkpt>
      <trkpt lat="45.42858" lon="4.40364">
        <ele>592.05096435547</ele>
        <time>2015-12-20T18:16:28.000Z</time>
      </trkpt>
      <trkpt lat="45.4286" lon="4.40354">
        <ele>592.25622558594</ele>
        <time>2015-12-20T18:16:30.000Z</time>
      </trkpt>
      <trkpt lat="45.42863" lon="4.40346">
        <ele>593.09936523438</ele>
        <time>2015-12-20T18:16:32.000Z</time>
      </trkpt>
      <trkpt lat="45.42867" lon="4.40334">
        <ele>593.52368164062</ele>
        <time>2015-12-20T18:16:35.000Z</time>
      </trkpt>
      <trkpt lat="45.42869" lon="4.40326">
        <ele>592.85375976562</ele>
        <time>2015-12-20T18:16:37.000Z</time>
      </trkpt>
      <trkpt lat="45.42872" lon="4.40314">
        <ele>592.52612304688</ele>
        <time>2015-12-20T18:16:40.000Z</time>
      </trkpt>
      <trkpt lat="45.42875" lon="4.40307">
        <ele>591.42272949219</ele>
        <time>2015-12-20T18:16:42.000Z</time>
      </trkpt>
      <trkpt lat="45.42877" lon="4.403">
        <ele>590.0888671875</ele>
        <time>2015-12-20T18:16:44.000Z</time>
      </trkpt>
      <trkpt lat="45.42879" lon="4.4029">
        <ele>588.69854736328</ele>
        <time>2015-12-20T18:16:47.000Z</time>
      </trkpt>
      <trkpt lat="45.42881" lon="4.40283">
        <ele>588.47442626953</ele>
        <time>2015-12-20T18:16:49.000Z</time>
      </trkpt>
      <trkpt lat="45.42884" lon="4.40272">
        <ele>587.66259765625</ele>
        <time>2015-12-20T18:16:52.000Z</time>
      </trkpt>
      <trkpt lat="45.42884" lon="4.40267">
        <ele>588.06964111328</ele>
        <time>2015-12-20T18:16:54.000Z</time>
      </trkpt>
      <trkpt lat="45.42886" lon="4.40255">
        <ele>589.24987792969</ele>
        <time>2015-12-20T18:16:57.000Z</time>
      </trkpt>
      <trkpt lat="45.42888" lon="4.40242">
        <ele>588.94921875</ele>
        <time>2015-12-20T18:17:00.000Z</time>
      </trkpt>
      <trkpt lat="45.42892" lon="4.40235">
        <ele>588.60375976562</ele>
        <time>2015-12-20T18:17:02.000Z</time>
      </trkpt>
      <trkpt lat="45.429" lon="4.40228">
        <ele>587.16119384766</ele>
        <time>2015-12-20T18:17:05.000Z</time>
      </trkpt>
      <trkpt lat="45.42905" lon="4.40226">
        <ele>587.44836425781</ele>
        <time>2015-12-20T18:17:07.000Z</time>
      </trkpt>
      <trkpt lat="45.42908" lon="4.40222">
        <ele>589.38751220703</ele>
        <time>2015-12-20T18:17:09.000Z</time>
      </trkpt>
      <trkpt lat="45.42914" lon="4.40215">
        <ele>590.10052490234</ele>
        <time>2015-12-20T18:17:12.000Z</time>
      </trkpt>
      <trkpt lat="45.4292" lon="4.40208">
        <ele>591.39935302734</ele>
        <time>2015-12-20T18:17:15.000Z</time>
      </trkpt>
      <trkpt lat="45.42925" lon="4.40203">
        <ele>594.42443847656</ele>
        <time>2015-12-20T18:17:18.000Z</time>
      </trkpt>
      <trkpt lat="45.42928" lon="4.40198">
        <ele>593.39233398438</ele>
        <time>2015-12-20T18:17:20.000Z</time>
      </trkpt>
      <trkpt lat="45.42931" lon="4.40192">
        <ele>592.57849121094</ele>
        <time>2015-12-20T18:17:23.000Z</time>
      </trkpt>
      <trkpt lat="45.42934" lon="4.40188">
        <ele>593.17102050781</ele>
        <time>2015-12-20T18:17:25.000Z</time>
      </trkpt>
      <trkpt lat="45.4294" lon="4.40186">
        <ele>595.07385253906</ele>
        <time>2015-12-20T18:17:28.000Z</time>
      </trkpt>
      <trkpt lat="45.42944" lon="4.40184">
        <ele>595.89141845703</ele>
        <time>2015-12-20T18:17:30.000Z</time>
      </trkpt>
      <trkpt lat="45.42949" lon="4.40181">
        <ele>597.224609375</ele>
        <time>2015-12-20T18:17:33.000Z</time>
      </trkpt>
      <trkpt lat="45.42955" lon="4.40177">
        <ele>597.55548095703</ele>
        <time>2015-12-20T18:17:36.000Z</time>
      </trkpt>
      <trkpt lat="45.42958" lon="4.40174">
        <ele>597.93280029297</ele>
        <time>2015-12-20T18:17:38.000Z</time>
      </trkpt>
      <trkpt lat="45.42962" lon="4.4017">
        <ele>598.88464355469</ele>
        <time>2015-12-20T18:17:40.000Z</time>
      </trkpt>
      <trkpt lat="45.42968" lon="4.40164">
        <ele>598.50970458984</ele>
        <time>2015-12-20T18:17:44.000Z</time>
      </trkpt>
      <trkpt lat="45.42973" lon="4.40157">
        <ele>599.00445556641</ele>
        <time>2015-12-20T18:17:47.000Z</time>
      </trkpt>
      <trkpt lat="45.42977" lon="4.40153">
        <ele>599.52325439453</ele>
        <time>2015-12-20T18:17:49.000Z</time>
      </trkpt>
      <trkpt lat="45.42982" lon="4.40149">
        <ele>599.52545166016</ele>
        <time>2015-12-20T18:17:52.000Z</time>
      </trkpt>
      <trkpt lat="45.42988" lon="4.40144">
        <ele>599.88549804688</ele>
        <time>2015-12-20T18:17:55.000Z</time>
      </trkpt>
      <trkpt lat="45.42992" lon="4.40138">
        <ele>599.98272705078</ele>
        <time>2015-12-20T18:17:58.000Z</time>
      </trkpt>
      <trkpt lat="45.42997" lon="4.40132">
        <ele>599.47583007812</ele>
        <time>2015-12-20T18:18:01.000Z</time>
      </trkpt>
      <trkpt lat="45.43" lon="4.40129">
        <ele>599.04125976562</ele>
        <time>2015-12-20T18:18:03.000Z</time>
      </trkpt>
      <trkpt lat="45.43004" lon="4.40125">
        <ele>599.02844238281</ele>
        <time>2015-12-20T18:18:05.000Z</time>
      </trkpt>
      <trkpt lat="45.43007" lon="4.40122">
        <ele>599.08538818359</ele>
        <time>2015-12-20T18:18:07.000Z</time>
      </trkpt>
      <trkpt lat="45.43012" lon="4.40117">
        <ele>598.56036376953</ele>
        <time>2015-12-20T18:18:10.000Z</time>
      </trkpt>
      <trkpt lat="45.43014" lon="4.40114">
        <ele>597.82495117188</ele>
        <time>2015-12-20T18:18:12.000Z</time>
      </trkpt>
      <trkpt lat="45.43016" lon="4.4011">
        <ele>598.26049804688</ele>
        <time>2015-12-20T18:18:15.000Z</time>
      </trkpt>
      <trkpt lat="45.43021" lon="4.40103">
        <ele>597.05535888672</ele>
        <time>2015-12-20T18:18:18.000Z</time>
      </trkpt>
      <trkpt lat="45.43024" lon="4.40098">
        <ele>595.25134277344</ele>
        <time>2015-12-20T18:18:20.000Z</time>
      </trkpt>
      <trkpt lat="45.43028" lon="4.40092">
        <ele>594.92224121094</ele>
        <time>2015-12-20T18:18:23.000Z</time>
      </trkpt>
      <trkpt lat="45.43033" lon="4.40086">
        <ele>594.15045166016</ele>
        <time>2015-12-20T18:18:26.000Z</time>
      </trkpt>
      <trkpt lat="45.43036" lon="4.40078">
        <ele>591.49725341797</ele>
        <time>2015-12-20T18:18:29.000Z</time>
      </trkpt>
      <trkpt lat="45.43039" lon="4.40074">
        <ele>590.31646728516</ele>
        <time>2015-12-20T18:18:31.000Z</time>
      </trkpt>
      <trkpt lat="45.43052" lon="4.40063">
        <ele>590.95013427734</ele>
        <time>2015-12-20T18:18:34.000Z</time>
      </trkpt>
      <trkpt lat="45.43058" lon="4.40056">
        <ele>591.00231933594</ele>
        <time>2015-12-20T18:18:37.000Z</time>
      </trkpt>
      <trkpt lat="45.43062" lon="4.40047">
        <ele>591.52069091797</ele>
        <time>2015-12-20T18:18:40.000Z</time>
      </trkpt>
      <trkpt lat="45.43064" lon="4.40042">
        <ele>589.68133544922</ele>
        <time>2015-12-20T18:18:42.000Z</time>
      </trkpt>
      <trkpt lat="45.43069" lon="4.40033">
        <ele>588.49548339844</ele>
        <time>2015-12-20T18:18:45.000Z</time>
      </trkpt>
      <trkpt lat="45.43073" lon="4.40024">
        <ele>588.90740966797</ele>
        <time>2015-12-20T18:18:48.000Z</time>
      </trkpt>
      <trkpt lat="45.43076" lon="4.40019">
        <ele>589.94189453125</ele>
        <time>2015-12-20T18:18:50.000Z</time>
      </trkpt>
      <trkpt lat="45.43081" lon="4.40011">
        <ele>591.04071044922</ele>
        <time>2015-12-20T18:18:53.000Z</time>
      </trkpt>
      <trkpt lat="45.43085" lon="4.40003">
        <ele>592.8896484375</ele>
        <time>2015-12-20T18:18:56.000Z</time>
      </trkpt>
      <trkpt lat="45.4309" lon="4.39996">
        <ele>594.77581787109</ele>
        <time>2015-12-20T18:18:59.000Z</time>
      </trkpt>
      <trkpt lat="45.43096" lon="4.3999">
        <ele>593.59497070312</ele>
        <time>2015-12-20T18:19:02.000Z</time>
      </trkpt>
      <trkpt lat="45.43101" lon="4.39984">
        <ele>590.65930175781</ele>
        <time>2015-12-20T18:19:04.000Z</time>
      </trkpt>
      <trkpt lat="45.43105" lon="4.39978">
        <ele>589.19549560547</ele>
        <time>2015-12-20T18:19:06.000Z</time>
      </trkpt>
      <trkpt lat="45.43108" lon="4.39974">
        <ele>588.95416259766</ele>
        <time>2015-12-20T18:19:08.000Z</time>
      </trkpt>
      <trkpt lat="45.43111" lon="4.39967">
        <ele>589.40380859375</ele>
        <time>2015-12-20T18:19:11.000Z</time>
      </trkpt>
      <trkpt lat="45.43114" lon="4.39959">
        <ele>591.81213378906</ele>
        <time>2015-12-20T18:19:14.000Z</time>
      </trkpt>
      <trkpt lat="45.43117" lon="4.39952">
        <ele>592.07238769531</ele>
        <time>2015-12-20T18:19:17.000Z</time>
      </trkpt>
      <trkpt lat="45.43123" lon="4.39945">
        <ele>590.4482421875</ele>
        <time>2015-12-20T18:19:19.000Z</time>
      </trkpt>
      <trkpt lat="45.43131" lon="4.39935">
        <ele>589.31372070312</ele>
        <time>2015-12-20T18:19:22.000Z</time>
      </trkpt>
      <trkpt lat="45.43135" lon="4.3993">
        <ele>588.07556152344</ele>
        <time>2015-12-20T18:19:24.000Z</time>
      </trkpt>
      <trkpt lat="45.43139" lon="4.39924">
        <ele>587.9130859375</ele>
        <time>2015-12-20T18:19:26.000Z</time>
      </trkpt>
      <trkpt lat="45.43132" lon="4.39913">
        <ele>588.04156494141</ele>
        <time>2015-12-20T18:19:29.000Z</time>
      </trkpt>
      <trkpt lat="45.43135" lon="4.39905">
        <ele>585.23706054688</ele>
        <time>2015-12-20T18:19:32.000Z</time>
      </trkpt>
      <trkpt lat="45.43137" lon="4.399">
        <ele>583.68078613281</ele>
        <time>2015-12-20T18:19:34.000Z</time>
      </trkpt>
      <trkpt lat="45.4314" lon="4.39893">
        <ele>582.31463623047</ele>
        <time>2015-12-20T18:19:36.000Z</time>
      </trkpt>
      <trkpt lat="45.43144" lon="4.39885">
        <ele>581.5908203125</ele>
        <time>2015-12-20T18:19:38.000Z</time>
      </trkpt>
      <trkpt lat="45.4315" lon="4.39873">
        <ele>582.34619140625</ele>
        <time>2015-12-20T18:19:41.000Z</time>
      </trkpt>
      <trkpt lat="45.43152" lon="4.39867">
        <ele>582.87066650391</ele>
        <time>2015-12-20T18:19:44.000Z</time>
      </trkpt>
      <trkpt lat="45.43155" lon="4.39859">
        <ele>582.20239257812</ele>
        <time>2015-12-20T18:19:46.000Z</time>
      </trkpt>
      <trkpt lat="45.43157" lon="4.39855">
        <ele>580.95794677734</ele>
        <time>2015-12-20T18:19:48.000Z</time>
      </trkpt>
      <trkpt lat="45.43161" lon="4.39846">
        <ele>581.30834960938</ele>
        <time>2015-12-20T18:19:51.000Z</time>
      </trkpt>
      <trkpt lat="45.43163" lon="4.39837">
        <ele>582.23315429688</ele>
        <time>2015-12-20T18:19:54.000Z</time>
      </trkpt>
      <trkpt lat="45.43164" lon="4.39832">
        <ele>580.99578857422</ele>
        <time>2015-12-20T18:19:56.000Z</time>
      </trkpt>
      <trkpt lat="45.43167" lon="4.39827">
        <ele>578.31604003906</ele>
        <time>2015-12-20T18:19:58.000Z</time>
      </trkpt>
      <trkpt lat="45.43171" lon="4.39818">
        <ele>575.6875</ele>
        <time>2015-12-20T18:20:01.000Z</time>
      </trkpt>
      <trkpt lat="45.43174" lon="4.39813">
        <ele>575.41137695312</ele>
        <time>2015-12-20T18:20:03.000Z</time>
      </trkpt>
      <trkpt lat="45.43177" lon="4.39803">
        <ele>574.62371826172</ele>
        <time>2015-12-20T18:20:06.000Z</time>
      </trkpt>
      <trkpt lat="45.4318" lon="4.39796">
        <ele>574.84802246094</ele>
        <time>2015-12-20T18:20:08.000Z</time>
      </trkpt>
      <trkpt lat="45.43182" lon="4.39789">
        <ele>575.30914306641</ele>
        <time>2015-12-20T18:20:10.000Z</time>
      </trkpt>
      <trkpt lat="45.43185" lon="4.39782">
        <ele>575.13720703125</ele>
        <time>2015-12-20T18:20:12.000Z</time>
      </trkpt>
      <trkpt lat="45.43188" lon="4.39771">
        <ele>574.55187988281</ele>
        <time>2015-12-20T18:20:15.000Z</time>
      </trkpt>
      <trkpt lat="45.43196" lon="4.39762">
        <ele>572.85150146484</ele>
        <time>2015-12-20T18:20:18.000Z</time>
      </trkpt>
      <trkpt lat="45.43202" lon="4.39759">
        <ele>572.50445556641</ele>
        <time>2015-12-20T18:20:20.000Z</time>
      </trkpt>
      <trkpt lat="45.43208" lon="4.39758">
        <ele>572.52001953125</ele>
        <time>2015-12-20T18:20:22.000Z</time>
      </trkpt>
      <trkpt lat="45.43213" lon="4.39753">
        <ele>572.03997802734</ele>
        <time>2015-12-20T18:20:25.000Z</time>
      </trkpt>
      <trkpt lat="45.43217" lon="4.3975">
        <ele>571.90588378906</ele>
        <time>2015-12-20T18:20:27.000Z</time>
      </trkpt>
      <trkpt lat="45.43224" lon="4.39747">
        <ele>571.51232910156</ele>
        <time>2015-12-20T18:20:30.000Z</time>
      </trkpt>
      <trkpt lat="45.43229" lon="4.39746">
        <ele>572.42022705078</ele>
        <time>2015-12-20T18:20:32.000Z</time>
      </trkpt>
      <trkpt lat="45.43236" lon="4.39748">
        <ele>570.96520996094</ele>
        <time>2015-12-20T18:20:35.000Z</time>
      </trkpt>
      <trkpt lat="45.43242" lon="4.39752">
        <ele>570.56732177734</ele>
        <time>2015-12-20T18:20:38.000Z</time>
      </trkpt>
      <trkpt lat="45.43246" lon="4.39753">
        <ele>570.45916748047</ele>
        <time>2015-12-20T18:20:40.000Z</time>
      </trkpt>
      <trkpt lat="45.43252" lon="4.39755">
        <ele>570.97021484375</ele>
        <time>2015-12-20T18:20:43.000Z</time>
      </trkpt>
      <trkpt lat="45.43257" lon="4.39754">
        <ele>573.17254638672</ele>
        <time>2015-12-20T18:20:46.000Z</time>
      </trkpt>
      <trkpt lat="45.43261" lon="4.39753">
        <ele>573.05670166016</ele>
        <time>2015-12-20T18:20:48.000Z</time>
      </trkpt>
      <trkpt lat="45.43267" lon="4.39753">
        <ele>572.36303710938</ele>
        <time>2015-12-20T18:20:51.000Z</time>
      </trkpt>
      <trkpt lat="45.43271" lon="4.39752">
        <ele>571.63946533203</ele>
        <time>2015-12-20T18:20:53.000Z</time>
      </trkpt>
      <trkpt lat="45.43275" lon="4.39752">
        <ele>571.90582275391</ele>
        <time>2015-12-20T18:20:55.000Z</time>
      </trkpt>
      <trkpt lat="45.43281" lon="4.39751">
        <ele>574.85284423828</ele>
        <time>2015-12-20T18:20:58.000Z</time>
      </trkpt>
      <trkpt lat="45.43287" lon="4.39751">
        <ele>574.02484130859</ele>
        <time>2015-12-20T18:21:01.000Z</time>
      </trkpt>
      <trkpt lat="45.43291" lon="4.39751">
        <ele>573.09454345703</ele>
        <time>2015-12-20T18:21:03.000Z</time>
      </trkpt>
      <trkpt lat="45.43296" lon="4.39751">
        <ele>573.99627685547</ele>
        <time>2015-12-20T18:21:05.000Z</time>
      </trkpt>
      <trkpt lat="45.433" lon="4.39751">
        <ele>574.52685546875</ele>
        <time>2015-12-20T18:21:07.000Z</time>
      </trkpt>
      <trkpt lat="45.43304" lon="4.3975">
        <ele>574.01202392578</ele>
        <time>2015-12-20T18:21:09.000Z</time>
      </trkpt>
      <trkpt lat="45.43309" lon="4.39749">
        <ele>574.74938964844</ele>
        <time>2015-12-20T18:21:12.000Z</time>
      </trkpt>
      <trkpt lat="45.43313" lon="4.39747">
        <ele>574.55615234375</ele>
        <time>2015-12-20T18:21:14.000Z</time>
      </trkpt>
      <trkpt lat="45.43319" lon="4.39746">
        <ele>576.37927246094</ele>
        <time>2015-12-20T18:21:17.000Z</time>
      </trkpt>
      <trkpt lat="45.43324" lon="4.39745">
        <ele>576.55151367188</ele>
        <time>2015-12-20T18:21:19.000Z</time>
      </trkpt>
      <trkpt lat="45.43332" lon="4.39742">
        <ele>577.53540039062</ele>
        <time>2015-12-20T18:21:22.000Z</time>
      </trkpt>
      <trkpt lat="45.43337" lon="4.3974">
        <ele>578.01751708984</ele>
        <time>2015-12-20T18:21:25.000Z</time>
      </trkpt>
      <trkpt lat="45.43343" lon="4.39736">
        <ele>578.54266357422</ele>
        <time>2015-12-20T18:21:28.000Z</time>
      </trkpt>
      <trkpt lat="45.43349" lon="4.39732">
        <ele>579.39074707031</ele>
        <time>2015-12-20T18:21:31.000Z</time>
      </trkpt>
      <trkpt lat="45.43354" lon="4.3973">
        <ele>580.45092773438</ele>
        <time>2015-12-20T18:21:33.000Z</time>
      </trkpt>
      <trkpt lat="45.43363" lon="4.39729">
        <ele>579.88800048828</ele>
        <time>2015-12-20T18:21:36.000Z</time>
      </trkpt>
      <trkpt lat="45.43368" lon="4.39727">
        <ele>580.06292724609</ele>
        <time>2015-12-20T18:21:38.000Z</time>
      </trkpt>
      <trkpt lat="45.43374" lon="4.39723">
        <ele>581.15594482422</ele>
        <time>2015-12-20T18:21:41.000Z</time>
      </trkpt>
      <trkpt lat="45.43378" lon="4.39722">
        <ele>582.39678955078</ele>
        <time>2015-12-20T18:21:43.000Z</time>
      </trkpt>
      <trkpt lat="45.43383" lon="4.3972">
        <ele>582.90557861328</ele>
        <time>2015-12-20T18:21:45.000Z</time>
      </trkpt>
      <trkpt lat="45.43391" lon="4.39719">
        <ele>583.52087402344</ele>
        <time>2015-12-20T18:21:48.000Z</time>
      </trkpt>
      <trkpt lat="45.43398" lon="4.39718">
        <ele>583.16595458984</ele>
        <time>2015-12-20T18:21:50.000Z</time>
      </trkpt>
      <trkpt lat="45.43403" lon="4.39717">
        <ele>583.85479736328</ele>
        <time>2015-12-20T18:21:52.000Z</time>
      </trkpt>
      <trkpt lat="45.43408" lon="4.39719">
        <ele>583.79077148438</ele>
        <time>2015-12-20T18:21:54.000Z</time>
      </trkpt>
      <trkpt lat="45.43412" lon="4.39718">
        <ele>584.49755859375</ele>
        <time>2015-12-20T18:21:56.000Z</time>
      </trkpt>
      <trkpt lat="45.4342" lon="4.39719">
        <ele>585.4970703125</ele>
        <time>2015-12-20T18:21:59.000Z</time>
      </trkpt>
      <trkpt lat="45.43423" lon="4.3972">
        <ele>586.57641601562</ele>
        <time>2015-12-20T18:22:01.000Z</time>
      </trkpt>
      <trkpt lat="45.4343" lon="4.39719">
        <ele>587.54968261719</ele>
        <time>2015-12-20T18:22:04.000Z</time>
      </trkpt>
      <trkpt lat="45.43439" lon="4.39718">
        <ele>587.91394042969</ele>
        <time>2015-12-20T18:22:07.000Z</time>
      </trkpt>
      <trkpt lat="45.43445" lon="4.39716">
        <ele>586.63958740234</ele>
        <time>2015-12-20T18:22:10.000Z</time>
      </trkpt>
      <trkpt lat="45.4345" lon="4.39716">
        <ele>586.49322509766</ele>
        <time>2015-12-20T18:22:12.000Z</time>
      </trkpt>
      <trkpt lat="45.43458" lon="4.39714">
        <ele>585.0908203125</ele>
        <time>2015-12-20T18:22:15.000Z</time>
      </trkpt>
      <trkpt lat="45.43464" lon="4.39714">
        <ele>583.92254638672</ele>
        <time>2015-12-20T18:22:17.000Z</time>
      </trkpt>
      <trkpt lat="45.43472" lon="4.39714">
        <ele>582.50640869141</ele>
        <time>2015-12-20T18:22:20.000Z</time>
      </trkpt>
      <trkpt lat="45.43478" lon="4.39711">
        <ele>581.02270507812</ele>
        <time>2015-12-20T18:22:22.000Z</time>
      </trkpt>
      <trkpt lat="45.43486" lon="4.39711">
        <ele>578.47973632812</ele>
        <time>2015-12-20T18:22:25.000Z</time>
      </trkpt>
      <trkpt lat="45.43494" lon="4.39709">
        <ele>575.79241943359</ele>
        <time>2015-12-20T18:22:28.000Z</time>
      </trkpt>
      <trkpt lat="45.435" lon="4.39708">
        <ele>576.26678466797</ele>
        <time>2015-12-20T18:22:30.000Z</time>
      </trkpt>
      <trkpt lat="45.43506" lon="4.39707">
        <ele>576.51043701172</ele>
        <time>2015-12-20T18:22:32.000Z</time>
      </trkpt>
      <trkpt lat="45.43513" lon="4.39706">
        <ele>576.34954833984</ele>
        <time>2015-12-20T18:22:35.000Z</time>
      </trkpt>
      <trkpt lat="45.4352" lon="4.39706">
        <ele>575.58221435547</ele>
        <time>2015-12-20T18:22:38.000Z</time>
      </trkpt>
      <trkpt lat="45.43526" lon="4.39707">
        <ele>575.02954101562</ele>
        <time>2015-12-20T18:22:40.000Z</time>
      </trkpt>
      <trkpt lat="45.43531" lon="4.39708">
        <ele>575.68688964844</ele>
        <time>2015-12-20T18:22:42.000Z</time>
      </trkpt>
      <trkpt lat="45.43538" lon="4.39714">
        <ele>575.23651123047</ele>
        <time>2015-12-20T18:22:45.000Z</time>
      </trkpt>
      <trkpt lat="45.43543" lon="4.39721">
        <ele>574.49914550781</ele>
        <time>2015-12-20T18:22:47.000Z</time>
      </trkpt>
      <trkpt lat="45.43549" lon="4.39729">
        <ele>576.41717529297</ele>
        <time>2015-12-20T18:22:50.000Z</time>
      </trkpt>
      <trkpt lat="45.43554" lon="4.39735">
        <ele>578.15740966797</ele>
        <time>2015-12-20T18:22:53.000Z</time>
      </trkpt>
      <trkpt lat="45.4356" lon="4.39738">
        <ele>577.15020751953</ele>
        <time>2015-12-20T18:22:56.000Z</time>
      </trkpt>
      <trkpt lat="45.43566" lon="4.39742">
        <ele>576.12841796875</ele>
        <time>2015-12-20T18:22:58.000Z</time>
      </trkpt>
      <trkpt lat="45.43575" lon="4.39749">
        <ele>575.54302978516</ele>
        <time>2015-12-20T18:23:01.000Z</time>
      </trkpt>
      <trkpt lat="45.43581" lon="4.39757">
        <ele>575.44158935547</ele>
        <time>2015-12-20T18:23:04.000Z</time>
      </trkpt>
      <trkpt lat="45.43586" lon="4.39762">
        <ele>574.08038330078</ele>
        <time>2015-12-20T18:23:06.000Z</time>
      </trkpt>
      <trkpt lat="45.43593" lon="4.39767">
        <ele>572.67370605469</ele>
        <time>2015-12-20T18:23:09.000Z</time>
      </trkpt>
      <trkpt lat="45.43597" lon="4.39771">
        <ele>573.06402587891</ele>
        <time>2015-12-20T18:23:11.000Z</time>
      </trkpt>
      <trkpt lat="45.43604" lon="4.39774">
        <ele>573.61389160156</ele>
        <time>2015-12-20T18:23:14.000Z</time>
      </trkpt>
      <trkpt lat="45.43609" lon="4.39774">
        <ele>572.03082275391</ele>
        <time>2015-12-20T18:23:16.000Z</time>
      </trkpt>
      <trkpt lat="45.43615" lon="4.3977">
        <ele>571.51007080078</ele>
        <time>2015-12-20T18:23:20.000Z</time>
      </trkpt>
      <trkpt lat="45.43617" lon="4.3977">
        <ele>568.36944580078</ele>
        <time>2015-12-20T18:23:23.000Z</time>
      </trkpt>
      <trkpt lat="45.4362" lon="4.39763">
        <ele>564.5712890625</ele>
        <time>2015-12-20T18:23:25.000Z</time>
      </trkpt>
      <trkpt lat="45.4362" lon="4.39752">
        <ele>562.11218261719</ele>
        <time>2015-12-20T18:23:28.000Z</time>
      </trkpt>
      <trkpt lat="45.43619" lon="4.39747">
        <ele>560.76989746094</ele>
        <time>2015-12-20T18:23:30.000Z</time>
      </trkpt>
      <trkpt lat="45.4362" lon="4.39733">
        <ele>558.93194580078</ele>
        <time>2015-12-20T18:23:33.000Z</time>
      </trkpt>
      <trkpt lat="45.43622" lon="4.39723">
        <ele>559.27044677734</ele>
        <time>2015-12-20T18:23:36.000Z</time>
      </trkpt>
      <trkpt lat="45.43624" lon="4.39716">
        <ele>559.60614013672</ele>
        <time>2015-12-20T18:23:38.000Z</time>
      </trkpt>
      <trkpt lat="45.43628" lon="4.39708">
        <ele>560.048828125</ele>
        <time>2015-12-20T18:23:40.000Z</time>
      </trkpt>
      <trkpt lat="45.43637" lon="4.39701">
        <ele>558.98937988281</ele>
        <time>2015-12-20T18:23:43.000Z</time>
      </trkpt>
      <trkpt lat="45.43645" lon="4.39703">
        <ele>558.44793701172</ele>
        <time>2015-12-20T18:23:46.000Z</time>
      </trkpt>
      <trkpt lat="45.43655" lon="4.39709">
        <ele>555.33795166016</ele>
        <time>2015-12-20T18:23:49.000Z</time>
      </trkpt>
      <trkpt lat="45.43661" lon="4.39715">
        <ele>554.79931640625</ele>
        <time>2015-12-20T18:23:52.000Z</time>
      </trkpt>
      <trkpt lat="45.43666" lon="4.39721">
        <ele>554.94995117188</ele>
        <time>2015-12-20T18:23:55.000Z</time>
      </trkpt>
      <trkpt lat="45.43672" lon="4.39728">
        <ele>554.96728515625</ele>
        <time>2015-12-20T18:23:58.000Z</time>
      </trkpt>
      <trkpt lat="45.43676" lon="4.39732">
        <ele>554.4677734375</ele>
        <time>2015-12-20T18:24:00.000Z</time>
      </trkpt>
      <trkpt lat="45.43682" lon="4.39738">
        <ele>554.83380126953</ele>
        <time>2015-12-20T18:24:03.000Z</time>
      </trkpt>
      <trkpt lat="45.43689" lon="4.39747">
        <ele>552.93432617188</ele>
        <time>2015-12-20T18:24:06.000Z</time>
      </trkpt>
      <trkpt lat="45.43695" lon="4.39755">
        <ele>550.07916259766</ele>
        <time>2015-12-20T18:24:09.000Z</time>
      </trkpt>
      <trkpt lat="45.43699" lon="4.3976">
        <ele>549.05773925781</ele>
        <time>2015-12-20T18:24:11.000Z</time>
      </trkpt>
      <trkpt lat="45.43703" lon="4.39769">
        <ele>548.62268066406</ele>
        <time>2015-12-20T18:24:14.000Z</time>
      </trkpt>
      <trkpt lat="45.43706" lon="4.39774">
        <ele>548.45428466797</ele>
        <time>2015-12-20T18:24:16.000Z</time>
      </trkpt>
      <trkpt lat="45.43709" lon="4.39778">
        <ele>548.45159912109</ele>
        <time>2015-12-20T18:24:18.000Z</time>
      </trkpt>
      <trkpt lat="45.43714" lon="4.39782">
        <ele>549.02593994141</ele>
        <time>2015-12-20T18:24:20.000Z</time>
      </trkpt>
      <trkpt lat="45.43722" lon="4.39785">
        <ele>547.91363525391</ele>
        <time>2015-12-20T18:24:23.000Z</time>
      </trkpt>
      <trkpt lat="45.4373" lon="4.39785">
        <ele>545.95495605469</ele>
        <time>2015-12-20T18:24:26.000Z</time>
      </trkpt>
      <trkpt lat="45.43738" lon="4.39781">
        <ele>545.51263427734</ele>
        <time>2015-12-20T18:24:29.000Z</time>
      </trkpt>
      <trkpt lat="45.43745" lon="4.39777">
        <ele>546.52575683594</ele>
        <time>2015-12-20T18:24:32.000Z</time>
      </trkpt>
      <trkpt lat="45.43748" lon="4.39774">
        <ele>547.39819335938</ele>
        <time>2015-12-20T18:24:34.000Z</time>
      </trkpt>
      <trkpt lat="45.43756" lon="4.39772">
        <ele>546.98431396484</ele>
        <time>2015-12-20T18:24:37.000Z</time>
      </trkpt>
      <trkpt lat="45.43761" lon="4.3977">
        <ele>547.40118408203</ele>
        <time>2015-12-20T18:24:39.000Z</time>
      </trkpt>
      <trkpt lat="45.43769" lon="4.39764">
        <ele>547.16387939453</ele>
        <time>2015-12-20T18:24:42.000Z</time>
      </trkpt>
      <trkpt lat="45.43776" lon="4.39761">
        <ele>546.513671875</ele>
        <time>2015-12-20T18:24:45.000Z</time>
      </trkpt>
      <trkpt lat="45.4378" lon="4.39756">
        <ele>547.02960205078</ele>
        <time>2015-12-20T18:24:47.000Z</time>
      </trkpt>
      <trkpt lat="45.43784" lon="4.39753">
        <ele>548.01007080078</ele>
        <time>2015-12-20T18:24:49.000Z</time>
      </trkpt>
      <trkpt lat="45.43792" lon="4.3975">
        <ele>547.17102050781</ele>
        <time>2015-12-20T18:24:52.000Z</time>
      </trkpt>
      <trkpt lat="45.43797" lon="4.39746">
        <ele>546.90368652344</ele>
        <time>2015-12-20T18:24:54.000Z</time>
      </trkpt>
      <trkpt lat="45.43801" lon="4.39743">
        <ele>547.81323242188</ele>
        <time>2015-12-20T18:24:56.000Z</time>
      </trkpt>
      <trkpt lat="45.43809" lon="4.39739">
        <ele>547.63116455078</ele>
        <time>2015-12-20T18:24:59.000Z</time>
      </trkpt>
      <trkpt lat="45.43813" lon="4.39736">
        <ele>547.51940917969</ele>
        <time>2015-12-20T18:25:01.000Z</time>
      </trkpt>
      <trkpt lat="45.43822" lon="4.39732">
        <ele>545.9658203125</ele>
        <time>2015-12-20T18:25:04.000Z</time>
      </trkpt>
      <trkpt lat="45.43826" lon="4.39729">
        <ele>545.17785644531</ele>
        <time>2015-12-20T18:25:06.000Z</time>
      </trkpt>
      <trkpt lat="45.43834" lon="4.39724">
        <ele>545.21612548828</ele>
        <time>2015-12-20T18:25:09.000Z</time>
      </trkpt>
      <trkpt lat="45.43841" lon="4.39719">
        <ele>545.53955078125</ele>
        <time>2015-12-20T18:25:12.000Z</time>
      </trkpt>
      <trkpt lat="45.43847" lon="4.39718">
        <ele>545.52252197266</ele>
        <time>2015-12-20T18:25:14.000Z</time>
      </trkpt>
      <trkpt lat="45.43855" lon="4.39716">
        <ele>544.61645507812</ele>
        <time>2015-12-20T18:25:17.000Z</time>
      </trkpt>
      <trkpt lat="45.43859" lon="4.39714">
        <ele>543.61273193359</ele>
        <time>2015-12-20T18:25:19.000Z</time>
      </trkpt>
      <trkpt lat="45.43864" lon="4.39712">
        <ele>543.50726318359</ele>
        <time>2015-12-20T18:25:21.000Z</time>
      </trkpt>
      <trkpt lat="45.43873" lon="4.3971">
        <ele>541.95043945312</ele>
        <time>2015-12-20T18:25:24.000Z</time>
      </trkpt>
      <trkpt lat="45.43878" lon="4.39709">
        <ele>542.033203125</ele>
        <time>2015-12-20T18:25:26.000Z</time>
      </trkpt>
      <trkpt lat="45.43885" lon="4.39708">
        <ele>543.46850585938</ele>
        <time>2015-12-20T18:25:29.000Z</time>
      </trkpt>
      <trkpt lat="45.43895" lon="4.39707">
        <ele>544.29339599609</ele>
        <time>2015-12-20T18:25:32.000Z</time>
      </trkpt>
      <trkpt lat="45.43904" lon="4.39706">
        <ele>541.49810791016</ele>
        <time>2015-12-20T18:25:35.000Z</time>
      </trkpt>
      <trkpt lat="45.43908" lon="4.39714">
        <ele>540.87188720703</ele>
        <time>2015-12-20T18:25:38.000Z</time>
      </trkpt>
      <trkpt lat="45.43913" lon="4.39725">
        <ele>541.73913574219</ele>
        <time>2015-12-20T18:25:41.000Z</time>
      </trkpt>
      <trkpt lat="45.4392" lon="4.3973">
        <ele>542.08520507812</ele>
        <time>2015-12-20T18:25:44.000Z</time>
      </trkpt>
      <trkpt lat="45.43922" lon="4.39742">
        <ele>542.90411376953</ele>
        <time>2015-12-20T18:25:46.000Z</time>
      </trkpt>
      <trkpt lat="45.4393" lon="4.3975">
        <ele>542.42010498047</ele>
        <time>2015-12-20T18:25:49.000Z</time>
      </trkpt>
      <trkpt lat="45.43935" lon="4.39756">
        <ele>542.79815673828</ele>
        <time>2015-12-20T18:25:51.000Z</time>
      </trkpt>
      <trkpt lat="45.43941" lon="4.39757">
        <ele>544.29010009766</ele>
        <time>2015-12-20T18:25:53.000Z</time>
      </trkpt>
      <trkpt lat="45.43947" lon="4.39757">
        <ele>545.50537109375</ele>
        <time>2015-12-20T18:25:56.000Z</time>
      </trkpt>
      <trkpt lat="45.43956" lon="4.3976">
        <ele>542.96166992188</ele>
        <time>2015-12-20T18:25:59.000Z</time>
      </trkpt>
      <trkpt lat="45.43961" lon="4.39767">
        <ele>541.05737304688</ele>
        <time>2015-12-20T18:26:01.000Z</time>
      </trkpt>
      <trkpt lat="45.43964" lon="4.39777">
        <ele>540.47625732422</ele>
        <time>2015-12-20T18:26:04.000Z</time>
      </trkpt>
      <trkpt lat="45.43967" lon="4.39785">
        <ele>541.29290771484</ele>
        <time>2015-12-20T18:26:07.000Z</time>
      </trkpt>
      <trkpt lat="45.43972" lon="4.39793">
        <ele>541.99584960938</ele>
        <time>2015-12-20T18:26:10.000Z</time>
      </trkpt>
      <trkpt lat="45.43977" lon="4.398">
        <ele>540.56860351562</ele>
        <time>2015-12-20T18:26:12.000Z</time>
      </trkpt>
      <trkpt lat="45.43984" lon="4.39813">
        <ele>534.72241210938</ele>
        <time>2015-12-20T18:26:15.000Z</time>
      </trkpt>
      <trkpt lat="45.43988" lon="4.39824">
        <ele>531.98162841797</ele>
        <time>2015-12-20T18:26:18.000Z</time>
      </trkpt>
      <trkpt lat="45.43991" lon="4.39831">
        <ele>532.41918945312</ele>
        <time>2015-12-20T18:26:21.000Z</time>
      </trkpt>
      <trkpt lat="45.43995" lon="4.39845">
        <ele>532.15631103516</ele>
        <time>2015-12-20T18:26:24.000Z</time>
      </trkpt>
      <trkpt lat="45.43996" lon="4.39857">
        <ele>532.46765136719</ele>
        <time>2015-12-20T18:26:27.000Z</time>
      </trkpt>
      <trkpt lat="45.43997" lon="4.39863">
        <ele>533.01770019531</ele>
        <time>2015-12-20T18:26:29.000Z</time>
      </trkpt>
      <trkpt lat="45.43998" lon="4.3987">
        <ele>534.42083740234</ele>
        <time>2015-12-20T18:26:32.000Z</time>
      </trkpt>
      <trkpt lat="45.44" lon="4.39884">
        <ele>536.21258544922</ele>
        <time>2015-12-20T18:26:35.000Z</time>
      </trkpt>
      <trkpt lat="45.44001" lon="4.39895">
        <ele>536.52398681641</ele>
        <time>2015-12-20T18:26:37.000Z</time>
      </trkpt>
      <trkpt lat="45.44002" lon="4.39907">
        <ele>537.04638671875</ele>
        <time>2015-12-20T18:26:40.000Z</time>
      </trkpt>
      <trkpt lat="45.4401" lon="4.39912">
        <ele>538.34466552734</ele>
        <time>2015-12-20T18:26:43.000Z</time>
      </trkpt>
      <trkpt lat="45.44011" lon="4.39922">
        <ele>539.01416015625</ele>
        <time>2015-12-20T18:26:46.000Z</time>
      </trkpt>
      <trkpt lat="45.44012" lon="4.39933">
        <ele>540.47808837891</ele>
        <time>2015-12-20T18:26:49.000Z</time>
      </trkpt>
      <trkpt lat="45.44014" lon="4.39943">
        <ele>542.46209716797</ele>
        <time>2015-12-20T18:26:52.000Z</time>
      </trkpt>
      <trkpt lat="45.44017" lon="4.39946">
        <ele>538.28839111328</ele>
        <time>2015-12-20T18:26:54.000Z</time>
      </trkpt>
      <trkpt lat="45.44018" lon="4.39947">
        <ele>538.60339355469</ele>
        <time>2015-12-20T18:26:56.000Z</time>
      </trkpt>
      <trkpt lat="45.44022" lon="4.39946">
        <ele>543.02416992188</ele>
        <time>2015-12-20T18:26:59.000Z</time>
      </trkpt>
      <trkpt lat="45.44025" lon="4.39944">
        <ele>543.55786132812</ele>
        <time>2015-12-20T18:27:01.000Z</time>
      </trkpt>
      <trkpt lat="45.44031" lon="4.39942">
        <ele>543.52777099609</ele>
        <time>2015-12-20T18:27:04.000Z</time>
      </trkpt>
      <trkpt lat="45.44038" lon="4.39942">
        <ele>542.88677978516</ele>
        <time>2015-12-20T18:27:07.000Z</time>
      </trkpt>
      <trkpt lat="45.44044" lon="4.39941">
        <ele>544.03948974609</ele>
        <time>2015-12-20T18:27:09.000Z</time>
      </trkpt>
      <trkpt lat="45.44051" lon="4.3994">
        <ele>546.46759033203</ele>
        <time>2015-12-20T18:27:12.000Z</time>
      </trkpt>
      <trkpt lat="45.44056" lon="4.39939">
        <ele>543.59069824219</ele>
        <time>2015-12-20T18:27:14.000Z</time>
      </trkpt>
      <trkpt lat="45.44061" lon="4.39938">
        <ele>544.69378662109</ele>
        <time>2015-12-20T18:27:17.000Z</time>
      </trkpt>
      <trkpt lat="45.44071" lon="4.39942">
        <ele>537.55230712891</ele>
        <time>2015-12-20T18:27:20.000Z</time>
      </trkpt>
      <trkpt lat="45.44076" lon="4.39952">
        <ele>533.32537841797</ele>
        <time>2015-12-20T18:27:22.000Z</time>
      </trkpt>
      <trkpt lat="45.44079" lon="4.39965">
        <ele>530.28900146484</ele>
        <time>2015-12-20T18:27:25.000Z</time>
      </trkpt>
      <trkpt lat="45.4408" lon="4.39974">
        <ele>529.79809570312</ele>
        <time>2015-12-20T18:27:27.000Z</time>
      </trkpt>
      <trkpt lat="45.4408" lon="4.39981">
        <ele>529.54412841797</ele>
        <time>2015-12-20T18:27:29.000Z</time>
      </trkpt>
      <trkpt lat="45.44082" lon="4.39992">
        <ele>529.48962402344</ele>
        <time>2015-12-20T18:27:32.000Z</time>
      </trkpt>
      <trkpt lat="45.44085" lon="4.40003">
        <ele>529.07940673828</ele>
        <time>2015-12-20T18:27:35.000Z</time>
      </trkpt>
      <trkpt lat="45.44088" lon="4.40008">
        <ele>529.25543212891</ele>
        <time>2015-12-20T18:27:37.000Z</time>
      </trkpt>
      <trkpt lat="45.4409" lon="4.40015">
        <ele>529.44927978516</ele>
        <time>2015-12-20T18:27:39.000Z</time>
      </trkpt>
      <trkpt lat="45.44093" lon="4.40024">
        <ele>529.89221191406</ele>
        <time>2015-12-20T18:27:42.000Z</time>
      </trkpt>
      <trkpt lat="45.44094" lon="4.40034">
        <ele>530.40502929688</ele>
        <time>2015-12-20T18:27:44.000Z</time>
      </trkpt>
      <trkpt lat="45.44096" lon="4.40042">
        <ele>532.76092529297</ele>
        <time>2015-12-20T18:27:47.000Z</time>
      </trkpt>
      <trkpt lat="45.44099" lon="4.40051">
        <ele>533.49633789062</ele>
        <time>2015-12-20T18:27:49.000Z</time>
      </trkpt>
      <trkpt lat="45.44102" lon="4.40062">
        <ele>534.04058837891</ele>
        <time>2015-12-20T18:27:52.000Z</time>
      </trkpt>
      <trkpt lat="45.44108" lon="4.40076">
        <ele>529.34173583984</ele>
        <time>2015-12-20T18:27:55.000Z</time>
      </trkpt>
      <trkpt lat="45.4411" lon="4.40087">
        <ele>528.48864746094</ele>
        <time>2015-12-20T18:27:58.000Z</time>
      </trkpt>
      <trkpt lat="45.44113" lon="4.40098">
        <ele>528.48919677734</ele>
        <time>2015-12-20T18:28:01.000Z</time>
      </trkpt>
      <trkpt lat="45.44114" lon="4.40106">
        <ele>528.09020996094</ele>
        <time>2015-12-20T18:28:03.000Z</time>
      </trkpt>
      <trkpt lat="45.44115" lon="4.40113">
        <ele>527.99151611328</ele>
        <time>2015-12-20T18:28:05.000Z</time>
      </trkpt>
      <trkpt lat="45.44118" lon="4.40122">
        <ele>528.48870849609</ele>
        <time>2015-12-20T18:28:08.000Z</time>
      </trkpt>
      <trkpt lat="45.44121" lon="4.40128">
        <ele>529.32110595703</ele>
        <time>2015-12-20T18:28:10.000Z</time>
      </trkpt>
      <trkpt lat="45.44123" lon="4.40134">
        <ele>530.29052734375</ele>
        <time>2015-12-20T18:28:12.000Z</time>
      </trkpt>
      <trkpt lat="45.44125" lon="4.40141">
        <ele>530.07604980469</ele>
        <time>2015-12-20T18:28:14.000Z</time>
      </trkpt>
      <trkpt lat="45.44128" lon="4.40151">
        <ele>530.44354248047</ele>
        <time>2015-12-20T18:28:17.000Z</time>
      </trkpt>
      <trkpt lat="45.4413" lon="4.4016">
        <ele>531.17346191406</ele>
        <time>2015-12-20T18:28:20.000Z</time>
      </trkpt>
      <trkpt lat="45.44135" lon="4.40169">
        <ele>531.48571777344</ele>
        <time>2015-12-20T18:28:23.000Z</time>
      </trkpt>
      <trkpt lat="45.44139" lon="4.40179">
        <ele>531.46478271484</ele>
        <time>2015-12-20T18:28:26.000Z</time>
      </trkpt>
      <trkpt lat="45.44144" lon="4.40191">
        <ele>531.00646972656</ele>
        <time>2015-12-20T18:28:29.000Z</time>
      </trkpt>
      <trkpt lat="45.44146" lon="4.40199">
        <ele>530.50494384766</ele>
        <time>2015-12-20T18:28:31.000Z</time>
      </trkpt>
      <trkpt lat="45.4415" lon="4.40212">
        <ele>528.34826660156</ele>
        <time>2015-12-20T18:28:34.000Z</time>
      </trkpt>
      <trkpt lat="45.44154" lon="4.40222">
        <ele>527.39019775391</ele>
        <time>2015-12-20T18:28:37.000Z</time>
      </trkpt>
      <trkpt lat="45.44161" lon="4.40236">
        <ele>524.04541015625</ele>
        <time>2015-12-20T18:28:40.000Z</time>
      </trkpt>
      <trkpt lat="45.44162" lon="4.40243">
        <ele>524.35217285156</ele>
        <time>2015-12-20T18:28:42.000Z</time>
      </trkpt>
      <trkpt lat="45.44165" lon="4.40256">
        <ele>523.20751953125</ele>
        <time>2015-12-20T18:28:45.000Z</time>
      </trkpt>
      <trkpt lat="45.44166" lon="4.40263">
        <ele>523.32604980469</ele>
        <time>2015-12-20T18:28:47.000Z</time>
      </trkpt>
      <trkpt lat="45.44168" lon="4.4027">
        <ele>523.83801269531</ele>
        <time>2015-12-20T18:28:49.000Z</time>
      </trkpt>
      <trkpt lat="45.4417" lon="4.40278">
        <ele>523.17022705078</ele>
        <time>2015-12-20T18:28:51.000Z</time>
      </trkpt>
      <trkpt lat="45.44172" lon="4.40285">
        <ele>522.97723388672</ele>
        <time>2015-12-20T18:28:53.000Z</time>
      </trkpt>
      <trkpt lat="45.44174" lon="4.40293">
        <ele>522.55181884766</ele>
        <time>2015-12-20T18:28:55.000Z</time>
      </trkpt>
      <trkpt lat="45.44176" lon="4.40299">
        <ele>522.45880126953</ele>
        <time>2015-12-20T18:28:57.000Z</time>
      </trkpt>
      <trkpt lat="45.4418" lon="4.40308">
        <ele>522.99377441406</ele>
        <time>2015-12-20T18:29:00.000Z</time>
      </trkpt>
      <trkpt lat="45.44186" lon="4.40311">
        <ele>521.89581298828</ele>
        <time>2015-12-20T18:29:02.000Z</time>
      </trkpt>
      <trkpt lat="45.44193" lon="4.40312">
        <ele>523.40618896484</ele>
        <time>2015-12-20T18:29:05.000Z</time>
      </trkpt>
      <trkpt lat="45.442" lon="4.40306">
        <ele>524.79119873047</ele>
        <time>2015-12-20T18:29:08.000Z</time>
      </trkpt>
      <trkpt lat="45.44202" lon="4.40298">
        <ele>523.01416015625</ele>
        <time>2015-12-20T18:29:10.000Z</time>
      </trkpt>
      <trkpt lat="45.44204" lon="4.40288">
        <ele>520.21606445312</ele>
        <time>2015-12-20T18:29:13.000Z</time>
      </trkpt>
      <trkpt lat="45.44207" lon="4.40277">
        <ele>517.89404296875</ele>
        <time>2015-12-20T18:29:16.000Z</time>
      </trkpt>
      <trkpt lat="45.44208" lon="4.4027">
        <ele>516.23175048828</ele>
        <time>2015-12-20T18:29:18.000Z</time>
      </trkpt>
      <trkpt lat="45.44211" lon="4.40261">
        <ele>514.26837158203</ele>
        <time>2015-12-20T18:29:20.000Z</time>
      </trkpt>
      <trkpt lat="45.44213" lon="4.40249">
        <ele>513.31683349609</ele>
        <time>2015-12-20T18:29:23.000Z</time>
      </trkpt>
      <trkpt lat="45.44214" lon="4.40239">
        <ele>512.82238769531</ele>
        <time>2015-12-20T18:29:26.000Z</time>
      </trkpt>
      <trkpt lat="45.44216" lon="4.40229">
        <ele>512.17352294922</ele>
        <time>2015-12-20T18:29:29.000Z</time>
      </trkpt>
      <trkpt lat="45.44217" lon="4.40222">
        <ele>511.9365234375</ele>
        <time>2015-12-20T18:29:31.000Z</time>
      </trkpt>
      <trkpt lat="45.4422" lon="4.40211">
        <ele>511.89251708984</ele>
        <time>2015-12-20T18:29:34.000Z</time>
      </trkpt>
      <trkpt lat="45.44221" lon="4.40199">
        <ele>512.34069824219</ele>
        <time>2015-12-20T18:29:37.000Z</time>
      </trkpt>
      <trkpt lat="45.44224" lon="4.4019">
        <ele>513.1513671875</ele>
        <time>2015-12-20T18:29:40.000Z</time>
      </trkpt>
      <trkpt lat="45.44226" lon="4.40182">
        <ele>513.08520507812</ele>
        <time>2015-12-20T18:29:42.000Z</time>
      </trkpt>
      <trkpt lat="45.44228" lon="4.40174">
        <ele>512.62322998047</ele>
        <time>2015-12-20T18:29:44.000Z</time>
      </trkpt>
      <trkpt lat="45.4423" lon="4.40162">
        <ele>511.64044189453</ele>
        <time>2015-12-20T18:29:47.000Z</time>
      </trkpt>
      <trkpt lat="45.44231" lon="4.40151">
        <ele>510.20095825195</ele>
        <time>2015-12-20T18:29:50.000Z</time>
      </trkpt>
      <trkpt lat="45.4423" lon="4.40143">
        <ele>508.52633666992</ele>
        <time>2015-12-20T18:29:52.000Z</time>
      </trkpt>
      <trkpt lat="45.44231" lon="4.40135">
        <ele>509.39822387695</ele>
        <time>2015-12-20T18:29:55.000Z</time>
      </trkpt>
      <trkpt lat="45.44231" lon="4.40132">
        <ele>510.23403930664</ele>
        <time>2015-12-20T18:29:57.000Z</time>
      </trkpt>
      <trkpt lat="45.4423" lon="4.40124">
        <ele>512.03912353516</ele>
        <time>2015-12-20T18:30:00.000Z</time>
      </trkpt>
      <trkpt lat="45.44228" lon="4.40118">
        <ele>512.50903320312</ele>
        <time>2015-12-20T18:30:02.000Z</time>
      </trkpt>
      <trkpt lat="45.44226" lon="4.40115">
        <ele>513.56390380859</ele>
        <time>2015-12-20T18:30:04.000Z</time>
      </trkpt>
      <trkpt lat="45.44226" lon="4.40106">
        <ele>515.05865478516</ele>
        <time>2015-12-20T18:30:06.000Z</time>
      </trkpt>
      <trkpt lat="45.44228" lon="4.40095">
        <ele>514.53631591797</ele>
        <time>2015-12-20T18:30:08.000Z</time>
      </trkpt>
      <trkpt lat="45.44231" lon="4.40081">
        <ele>513.83465576172</ele>
        <time>2015-12-20T18:30:11.000Z</time>
      </trkpt>
      <trkpt lat="45.44235" lon="4.40069">
        <ele>513.73211669922</ele>
        <time>2015-12-20T18:30:14.000Z</time>
      </trkpt>
      <trkpt lat="45.44238" lon="4.40064">
        <ele>515.10235595703</ele>
        <time>2015-12-20T18:30:16.000Z</time>
      </trkpt>
      <trkpt lat="45.44245" lon="4.40047">
        <ele>512.646484375</ele>
        <time>2015-12-20T18:30:19.000Z</time>
      </trkpt>
      <trkpt lat="45.44247" lon="4.40041">
        <ele>512.03399658203</ele>
        <time>2015-12-20T18:30:21.000Z</time>
      </trkpt>
      <trkpt lat="45.44248" lon="4.40033">
        <ele>512.44750976562</ele>
        <time>2015-12-20T18:30:24.000Z</time>
      </trkpt>
      <trkpt lat="45.44249" lon="4.40024">
        <ele>512.45257568359</ele>
        <time>2015-12-20T18:30:27.000Z</time>
      </trkpt>
      <trkpt lat="45.44251" lon="4.40016">
        <ele>512.47064208984</ele>
        <time>2015-12-20T18:30:29.000Z</time>
      </trkpt>
      <trkpt lat="45.44253" lon="4.40005">
        <ele>513.33319091797</ele>
        <time>2015-12-20T18:30:32.000Z</time>
      </trkpt>
      <trkpt lat="45.44255" lon="4.39994">
        <ele>513.07415771484</ele>
        <time>2015-12-20T18:30:35.000Z</time>
      </trkpt>
      <trkpt lat="45.44257" lon="4.39986">
        <ele>511.79010009766</ele>
        <time>2015-12-20T18:30:37.000Z</time>
      </trkpt>
      <trkpt lat="45.4426" lon="4.39977">
        <ele>510.458984375</ele>
        <time>2015-12-20T18:30:39.000Z</time>
      </trkpt>
      <trkpt lat="45.44263" lon="4.39967">
        <ele>509.98870849609</ele>
        <time>2015-12-20T18:30:42.000Z</time>
      </trkpt>
      <trkpt lat="45.44267" lon="4.39957">
        <ele>510.23709106445</ele>
        <time>2015-12-20T18:30:45.000Z</time>
      </trkpt>
      <trkpt lat="45.44267" lon="4.39946">
        <ele>510.89892578125</ele>
        <time>2015-12-20T18:30:48.000Z</time>
      </trkpt>
      <trkpt lat="45.44268" lon="4.39933">
        <ele>511.46655273438</ele>
        <time>2015-12-20T18:30:51.000Z</time>
      </trkpt>
      <trkpt lat="45.44269" lon="4.39926">
        <ele>511.99765014648</ele>
        <time>2015-12-20T18:30:53.000Z</time>
      </trkpt>
      <trkpt lat="45.44271" lon="4.39913">
        <ele>512.06970214844</ele>
        <time>2015-12-20T18:30:56.000Z</time>
      </trkpt>
      <trkpt lat="45.44273" lon="4.39902">
        <ele>512.224609375</ele>
        <time>2015-12-20T18:30:59.000Z</time>
      </trkpt>
      <trkpt lat="45.44275" lon="4.39894">
        <ele>512.41802978516</ele>
        <time>2015-12-20T18:31:01.000Z</time>
      </trkpt>
      <trkpt lat="45.44277" lon="4.39882">
        <ele>512.46752929688</ele>
        <time>2015-12-20T18:31:04.000Z</time>
      </trkpt>
      <trkpt lat="45.44279" lon="4.39871">
        <ele>512.08447265625</ele>
        <time>2015-12-20T18:31:07.000Z</time>
      </trkpt>
      <trkpt lat="45.44282" lon="4.3986">
        <ele>511.48153686523</ele>
        <time>2015-12-20T18:31:10.000Z</time>
      </trkpt>
      <trkpt lat="45.44283" lon="4.39854">
        <ele>511.44934082031</ele>
        <time>2015-12-20T18:31:12.000Z</time>
      </trkpt>
      <trkpt lat="45.44284" lon="4.39844">
        <ele>512.43560791016</ele>
        <time>2015-12-20T18:31:15.000Z</time>
      </trkpt>
      <trkpt lat="45.44285" lon="4.39831">
        <ele>512.59320068359</ele>
        <time>2015-12-20T18:31:18.000Z</time>
      </trkpt>
      <trkpt lat="45.44286" lon="4.3982">
        <ele>512.12652587891</ele>
        <time>2015-12-20T18:31:21.000Z</time>
      </trkpt>
      <trkpt lat="45.44289" lon="4.39812">
        <ele>510.50396728516</ele>
        <time>2015-12-20T18:31:23.000Z</time>
      </trkpt>
      <trkpt lat="45.44291" lon="4.398">
        <ele>510.02825927734</ele>
        <time>2015-12-20T18:31:26.000Z</time>
      </trkpt>
      <trkpt lat="45.44292" lon="4.3979">
        <ele>510.31939697266</ele>
        <time>2015-12-20T18:31:29.000Z</time>
      </trkpt>
      <trkpt lat="45.44292" lon="4.39783">
        <ele>510.33139038086</ele>
        <time>2015-12-20T18:31:31.000Z</time>
      </trkpt>
      <trkpt lat="45.44293" lon="4.39775">
        <ele>510.86401367188</ele>
        <time>2015-12-20T18:31:34.000Z</time>
      </trkpt>
      <trkpt lat="45.44294" lon="4.39768">
        <ele>511.38473510742</ele>
        <time>2015-12-20T18:31:36.000Z</time>
      </trkpt>
      <trkpt lat="45.44295" lon="4.3976">
        <ele>511.81097412109</ele>
        <time>2015-12-20T18:31:38.000Z</time>
      </trkpt>
      <trkpt lat="45.44296" lon="4.39749">
        <ele>511.61135864258</ele>
        <time>2015-12-20T18:31:41.000Z</time>
      </trkpt>
      <trkpt lat="45.44299" lon="4.39741">
        <ele>513.27197265625</ele>
        <time>2015-12-20T18:31:44.000Z</time>
      </trkpt>
      <trkpt lat="45.443" lon="4.39735">
        <ele>513.13409423828</ele>
        <time>2015-12-20T18:31:46.000Z</time>
      </trkpt>
      <trkpt lat="45.44306" lon="4.39724">
        <ele>511.20040893555</ele>
        <time>2015-12-20T18:31:49.000Z</time>
      </trkpt>
      <trkpt lat="45.44314" lon="4.39717">
        <ele>509.01718139648</ele>
        <time>2015-12-20T18:31:52.000Z</time>
      </trkpt>
      <trkpt lat="45.44319" lon="4.39713">
        <ele>508.52182006836</ele>
        <time>2015-12-20T18:31:54.000Z</time>
      </trkpt>
      <trkpt lat="45.44324" lon="4.39708">
        <ele>507.08935546875</ele>
        <time>2015-12-20T18:31:56.000Z</time>
      </trkpt>
      <trkpt lat="45.44332" lon="4.39702">
        <ele>507.14471435547</ele>
        <time>2015-12-20T18:31:59.000Z</time>
      </trkpt>
      <trkpt lat="45.44337" lon="4.39699">
        <ele>507.52062988281</ele>
        <time>2015-12-20T18:32:01.000Z</time>
      </trkpt>
      <trkpt lat="45.44341" lon="4.39695">
        <ele>507.53170776367</ele>
        <time>2015-12-20T18:32:03.000Z</time>
      </trkpt>
      <trkpt lat="45.44349" lon="4.3969">
        <ele>507.52618408203</ele>
        <time>2015-12-20T18:32:06.000Z</time>
      </trkpt>
      <trkpt lat="45.44354" lon="4.39688">
        <ele>508.0553894043</ele>
        <time>2015-12-20T18:32:08.000Z</time>
      </trkpt>
      <trkpt lat="45.44358" lon="4.39687">
        <ele>508.50082397461</ele>
        <time>2015-12-20T18:32:10.000Z</time>
      </trkpt>
      <trkpt lat="45.44366" lon="4.39685">
        <ele>510.21032714844</ele>
        <time>2015-12-20T18:32:13.000Z</time>
      </trkpt>
      <trkpt lat="45.44371" lon="4.39686">
        <ele>510.62197875977</ele>
        <time>2015-12-20T18:32:15.000Z</time>
      </trkpt>
      <trkpt lat="45.44376" lon="4.39688">
        <ele>510.08557128906</ele>
        <time>2015-12-20T18:32:18.000Z</time>
      </trkpt>
      <trkpt lat="45.44381" lon="4.39692">
        <ele>510.6640625</ele>
        <time>2015-12-20T18:32:20.000Z</time>
      </trkpt>
      <trkpt lat="45.44386" lon="4.39698">
        <ele>515.34466552734</ele>
        <time>2015-12-20T18:32:23.000Z</time>
      </trkpt>
      <trkpt lat="45.44392" lon="4.39706">
        <ele>518.35504150391</ele>
        <time>2015-12-20T18:32:26.000Z</time>
      </trkpt>
      <trkpt lat="45.44398" lon="4.39713">
        <ele>520.21655273438</ele>
        <time>2015-12-20T18:32:29.000Z</time>
      </trkpt>
      <trkpt lat="45.444" lon="4.39716">
        <ele>521.40856933594</ele>
        <time>2015-12-20T18:32:31.000Z</time>
      </trkpt>
      <trkpt lat="45.44403" lon="4.39719">
        <ele>522.27008056641</ele>
        <time>2015-12-20T18:32:34.000Z</time>
      </trkpt>
      <trkpt lat="45.44405" lon="4.39721">
        <ele>522.22161865234</ele>
        <time>2015-12-20T18:32:36.000Z</time>
      </trkpt>
      <trkpt lat="45.44402" lon="4.3972">
        <ele>522.58935546875</ele>
        <time>2015-12-20T18:32:39.000Z</time>
      </trkpt>
      <trkpt lat="45.44436" lon="4.39738">
        <ele>518.14581298828</ele>
        <time>2015-12-20T18:32:45.000Z</time>
      </trkpt>
      <trkpt lat="45.44441" lon="4.39733">
        <ele>515.69897460938</ele>
        <time>2015-12-20T18:32:48.000Z</time>
      </trkpt>
      <trkpt lat="45.44445" lon="4.39728">
        <ele>513.87719726562</ele>
        <time>2015-12-20T18:32:50.000Z</time>
      </trkpt>
      <trkpt lat="45.44449" lon="4.39722">
        <ele>512.99108886719</ele>
        <time>2015-12-20T18:32:52.000Z</time>
      </trkpt>
      <trkpt lat="45.44453" lon="4.39711">
        <ele>513.22241210938</ele>
        <time>2015-12-20T18:32:55.000Z</time>
      </trkpt>
      <trkpt lat="45.44456" lon="4.39704">
        <ele>514.48577880859</ele>
        <time>2015-12-20T18:32:58.000Z</time>
      </trkpt>
      <trkpt lat="45.44458" lon="4.397">
        <ele>515.03643798828</ele>
        <time>2015-12-20T18:33:00.000Z</time>
      </trkpt>
      <trkpt lat="45.4446" lon="4.39693">
        <ele>515.19305419922</ele>
        <time>2015-12-20T18:33:02.000Z</time>
      </trkpt>
      <trkpt lat="45.44465" lon="4.3968">
        <ele>511.07608032227</ele>
        <time>2015-12-20T18:33:05.000Z</time>
      </trkpt>
      <trkpt lat="45.44468" lon="4.39672">
        <ele>509.63925170898</ele>
        <time>2015-12-20T18:33:07.000Z</time>
      </trkpt>
      <trkpt lat="45.44473" lon="4.39665">
        <ele>510.49203491211</ele>
        <time>2015-12-20T18:33:10.000Z</time>
      </trkpt>
      <trkpt lat="45.44476" lon="4.3966">
        <ele>509.66464233398</ele>
        <time>2015-12-20T18:33:12.000Z</time>
      </trkpt>
      <trkpt lat="45.44479" lon="4.39654">
        <ele>509.01226806641</ele>
        <time>2015-12-20T18:33:14.000Z</time>
      </trkpt>
      <trkpt lat="45.44484" lon="4.39643">
        <ele>506.53958129883</ele>
        <time>2015-12-20T18:33:17.000Z</time>
      </trkpt>
      <trkpt lat="45.44489" lon="4.39635">
        <ele>505.51953125</ele>
        <time>2015-12-20T18:33:20.000Z</time>
      </trkpt>
      <trkpt lat="45.44492" lon="4.3963">
        <ele>506.31564331055</ele>
        <time>2015-12-20T18:33:22.000Z</time>
      </trkpt>
      <trkpt lat="45.44497" lon="4.39622">
        <ele>504.58773803711</ele>
        <time>2015-12-20T18:33:25.000Z</time>
      </trkpt>
      <trkpt lat="45.44502" lon="4.39616">
        <ele>506.5065612793</ele>
        <time>2015-12-20T18:33:28.000Z</time>
      </trkpt>
      <trkpt lat="45.44505" lon="4.39611">
        <ele>507.36810302734</ele>
        <time>2015-12-20T18:33:30.000Z</time>
      </trkpt>
      <trkpt lat="45.44509" lon="4.39604">
        <ele>509.10168457031</ele>
        <time>2015-12-20T18:33:33.000Z</time>
      </trkpt>
      <trkpt lat="45.44512" lon="4.396">
        <ele>510.41204833984</ele>
        <time>2015-12-20T18:33:35.000Z</time>
      </trkpt>
      <trkpt lat="45.44515" lon="4.39595">
        <ele>510.53695678711</ele>
        <time>2015-12-20T18:33:37.000Z</time>
      </trkpt>
      <trkpt lat="45.44521" lon="4.39588">
        <ele>511.38821411133</ele>
        <time>2015-12-20T18:33:40.000Z</time>
      </trkpt>
      <trkpt lat="45.44525" lon="4.39581">
        <ele>511.92828369141</ele>
        <time>2015-12-20T18:33:43.000Z</time>
      </trkpt>
      <trkpt lat="45.4453" lon="4.39572">
        <ele>510.60134887695</ele>
        <time>2015-12-20T18:33:45.000Z</time>
      </trkpt>
      <trkpt lat="45.44535" lon="4.39565">
        <ele>508.59103393555</ele>
        <time>2015-12-20T18:33:47.000Z</time>
      </trkpt>
      <trkpt lat="45.44539" lon="4.3956">
        <ele>507.62554931641</ele>
        <time>2015-12-20T18:33:49.000Z</time>
      </trkpt>
      <trkpt lat="45.44545" lon="4.39551">
        <ele>506.50863647461</ele>
        <time>2015-12-20T18:33:52.000Z</time>
      </trkpt>
      <trkpt lat="45.4455" lon="4.39544">
        <ele>507.00518798828</ele>
        <time>2015-12-20T18:33:55.000Z</time>
      </trkpt>
      <trkpt lat="45.44555" lon="4.39538">
        <ele>507.53970336914</ele>
        <time>2015-12-20T18:33:58.000Z</time>
      </trkpt>
      <trkpt lat="45.44559" lon="4.39531">
        <ele>507.74728393555</ele>
        <time>2015-12-20T18:34:01.000Z</time>
      </trkpt>
      <trkpt lat="45.44563" lon="4.39526">
        <ele>507.17623901367</ele>
        <time>2015-12-20T18:34:03.000Z</time>
      </trkpt>
      <trkpt lat="45.44569" lon="4.39519">
        <ele>506.50909423828</ele>
        <time>2015-12-20T18:34:06.000Z</time>
      </trkpt>
      <trkpt lat="45.44572" lon="4.39513">
        <ele>506.14163208008</ele>
        <time>2015-12-20T18:34:08.000Z</time>
      </trkpt>
      <trkpt lat="45.44579" lon="4.39505">
        <ele>503.90325927734</ele>
        <time>2015-12-20T18:34:11.000Z</time>
      </trkpt>
      <trkpt lat="45.4458" lon="4.39502">
        <ele>504.18154907227</ele>
        <time>2015-12-20T18:34:13.000Z</time>
      </trkpt>
      <trkpt lat="45.44585" lon="4.39492">
        <ele>503.15438842773</ele>
        <time>2015-12-20T18:34:16.000Z</time>
      </trkpt>
      <trkpt lat="45.44589" lon="4.39486">
        <ele>503.29354858398</ele>
        <time>2015-12-20T18:34:18.000Z</time>
      </trkpt>
      <trkpt lat="45.44593" lon="4.39479">
        <ele>504.39050292969</ele>
        <time>2015-12-20T18:34:21.000Z</time>
      </trkpt>
      <trkpt lat="45.44597" lon="4.39474">
        <ele>503.79409790039</ele>
        <time>2015-12-20T18:34:23.000Z</time>
      </trkpt>
      <trkpt lat="45.44602" lon="4.39466">
        <ele>503.28396606445</ele>
        <time>2015-12-20T18:34:26.000Z</time>
      </trkpt>
      <trkpt lat="45.44607" lon="4.39459">
        <ele>503.52462768555</ele>
        <time>2015-12-20T18:34:29.000Z</time>
      </trkpt>
      <trkpt lat="45.44611" lon="4.39453">
        <ele>503.53219604492</ele>
        <time>2015-12-20T18:34:31.000Z</time>
      </trkpt>
      <trkpt lat="45.44616" lon="4.39442">
        <ele>503.48452758789</ele>
        <time>2015-12-20T18:34:34.000Z</time>
      </trkpt>
      <trkpt lat="45.44619" lon="4.39437">
        <ele>503.43225097656</ele>
        <time>2015-12-20T18:34:36.000Z</time>
      </trkpt>
      <trkpt lat="45.44625" lon="4.3943">
        <ele>502.43383789062</ele>
        <time>2015-12-20T18:34:39.000Z</time>
      </trkpt>
      <trkpt lat="45.44628" lon="4.39427">
        <ele>501.69815063477</ele>
        <time>2015-12-20T18:34:41.000Z</time>
      </trkpt>
      <trkpt lat="45.44634" lon="4.39424">
        <ele>502.2197265625</ele>
        <time>2015-12-20T18:34:44.000Z</time>
      </trkpt>
      <trkpt lat="45.44637" lon="4.39422">
        <ele>504.59680175781</ele>
        <time>2015-12-20T18:34:46.000Z</time>
      </trkpt>
      <trkpt lat="45.44642" lon="4.39423">
        <ele>508.36575317383</ele>
        <time>2015-12-20T18:34:49.000Z</time>
      </trkpt>
      <trkpt lat="45.44646" lon="4.39419">
        <ele>508.3581237793</ele>
        <time>2015-12-20T18:34:51.000Z</time>
      </trkpt>
      <trkpt lat="45.44653" lon="4.39412">
        <ele>510.14636230469</ele>
        <time>2015-12-20T18:34:55.000Z</time>
      </trkpt>
      <trkpt lat="45.44657" lon="4.39409">
        <ele>512.17205810547</ele>
        <time>2015-12-20T18:34:57.000Z</time>
      </trkpt>
      <trkpt lat="45.44665" lon="4.39397">
        <ele>510.88818359375</ele>
        <time>2015-12-20T18:35:00.000Z</time>
      </trkpt>
      <trkpt lat="45.44671" lon="4.39392">
        <ele>508.59100341797</ele>
        <time>2015-12-20T18:35:02.000Z</time>
      </trkpt>
      <trkpt lat="45.44678" lon="4.39382">
        <ele>506.01159667969</ele>
        <time>2015-12-20T18:35:05.000Z</time>
      </trkpt>
      <trkpt lat="45.44682" lon="4.39374">
        <ele>504.78256225586</ele>
        <time>2015-12-20T18:35:07.000Z</time>
      </trkpt>
      <trkpt lat="45.44686" lon="4.39371">
        <ele>505.58572387695</ele>
        <time>2015-12-20T18:35:09.000Z</time>
      </trkpt>
      <trkpt lat="45.4469" lon="4.39366">
        <ele>504.93716430664</ele>
        <time>2015-12-20T18:35:11.000Z</time>
      </trkpt>
      <trkpt lat="45.44698" lon="4.39359">
        <ele>502.17449951172</ele>
        <time>2015-12-20T18:35:14.000Z</time>
      </trkpt>
      <trkpt lat="45.44704" lon="4.39355">
        <ele>501.12188720703</ele>
        <time>2015-12-20T18:35:17.000Z</time>
      </trkpt>
      <trkpt lat="45.44707" lon="4.39351">
        <ele>501.69094848633</ele>
        <time>2015-12-20T18:35:19.000Z</time>
      </trkpt>
      <trkpt lat="45.4471" lon="4.39346">
        <ele>502.31307983398</ele>
        <time>2015-12-20T18:35:21.000Z</time>
      </trkpt>
      <trkpt lat="45.44714" lon="4.39336">
        <ele>500.79208374023</ele>
        <time>2015-12-20T18:35:24.000Z</time>
      </trkpt>
      <trkpt lat="45.44717" lon="4.39329">
        <ele>501.28845214844</ele>
        <time>2015-12-20T18:35:26.000Z</time>
      </trkpt>
      <trkpt lat="45.4472" lon="4.39318">
        <ele>500.34072875977</ele>
        <time>2015-12-20T18:35:29.000Z</time>
      </trkpt>
      <trkpt lat="45.44724" lon="4.39313">
        <ele>499.59649658203</ele>
        <time>2015-12-20T18:35:31.000Z</time>
      </trkpt>
      <trkpt lat="45.44732" lon="4.39307">
        <ele>500.40280151367</ele>
        <time>2015-12-20T18:35:34.000Z</time>
      </trkpt>
      <trkpt lat="45.44737" lon="4.39304">
        <ele>501.94403076172</ele>
        <time>2015-12-20T18:35:37.000Z</time>
      </trkpt>
      <trkpt lat="45.44742" lon="4.39298">
        <ele>502.20025634766</ele>
        <time>2015-12-20T18:35:40.000Z</time>
      </trkpt>
      <trkpt lat="45.44747" lon="4.39293">
        <ele>501.62567138672</ele>
        <time>2015-12-20T18:35:42.000Z</time>
      </trkpt>
      <trkpt lat="45.44759" lon="4.39284">
        <ele>493.96957397461</ele>
        <time>2015-12-20T18:35:45.000Z</time>
      </trkpt>
      <trkpt lat="45.44764" lon="4.39277">
        <ele>491.72143554688</ele>
        <time>2015-12-20T18:35:47.000Z</time>
      </trkpt>
      <trkpt lat="45.44771" lon="4.39262">
        <ele>488.06799316406</ele>
        <time>2015-12-20T18:35:50.000Z</time>
      </trkpt>
      <trkpt lat="45.44772" lon="4.39261">
        <ele>488.89105224609</ele>
        <time>2015-12-20T18:35:52.000Z</time>
      </trkpt>
      <trkpt lat="45.44774" lon="4.39258">
        <ele>492.13293457031</ele>
        <time>2015-12-20T18:35:55.000Z</time>
      </trkpt>
      <trkpt lat="45.4478" lon="4.39252">
        <ele>493.60247802734</ele>
        <time>2015-12-20T18:35:58.000Z</time>
      </trkpt>
      <trkpt lat="45.44783" lon="4.39247">
        <ele>493.18405151367</ele>
        <time>2015-12-20T18:36:00.000Z</time>
      </trkpt>
      <trkpt lat="45.44786" lon="4.39239">
        <ele>492.34939575195</ele>
        <time>2015-12-20T18:36:03.000Z</time>
      </trkpt>
      <trkpt lat="45.4479" lon="4.39234">
        <ele>492.51864624023</ele>
        <time>2015-12-20T18:36:05.000Z</time>
      </trkpt>
      <trkpt lat="45.44795" lon="4.39226">
        <ele>491.53628540039</ele>
        <time>2015-12-20T18:36:08.000Z</time>
      </trkpt>
      <trkpt lat="45.448" lon="4.39219">
        <ele>491.51715087891</ele>
        <time>2015-12-20T18:36:11.000Z</time>
      </trkpt>
      <trkpt lat="45.44804" lon="4.39215">
        <ele>491.52362060547</ele>
        <time>2015-12-20T18:36:13.000Z</time>
      </trkpt>
      <trkpt lat="45.44809" lon="4.3921">
        <ele>492.02404785156</ele>
        <time>2015-12-20T18:36:16.000Z</time>
      </trkpt>
      <trkpt lat="45.44812" lon="4.39204">
        <ele>496.48046875</ele>
        <time>2015-12-20T18:36:19.000Z</time>
      </trkpt>
      <trkpt lat="45.44817" lon="4.39198">
        <ele>498.50677490234</ele>
        <time>2015-12-20T18:36:22.000Z</time>
      </trkpt>
      <trkpt lat="45.44821" lon="4.39193">
        <ele>497.14224243164</ele>
        <time>2015-12-20T18:36:24.000Z</time>
      </trkpt>
      <trkpt lat="45.44826" lon="4.39187">
        <ele>497.81942749023</ele>
        <time>2015-12-20T18:36:27.000Z</time>
      </trkpt>
      <trkpt lat="45.4483" lon="4.39182">
        <ele>500.31237792969</ele>
        <time>2015-12-20T18:36:30.000Z</time>
      </trkpt>
      <trkpt lat="45.44833" lon="4.39178">
        <ele>501.37130737305</ele>
        <time>2015-12-20T18:36:32.000Z</time>
      </trkpt>
      <trkpt lat="45.44839" lon="4.39171">
        <ele>501.53704833984</ele>
        <time>2015-12-20T18:36:35.000Z</time>
      </trkpt>
      <trkpt lat="45.44843" lon="4.39165">
        <ele>502.92568969727</ele>
        <time>2015-12-20T18:36:37.000Z</time>
      </trkpt>
      <trkpt lat="45.44847" lon="4.39158">
        <ele>504.97619628906</ele>
        <time>2015-12-20T18:36:40.000Z</time>
      </trkpt>
      <trkpt lat="45.44854" lon="4.3915">
        <ele>503.01498413086</ele>
        <time>2015-12-20T18:36:43.000Z</time>
      </trkpt>
      <trkpt lat="45.4486" lon="4.39144">
        <ele>500.68103027344</ele>
        <time>2015-12-20T18:36:45.000Z</time>
      </trkpt>
      <trkpt lat="45.44864" lon="4.39141">
        <ele>500.16232299805</ele>
        <time>2015-12-20T18:36:47.000Z</time>
      </trkpt>
      <trkpt lat="45.44865" lon="4.39138">
        <ele>501.54934692383</ele>
        <time>2015-12-20T18:36:49.000Z</time>
      </trkpt>
      <trkpt lat="45.44866" lon="4.3913">
        <ele>502.17990112305</ele>
        <time>2015-12-20T18:36:52.000Z</time>
      </trkpt>
      <trkpt lat="45.44866" lon="4.3912">
        <ele>503.10971069336</ele>
        <time>2015-12-20T18:36:55.000Z</time>
      </trkpt>
      <trkpt lat="45.44867" lon="4.39106">
        <ele>499.93621826172</ele>
        <time>2015-12-20T18:36:58.000Z</time>
      </trkpt>
      <trkpt lat="45.4487" lon="4.39099">
        <ele>496.49096679688</ele>
        <time>2015-12-20T18:37:00.000Z</time>
      </trkpt>
      <trkpt lat="45.44868" lon="4.39093">
        <ele>497.04214477539</ele>
        <time>2015-12-20T18:37:03.000Z</time>
      </trkpt>
      <trkpt lat="45.44865" lon="4.39089">
        <ele>498.37850952148</ele>
        <time>2015-12-20T18:37:05.000Z</time>
      </trkpt>
      <trkpt lat="45.44861" lon="4.39082">
        <ele>499.36544799805</ele>
        <time>2015-12-20T18:37:08.000Z</time>
      </trkpt>
      <trkpt lat="45.44859" lon="4.39074">
        <ele>500.19732666016</ele>
        <time>2015-12-20T18:37:11.000Z</time>
      </trkpt>
      <trkpt lat="45.44859" lon="4.39068">
        <ele>500.67831420898</ele>
        <time>2015-12-20T18:37:13.000Z</time>
      </trkpt>
      <trkpt lat="45.44857" lon="4.39058">
        <ele>500.41159057617</ele>
        <time>2015-12-20T18:37:16.000Z</time>
      </trkpt>
      <trkpt lat="45.44855" lon="4.39052">
        <ele>500.89205932617</ele>
        <time>2015-12-20T18:37:18.000Z</time>
      </trkpt>
      <trkpt lat="45.44853" lon="4.39043">
        <ele>501.29620361328</ele>
        <time>2015-12-20T18:37:21.000Z</time>
      </trkpt>
      <trkpt lat="45.44851" lon="4.39037">
        <ele>500.10559082031</ele>
        <time>2015-12-20T18:37:23.000Z</time>
      </trkpt>
      <trkpt lat="45.44849" lon="4.39029">
        <ele>500.65744018555</ele>
        <time>2015-12-20T18:37:26.000Z</time>
      </trkpt>
      <trkpt lat="45.44846" lon="4.39024">
        <ele>501.52038574219</ele>
        <time>2015-12-20T18:37:28.000Z</time>
      </trkpt>
      <trkpt lat="45.44844" lon="4.39018">
        <ele>500.57061767578</ele>
        <time>2015-12-20T18:37:31.000Z</time>
      </trkpt>
      <trkpt lat="45.44841" lon="4.39013">
        <ele>500.12561035156</ele>
        <time>2015-12-20T18:37:33.000Z</time>
      </trkpt>
      <trkpt lat="45.4484" lon="4.39004">
        <ele>498.90975952148</ele>
        <time>2015-12-20T18:37:35.000Z</time>
      </trkpt>
      <trkpt lat="45.44838" lon="4.38993">
        <ele>496.65612792969</ele>
        <time>2015-12-20T18:37:38.000Z</time>
      </trkpt>
      <trkpt lat="45.44835" lon="4.38983">
        <ele>496.11502075195</ele>
        <time>2015-12-20T18:37:41.000Z</time>
      </trkpt>
      <trkpt lat="45.44835" lon="4.38978">
        <ele>497.8955078125</ele>
        <time>2015-12-20T18:37:44.000Z</time>
      </trkpt>
      <trkpt lat="45.44833" lon="4.3897">
        <ele>499.15676879883</ele>
        <time>2015-12-20T18:37:47.000Z</time>
      </trkpt>
      <trkpt lat="45.44831" lon="4.38965">
        <ele>499.95803833008</ele>
        <time>2015-12-20T18:37:49.000Z</time>
      </trkpt>
      <trkpt lat="45.44828" lon="4.38955">
        <ele>500.55880737305</ele>
        <time>2015-12-20T18:37:52.000Z</time>
      </trkpt>
      <trkpt lat="45.44827" lon="4.38949">
        <ele>500.52334594727</ele>
        <time>2015-12-20T18:37:54.000Z</time>
      </trkpt>
      <trkpt lat="45.44825" lon="4.38942">
        <ele>500.96585083008</ele>
        <time>2015-12-20T18:37:56.000Z</time>
      </trkpt>
      <trkpt lat="45.44822" lon="4.38933">
        <ele>501.52590942383</ele>
        <time>2015-12-20T18:37:59.000Z</time>
      </trkpt>
      <trkpt lat="45.44821" lon="4.38928">
        <ele>502.96765136719</ele>
        <time>2015-12-20T18:38:01.000Z</time>
      </trkpt>
      <trkpt lat="45.44819" lon="4.38919">
        <ele>503.72668457031</ele>
        <time>2015-12-20T18:38:04.000Z</time>
      </trkpt>
      <trkpt lat="45.44818" lon="4.38913">
        <ele>503.94802856445</ele>
        <time>2015-12-20T18:38:06.000Z</time>
      </trkpt>
      <trkpt lat="45.44816" lon="4.38908">
        <ele>503.65036010742</ele>
        <time>2015-12-20T18:38:08.000Z</time>
      </trkpt>
      <trkpt lat="45.44814" lon="4.38901">
        <ele>502.31259155273</ele>
        <time>2015-12-20T18:38:10.000Z</time>
      </trkpt>
      <trkpt lat="45.44812" lon="4.38894">
        <ele>503.94985961914</ele>
        <time>2015-12-20T18:38:13.000Z</time>
      </trkpt>
      <trkpt lat="45.4481" lon="4.38887">
        <ele>505.47848510742</ele>
        <time>2015-12-20T18:38:16.000Z</time>
      </trkpt>
      <trkpt lat="45.44802" lon="4.38876">
        <ele>503.66525268555</ele>
        <time>2015-12-20T18:38:19.000Z</time>
      </trkpt>
      <trkpt lat="45.44798" lon="4.38866">
        <ele>503.51007080078</ele>
        <time>2015-12-20T18:38:22.000Z</time>
      </trkpt>
      <trkpt lat="45.44796" lon="4.38856">
        <ele>503.17459106445</ele>
        <time>2015-12-20T18:38:25.000Z</time>
      </trkpt>
      <trkpt lat="45.44794" lon="4.38849">
        <ele>503.43676757812</ele>
        <time>2015-12-20T18:38:27.000Z</time>
      </trkpt>
      <trkpt lat="45.44792" lon="4.38839">
        <ele>504.46899414062</ele>
        <time>2015-12-20T18:38:30.000Z</time>
      </trkpt>
      <trkpt lat="45.4479" lon="4.38831">
        <ele>504.51477050781</ele>
        <time>2015-12-20T18:38:32.000Z</time>
      </trkpt>
      <trkpt lat="45.44786" lon="4.38822">
        <ele>504.54135131836</ele>
        <time>2015-12-20T18:38:35.000Z</time>
      </trkpt>
      <trkpt lat="45.44781" lon="4.38817">
        <ele>505.90075683594</ele>
        <time>2015-12-20T18:38:38.000Z</time>
      </trkpt>
      <trkpt lat="45.44779" lon="4.38812">
        <ele>506.01452636719</ele>
        <time>2015-12-20T18:38:40.000Z</time>
      </trkpt>
      <trkpt lat="45.44781" lon="4.38803">
        <ele>508.70950317383</ele>
        <time>2015-12-20T18:38:43.000Z</time>
      </trkpt>
      <trkpt lat="45.4478" lon="4.38795">
        <ele>509.93826293945</ele>
        <time>2015-12-20T18:38:46.000Z</time>
      </trkpt>
      <trkpt lat="45.44779" lon="4.38788">
        <ele>510.025390625</ele>
        <time>2015-12-20T18:38:48.000Z</time>
      </trkpt>
      <trkpt lat="45.44775" lon="4.38782">
        <ele>512.01959228516</ele>
        <time>2015-12-20T18:38:51.000Z</time>
      </trkpt>
      <trkpt lat="45.44772" lon="4.38775">
        <ele>513.47888183594</ele>
        <time>2015-12-20T18:38:54.000Z</time>
      </trkpt>
      <trkpt lat="45.44769" lon="4.38765">
        <ele>512.40588378906</ele>
        <time>2015-12-20T18:38:57.000Z</time>
      </trkpt>
      <trkpt lat="45.44767" lon="4.38757">
        <ele>512.47204589844</ele>
        <time>2015-12-20T18:39:00.000Z</time>
      </trkpt>
      <trkpt lat="45.44767" lon="4.38749">
        <ele>512.84057617188</ele>
        <time>2015-12-20T18:39:03.000Z</time>
      </trkpt>
      <trkpt lat="45.44763" lon="4.38744">
        <ele>512.97180175781</ele>
        <time>2015-12-20T18:39:05.000Z</time>
      </trkpt>
      <trkpt lat="45.44759" lon="4.38739">
        <ele>514.24957275391</ele>
        <time>2015-12-20T18:39:07.000Z</time>
      </trkpt>
      <trkpt lat="45.44758" lon="4.38733">
        <ele>514.83685302734</ele>
        <time>2015-12-20T18:39:09.000Z</time>
      </trkpt>
      <trkpt lat="45.44754" lon="4.38722">
        <ele>512.96051025391</ele>
        <time>2015-12-20T18:39:12.000Z</time>
      </trkpt>
      <trkpt lat="45.44751" lon="4.38713">
        <ele>513.23101806641</ele>
        <time>2015-12-20T18:39:15.000Z</time>
      </trkpt>
      <trkpt lat="45.44751" lon="4.38707">
        <ele>513.31518554688</ele>
        <time>2015-12-20T18:39:17.000Z</time>
      </trkpt>
      <trkpt lat="45.4475" lon="4.38697">
        <ele>512.88360595703</ele>
        <time>2015-12-20T18:39:20.000Z</time>
      </trkpt>
      <trkpt lat="45.44749" lon="4.38688">
        <ele>512.53533935547</ele>
        <time>2015-12-20T18:39:23.000Z</time>
      </trkpt>
      <trkpt lat="45.44748" lon="4.38683">
        <ele>511.84170532227</ele>
        <time>2015-12-20T18:39:25.000Z</time>
      </trkpt>
      <trkpt lat="45.44742" lon="4.38672">
        <ele>509.45288085938</ele>
        <time>2015-12-20T18:39:28.000Z</time>
      </trkpt>
      <trkpt lat="45.44737" lon="4.38663">
        <ele>508.54681396484</ele>
        <time>2015-12-20T18:39:31.000Z</time>
      </trkpt>
      <trkpt lat="45.44734" lon="4.38659">
        <ele>508.54443359375</ele>
        <time>2015-12-20T18:39:33.000Z</time>
      </trkpt>
      <trkpt lat="45.44732" lon="4.3865">
        <ele>507.1076965332</ele>
        <time>2015-12-20T18:39:36.000Z</time>
      </trkpt>
      <trkpt lat="45.44728" lon="4.38649">
        <ele>507.38766479492</ele>
        <time>2015-12-20T18:39:38.000Z</time>
      </trkpt>
      <trkpt lat="45.44725" lon="4.38648">
        <ele>506.65390014648</ele>
        <time>2015-12-20T18:39:40.000Z</time>
      </trkpt>
      <trkpt lat="45.44718" lon="4.38648">
        <ele>506.99285888672</ele>
        <time>2015-12-20T18:39:43.000Z</time>
      </trkpt>
      <trkpt lat="45.44712" lon="4.3865">
        <ele>508.00738525391</ele>
        <time>2015-12-20T18:39:46.000Z</time>
      </trkpt>
      <trkpt lat="45.44711" lon="4.38649">
        <ele>507.89764404297</ele>
        <time>2015-12-20T18:39:48.000Z</time>
      </trkpt>
      <trkpt lat="45.44706" lon="4.38649">
        <ele>509.205078125</ele>
        <time>2015-12-20T18:39:51.000Z</time>
      </trkpt>
      <trkpt lat="45.44702" lon="4.38649">
        <ele>510.30868530273</ele>
        <time>2015-12-20T18:39:53.000Z</time>
      </trkpt>
      <trkpt lat="45.44694" lon="4.38649">
        <ele>511.02355957031</ele>
        <time>2015-12-20T18:39:56.000Z</time>
      </trkpt>
      <trkpt lat="45.44687" lon="4.38651">
        <ele>511.47958374023</ele>
        <time>2015-12-20T18:39:59.000Z</time>
      </trkpt>
      <trkpt lat="45.44683" lon="4.38652">
        <ele>510.99761962891</ele>
        <time>2015-12-20T18:40:01.000Z</time>
      </trkpt>
      <trkpt lat="45.44677" lon="4.38653">
        <ele>511.06158447266</ele>
        <time>2015-12-20T18:40:03.000Z</time>
      </trkpt>
      <trkpt lat="45.44669" lon="4.38655">
        <ele>510.87023925781</ele>
        <time>2015-12-20T18:40:06.000Z</time>
      </trkpt>
      <trkpt lat="45.44663" lon="4.38656">
        <ele>510.86401367188</ele>
        <time>2015-12-20T18:40:08.000Z</time>
      </trkpt>
      <trkpt lat="45.44659" lon="4.38656">
        <ele>511.87860107422</ele>
        <time>2015-12-20T18:40:10.000Z</time>
      </trkpt>
      <trkpt lat="45.44654" lon="4.38659">
        <ele>513.00811767578</ele>
        <time>2015-12-20T18:40:13.000Z</time>
      </trkpt>
      <trkpt lat="45.44651" lon="4.38662">
        <ele>514.55426025391</ele>
        <time>2015-12-20T18:40:16.000Z</time>
      </trkpt>
      <trkpt lat="45.44645" lon="4.38664">
        <ele>515.02532958984</ele>
        <time>2015-12-20T18:40:18.000Z</time>
      </trkpt>
      <trkpt lat="45.44639" lon="4.38667">
        <ele>516.33325195312</ele>
        <time>2015-12-20T18:40:21.000Z</time>
      </trkpt>
      <trkpt lat="45.44634" lon="4.38669">
        <ele>516.498046875</ele>
        <time>2015-12-20T18:40:23.000Z</time>
      </trkpt>
      <trkpt lat="45.44622" lon="4.3867">
        <ele>514.34173583984</ele>
        <time>2015-12-20T18:40:26.000Z</time>
      </trkpt>
      <trkpt lat="45.44614" lon="4.38669">
        <ele>513.53338623047</ele>
        <time>2015-12-20T18:40:29.000Z</time>
      </trkpt>
      <trkpt lat="45.44611" lon="4.38668">
        <ele>514.70147705078</ele>
        <time>2015-12-20T18:40:31.000Z</time>
      </trkpt>
      <trkpt lat="45.44606" lon="4.38668">
        <ele>515.13470458984</ele>
        <time>2015-12-20T18:40:34.000Z</time>
      </trkpt>
      <trkpt lat="45.44603" lon="4.38669">
        <ele>513.97412109375</ele>
        <time>2015-12-20T18:40:36.000Z</time>
      </trkpt>
      <trkpt lat="45.446" lon="4.38667">
        <ele>512.61431884766</ele>
        <time>2015-12-20T18:40:38.000Z</time>
      </trkpt>
      <trkpt lat="45.44596" lon="4.38663">
        <ele>510.63046264648</ele>
        <time>2015-12-20T18:40:41.000Z</time>
      </trkpt>
      <trkpt lat="45.44593" lon="4.38662">
        <ele>510.31225585938</ele>
        <time>2015-12-20T18:40:43.000Z</time>
      </trkpt>
      <trkpt lat="45.4459" lon="4.38656">
        <ele>510.75537109375</ele>
        <time>2015-12-20T18:40:45.000Z</time>
      </trkpt>
      <trkpt lat="45.44584" lon="4.3866">
        <ele>512.41577148438</ele>
        <time>2015-12-20T18:40:48.000Z</time>
      </trkpt>
      <trkpt lat="45.44576" lon="4.38671">
        <ele>514.57946777344</ele>
        <time>2015-12-20T18:40:51.000Z</time>
      </trkpt>
      <trkpt lat="45.44572" lon="4.38672">
        <ele>515.0048828125</ele>
        <time>2015-12-20T18:40:53.000Z</time>
      </trkpt>
      <trkpt lat="45.44559" lon="4.3868">
        <ele>512.39471435547</ele>
        <time>2015-12-20T18:40:56.000Z</time>
      </trkpt>
      <trkpt lat="45.44555" lon="4.3868">
        <ele>511.32293701172</ele>
        <time>2015-12-20T18:40:59.000Z</time>
      </trkpt>
      <trkpt lat="45.44554" lon="4.3868">
        <ele>510.68881225586</ele>
        <time>2015-12-20T18:41:02.000Z</time>
      </trkpt>
      <trkpt lat="45.44553" lon="4.38678">
        <ele>510.55661010742</ele>
        <time>2015-12-20T18:41:04.000Z</time>
      </trkpt>
      <trkpt lat="45.44553" lon="4.38677">
        <ele>510.52499389648</ele>
        <time>2015-12-20T18:41:07.000Z</time>
      </trkpt>
      <trkpt lat="45.44529" lon="4.38674">
        <ele>510.47015380859</ele>
        <time>2015-12-20T18:41:12.000Z</time>
      </trkpt>
      <trkpt lat="45.44525" lon="4.38677">
        <ele>512.71697998047</ele>
        <time>2015-12-20T18:41:14.000Z</time>
      </trkpt>
      <trkpt lat="45.44516" lon="4.38686">
        <ele>519.46545410156</ele>
        <time>2015-12-20T18:41:17.000Z</time>
      </trkpt>
      <trkpt lat="45.44509" lon="4.38692">
        <ele>523.40234375</ele>
        <time>2015-12-20T18:41:20.000Z</time>
      </trkpt>
      <trkpt lat="45.44509" lon="4.38695">
        <ele>525.24328613281</ele>
        <time>2015-12-20T18:41:23.000Z</time>
      </trkpt>
      <trkpt lat="45.44504" lon="4.38697">
        <ele>526.93591308594</ele>
        <time>2015-12-20T18:41:25.000Z</time>
      </trkpt>
      <trkpt lat="45.44481" lon="4.38696">
        <ele>523.77508544922</ele>
        <time>2015-12-20T18:41:29.000Z</time>
      </trkpt>
      <trkpt lat="45.44479" lon="4.387">
        <ele>523.85882568359</ele>
        <time>2015-12-20T18:41:31.000Z</time>
      </trkpt>
      <trkpt lat="45.44476" lon="4.387">
        <ele>524.27062988281</ele>
        <time>2015-12-20T18:41:33.000Z</time>
      </trkpt>
      <trkpt lat="45.44463" lon="4.38699">
        <ele>518.322265625</ele>
        <time>2015-12-20T18:41:36.000Z</time>
      </trkpt>
      <trkpt lat="45.44455" lon="4.38704">
        <ele>517.70465087891</ele>
        <time>2015-12-20T18:41:39.000Z</time>
      </trkpt>
      <trkpt lat="45.44452" lon="4.38709">
        <ele>521.22631835938</ele>
        <time>2015-12-20T18:41:41.000Z</time>
      </trkpt>
      <trkpt lat="45.44448" lon="4.38716">
        <ele>524.5966796875</ele>
        <time>2015-12-20T18:41:44.000Z</time>
      </trkpt>
      <trkpt lat="45.4444" lon="4.38721">
        <ele>523.29418945312</ele>
        <time>2015-12-20T18:41:47.000Z</time>
      </trkpt>
      <trkpt lat="45.4444" lon="4.38723">
        <ele>523.93176269531</ele>
        <time>2015-12-20T18:41:49.000Z</time>
      </trkpt>
      <trkpt lat="45.44439" lon="4.38722">
        <ele>525.44897460938</ele>
        <time>2015-12-20T18:41:51.000Z</time>
      </trkpt>
      <trkpt lat="45.44432" lon="4.38723">
        <ele>527.56158447266</ele>
        <time>2015-12-20T18:41:54.000Z</time>
      </trkpt>
      <trkpt lat="45.44408" lon="4.3872">
        <ele>528.0849609375</ele>
        <time>2015-12-20T18:41:58.000Z</time>
      </trkpt>
      <trkpt lat="45.44398" lon="4.38708">
        <ele>528.80743408203</ele>
        <time>2015-12-20T18:42:01.000Z</time>
      </trkpt>
      <trkpt lat="45.44391" lon="4.38706">
        <ele>528.79998779297</ele>
        <time>2015-12-20T18:42:03.000Z</time>
      </trkpt>
      <trkpt lat="45.44387" lon="4.38715">
        <ele>520.55169677734</ele>
        <time>2015-12-20T18:42:06.000Z</time>
      </trkpt>
      <trkpt lat="45.44381" lon="4.38726">
        <ele>528.56719970703</ele>
        <time>2015-12-20T18:42:10.000Z</time>
      </trkpt>
      <trkpt lat="45.44376" lon="4.3873">
        <ele>534.14587402344</ele>
        <time>2015-12-20T18:42:12.000Z</time>
      </trkpt>
      <trkpt lat="45.44373" lon="4.38733">
        <ele>537.22241210938</ele>
        <time>2015-12-20T18:42:14.000Z</time>
      </trkpt>
      <trkpt lat="45.44368" lon="4.38735">
        <ele>538.52679443359</ele>
        <time>2015-12-20T18:42:16.000Z</time>
      </trkpt>
      <trkpt lat="45.44362" lon="4.38738">
        <ele>537.33227539062</ele>
        <time>2015-12-20T18:42:19.000Z</time>
      </trkpt>
      <trkpt lat="45.44358" lon="4.3874">
        <ele>535.68902587891</ele>
        <time>2015-12-20T18:42:21.000Z</time>
      </trkpt>
      <trkpt lat="45.4435" lon="4.38742">
        <ele>535.43328857422</ele>
        <time>2015-12-20T18:42:24.000Z</time>
      </trkpt>
      <trkpt lat="45.44343" lon="4.38746">
        <ele>537.51513671875</ele>
        <time>2015-12-20T18:42:27.000Z</time>
      </trkpt>
      <trkpt lat="45.44339" lon="4.38746">
        <ele>538.34686279297</ele>
        <time>2015-12-20T18:42:29.000Z</time>
      </trkpt>
      <trkpt lat="45.44336" lon="4.38745">
        <ele>549.00238037109</ele>
        <time>2015-12-20T18:42:31.000Z</time>
      </trkpt>
      <trkpt lat="45.4433" lon="4.38744">
        <ele>562.04986572266</ele>
        <time>2015-12-20T18:42:33.000Z</time>
      </trkpt>
      <trkpt lat="45.44326" lon="4.38747">
        <ele>559.53155517578</ele>
        <time>2015-12-20T18:42:36.000Z</time>
      </trkpt>
      <trkpt lat="45.44326" lon="4.38741">
        <ele>556.26605224609</ele>
        <time>2015-12-20T18:42:38.000Z</time>
      </trkpt>
      <trkpt lat="45.44326" lon="4.38728">
        <ele>551.34527587891</ele>
        <time>2015-12-20T18:42:41.000Z</time>
      </trkpt>
      <trkpt lat="45.44324" lon="4.38727">
        <ele>546.6806640625</ele>
        <time>2015-12-20T18:42:44.000Z</time>
      </trkpt>
      <trkpt lat="45.44309" lon="4.3874">
        <ele>543.94030761719</ele>
        <time>2015-12-20T18:42:48.000Z</time>
      </trkpt>
      <trkpt lat="45.44302" lon="4.38743">
        <ele>542.70257568359</ele>
        <time>2015-12-20T18:42:50.000Z</time>
      </trkpt>
      <trkpt lat="45.44287" lon="4.38744">
        <ele>539.33618164062</ele>
        <time>2015-12-20T18:42:53.000Z</time>
      </trkpt>
      <trkpt lat="45.44286" lon="4.38748">
        <ele>539.96459960938</ele>
        <time>2015-12-20T18:42:55.000Z</time>
      </trkpt>
      <trkpt lat="45.44281" lon="4.3874">
        <ele>542.75366210938</ele>
        <time>2015-12-20T18:42:58.000Z</time>
      </trkpt>
      <trkpt lat="45.44275" lon="4.3874">
        <ele>544.44110107422</ele>
        <time>2015-12-20T18:43:01.000Z</time>
      </trkpt>
      <trkpt lat="45.4427" lon="4.38742">
        <ele>544.51873779297</ele>
        <time>2015-12-20T18:43:03.000Z</time>
      </trkpt>
      <trkpt lat="45.44267" lon="4.38749">
        <ele>545.15307617188</ele>
        <time>2015-12-20T18:43:05.000Z</time>
      </trkpt>
      <trkpt lat="45.44265" lon="4.38763">
        <ele>547.33624267578</ele>
        <time>2015-12-20T18:43:08.000Z</time>
      </trkpt>
      <trkpt lat="45.44263" lon="4.3877">
        <ele>547.60528564453</ele>
        <time>2015-12-20T18:43:10.000Z</time>
      </trkpt>
      <trkpt lat="45.44259" lon="4.38771">
        <ele>545.49700927734</ele>
        <time>2015-12-20T18:43:13.000Z</time>
      </trkpt>
      <trkpt lat="45.44246" lon="4.38774">
        <ele>542.55560302734</ele>
        <time>2015-12-20T18:43:16.000Z</time>
      </trkpt>
      <trkpt lat="45.44238" lon="4.38775">
        <ele>541.18804931641</ele>
        <time>2015-12-20T18:43:18.000Z</time>
      </trkpt>
      <trkpt lat="45.44228" lon="4.38781">
        <ele>538.65930175781</ele>
        <time>2015-12-20T18:43:21.000Z</time>
      </trkpt>
      <trkpt lat="45.4422" lon="4.38783">
        <ele>538.66088867188</ele>
        <time>2015-12-20T18:43:24.000Z</time>
      </trkpt>
      <trkpt lat="45.44213" lon="4.38784">
        <ele>538.72143554688</ele>
        <time>2015-12-20T18:43:26.000Z</time>
      </trkpt>
      <trkpt lat="45.442" lon="4.38784">
        <ele>536.56170654297</ele>
        <time>2015-12-20T18:43:29.000Z</time>
      </trkpt>
      <trkpt lat="45.44198" lon="4.38785">
        <ele>537.56713867188</ele>
        <time>2015-12-20T18:43:32.000Z</time>
      </trkpt>
      <trkpt lat="45.44197" lon="4.38786">
        <ele>537.3701171875</ele>
        <time>2015-12-20T18:43:35.000Z</time>
      </trkpt>
      <trkpt lat="45.44161" lon="4.38786">
        <ele>532.13623046875</ele>
        <time>2015-12-20T18:43:41.000Z</time>
      </trkpt>
      <trkpt lat="45.44161" lon="4.38787">
        <ele>531.66516113281</ele>
        <time>2015-12-20T18:43:43.000Z</time>
      </trkpt>
      <trkpt lat="45.44161" lon="4.38794">
        <ele>525.27276611328</ele>
        <time>2015-12-20T18:43:47.000Z</time>
      </trkpt>
      <trkpt lat="45.44155" lon="4.38796">
        <ele>522.56842041016</ele>
        <time>2015-12-20T18:43:50.000Z</time>
      </trkpt>
      <trkpt lat="45.44154" lon="4.38799">
        <ele>523.89575195312</ele>
        <time>2015-12-20T18:43:53.000Z</time>
      </trkpt>
      <trkpt lat="45.44156" lon="4.38804">
        <ele>526.39282226562</ele>
        <time>2015-12-20T18:43:56.000Z</time>
      </trkpt>
      <trkpt lat="45.44154" lon="4.38808">
        <ele>529.01397705078</ele>
        <time>2015-12-20T18:43:59.000Z</time>
      </trkpt>
      <trkpt lat="45.44151" lon="4.38808">
        <ele>531.01458740234</ele>
        <time>2015-12-20T18:44:02.000Z</time>
      </trkpt>
      <trkpt lat="45.44153" lon="4.38807">
        <ele>532.36865234375</ele>
        <time>2015-12-20T18:44:05.000Z</time>
      </trkpt>
      <trkpt lat="45.44149" lon="4.38807">
        <ele>532.75073242188</ele>
        <time>2015-12-20T18:44:07.000Z</time>
      </trkpt>
      <trkpt lat="45.44145" lon="4.38807">
        <ele>533.92602539062</ele>
        <time>2015-12-20T18:44:09.000Z</time>
      </trkpt>
      <trkpt lat="45.44104" lon="4.38816">
        <ele>527.92102050781</ele>
        <time>2015-12-20T18:44:15.000Z</time>
      </trkpt>
      <trkpt lat="45.44101" lon="4.38827">
        <ele>527.42083740234</ele>
        <time>2015-12-20T18:44:18.000Z</time>
      </trkpt>
      <trkpt lat="45.44099" lon="4.3884">
        <ele>527.02667236328</ele>
        <time>2015-12-20T18:44:21.000Z</time>
      </trkpt>
      <trkpt lat="45.44098" lon="4.38847">
        <ele>526.46026611328</ele>
        <time>2015-12-20T18:44:23.000Z</time>
      </trkpt>
      <trkpt lat="45.44098" lon="4.38855">
        <ele>525.91717529297</ele>
        <time>2015-12-20T18:44:25.000Z</time>
      </trkpt>
      <trkpt lat="45.44098" lon="4.38862">
        <ele>525.34692382812</ele>
        <time>2015-12-20T18:44:27.000Z</time>
      </trkpt>
      <trkpt lat="45.44099" lon="4.38871">
        <ele>525.14392089844</ele>
        <time>2015-12-20T18:44:30.000Z</time>
      </trkpt>
      <trkpt lat="45.44102" lon="4.3888">
        <ele>522.63708496094</ele>
        <time>2015-12-20T18:44:33.000Z</time>
      </trkpt>
      <trkpt lat="45.44104" lon="4.38886">
        <ele>522.02416992188</ele>
        <time>2015-12-20T18:44:35.000Z</time>
      </trkpt>
      <trkpt lat="45.44104" lon="4.3889">
        <ele>522.109375</ele>
        <time>2015-12-20T18:44:37.000Z</time>
      </trkpt>
      <trkpt lat="45.44103" lon="4.38891">
        <ele>522.2197265625</ele>
        <time>2015-12-20T18:44:42.000Z</time>
      </trkpt>
      <trkpt lat="45.44101" lon="4.3889">
        <ele>522.39819335938</ele>
        <time>2015-12-20T18:44:47.000Z</time>
      </trkpt>
      <trkpt lat="45.44092" lon="4.38889">
        <ele>522.26257324219</ele>
        <time>2015-12-20T18:44:50.000Z</time>
      </trkpt>
      <trkpt lat="45.44085" lon="4.38883">
        <ele>523.12408447266</ele>
        <time>2015-12-20T18:44:53.000Z</time>
      </trkpt>
      <trkpt lat="45.44075" lon="4.3888">
        <ele>522.13702392578</ele>
        <time>2015-12-20T18:44:56.000Z</time>
      </trkpt>
      <trkpt lat="45.44066" lon="4.3888">
        <ele>522.52923583984</ele>
        <time>2015-12-20T18:44:58.000Z</time>
      </trkpt>
      <trkpt lat="45.44059" lon="4.38881">
        <ele>522.23889160156</ele>
        <time>2015-12-20T18:45:00.000Z</time>
      </trkpt>
      <trkpt lat="45.44049" lon="4.38883">
        <ele>524.13269042969</ele>
        <time>2015-12-20T18:45:03.000Z</time>
      </trkpt>
      <trkpt lat="45.44044" lon="4.38884">
        <ele>524.10137939453</ele>
        <time>2015-12-20T18:45:05.000Z</time>
      </trkpt>
      <trkpt lat="45.44039" lon="4.38884">
        <ele>524.09326171875</ele>
        <time>2015-12-20T18:45:07.000Z</time>
      </trkpt>
      <trkpt lat="45.44033" lon="4.38883">
        <ele>524.07806396484</ele>
        <time>2015-12-20T18:45:09.000Z</time>
      </trkpt>
      <trkpt lat="45.44028" lon="4.38882">
        <ele>521.40130615234</ele>
        <time>2015-12-20T18:45:11.000Z</time>
      </trkpt>
      <trkpt lat="45.44024" lon="4.38883">
        <ele>515.95989990234</ele>
        <time>2015-12-20T18:45:14.000Z</time>
      </trkpt>
      <trkpt lat="45.44022" lon="4.38883">
        <ele>516.91101074219</ele>
        <time>2015-12-20T18:45:17.000Z</time>
      </trkpt>
      <trkpt lat="45.44017" lon="4.38882">
        <ele>517.015625</ele>
        <time>2015-12-20T18:45:19.000Z</time>
      </trkpt>
      <trkpt lat="45.44008" lon="4.38881">
        <ele>517.01892089844</ele>
        <time>2015-12-20T18:45:21.000Z</time>
      </trkpt>
      <trkpt lat="45.44001" lon="4.38881">
        <ele>513.89099121094</ele>
        <time>2015-12-20T18:45:23.000Z</time>
      </trkpt>
      <trkpt lat="45.4399" lon="4.38882">
        <ele>512.49688720703</ele>
        <time>2015-12-20T18:45:26.000Z</time>
      </trkpt>
      <trkpt lat="45.43982" lon="4.38885">
        <ele>515.32781982422</ele>
        <time>2015-12-20T18:45:29.000Z</time>
      </trkpt>
      <trkpt lat="45.43975" lon="4.38887">
        <ele>515.58032226562</ele>
        <time>2015-12-20T18:45:32.000Z</time>
      </trkpt>
      <trkpt lat="45.43972" lon="4.38887">
        <ele>514.16546630859</ele>
        <time>2015-12-20T18:45:34.000Z</time>
      </trkpt>
      <trkpt lat="45.43967" lon="4.38886">
        <ele>513.16217041016</ele>
        <time>2015-12-20T18:45:36.000Z</time>
      </trkpt>
      <trkpt lat="45.43962" lon="4.38885">
        <ele>512.57922363281</ele>
        <time>2015-12-20T18:45:38.000Z</time>
      </trkpt>
      <trkpt lat="45.43961" lon="4.38885">
        <ele>512.12756347656</ele>
        <time>2015-12-20T18:45:40.000Z</time>
      </trkpt>
      <trkpt lat="45.43958" lon="4.38881">
        <ele>513.02001953125</ele>
        <time>2015-12-20T18:45:43.000Z</time>
      </trkpt>
      <trkpt lat="45.43955" lon="4.38879">
        <ele>513.5380859375</ele>
        <time>2015-12-20T18:45:45.000Z</time>
      </trkpt>
      <trkpt lat="45.43946" lon="4.38876">
        <ele>511.02456665039</ele>
        <time>2015-12-20T18:45:48.000Z</time>
      </trkpt>
      <trkpt lat="45.43936" lon="4.38874">
        <ele>509.67767333984</ele>
        <time>2015-12-20T18:45:50.000Z</time>
      </trkpt>
      <trkpt lat="45.43929" lon="4.38871">
        <ele>508.77456665039</ele>
        <time>2015-12-20T18:45:53.000Z</time>
      </trkpt>
      <trkpt lat="45.43921" lon="4.38869">
        <ele>509.27035522461</ele>
        <time>2015-12-20T18:45:56.000Z</time>
      </trkpt>
      <trkpt lat="45.43914" lon="4.38868">
        <ele>507.74279785156</ele>
        <time>2015-12-20T18:45:59.000Z</time>
      </trkpt>
      <trkpt lat="45.4391" lon="4.38868">
        <ele>508.61685180664</ele>
        <time>2015-12-20T18:46:01.000Z</time>
      </trkpt>
      <trkpt lat="45.43904" lon="4.38867">
        <ele>510.8444519043</ele>
        <time>2015-12-20T18:46:04.000Z</time>
      </trkpt>
      <trkpt lat="45.439" lon="4.38868">
        <ele>509.96484375</ele>
        <time>2015-12-20T18:46:06.000Z</time>
      </trkpt>
      <trkpt lat="45.43895" lon="4.38867">
        <ele>509.89916992188</ele>
        <time>2015-12-20T18:46:08.000Z</time>
      </trkpt>
      <trkpt lat="45.43888" lon="4.38864">
        <ele>512.17639160156</ele>
        <time>2015-12-20T18:46:11.000Z</time>
      </trkpt>
      <trkpt lat="45.43883" lon="4.38863">
        <ele>512.60394287109</ele>
        <time>2015-12-20T18:46:13.000Z</time>
      </trkpt>
      <trkpt lat="45.43875" lon="4.38859">
        <ele>513.51019287109</ele>
        <time>2015-12-20T18:46:16.000Z</time>
      </trkpt>
      <trkpt lat="45.43871" lon="4.38859">
        <ele>514.72125244141</ele>
        <time>2015-12-20T18:46:19.000Z</time>
      </trkpt>
      <trkpt lat="45.43867" lon="4.3886">
        <ele>515.08630371094</ele>
        <time>2015-12-20T18:46:21.000Z</time>
      </trkpt>
      <trkpt lat="45.43859" lon="4.38865">
        <ele>515.90490722656</ele>
        <time>2015-12-20T18:46:24.000Z</time>
      </trkpt>
      <trkpt lat="45.43857" lon="4.38869">
        <ele>517.90667724609</ele>
        <time>2015-12-20T18:46:26.000Z</time>
      </trkpt>
      <trkpt lat="45.43852" lon="4.38872">
        <ele>522.21899414062</ele>
        <time>2015-12-20T18:46:29.000Z</time>
      </trkpt>
      <trkpt lat="45.43843" lon="4.38875">
        <ele>524.48797607422</ele>
        <time>2015-12-20T18:46:32.000Z</time>
      </trkpt>
      <trkpt lat="45.43837" lon="4.38876">
        <ele>526.22131347656</ele>
        <time>2015-12-20T18:46:35.000Z</time>
      </trkpt>
      <trkpt lat="45.43832" lon="4.38876">
        <ele>527.7705078125</ele>
        <time>2015-12-20T18:46:37.000Z</time>
      </trkpt>
      <trkpt lat="45.4382" lon="4.38875">
        <ele>529.85906982422</ele>
        <time>2015-12-20T18:46:40.000Z</time>
      </trkpt>
      <trkpt lat="45.43814" lon="4.38874">
        <ele>530.43969726562</ele>
        <time>2015-12-20T18:46:42.000Z</time>
      </trkpt>
      <trkpt lat="45.43805" lon="4.38888">
        <ele>524.30181884766</ele>
        <time>2015-12-20T18:46:45.000Z</time>
      </trkpt>
      <trkpt lat="45.43797" lon="4.38894">
        <ele>521.79138183594</ele>
        <time>2015-12-20T18:46:48.000Z</time>
      </trkpt>
      <trkpt lat="45.43793" lon="4.38894">
        <ele>521.50750732422</ele>
        <time>2015-12-20T18:46:50.000Z</time>
      </trkpt>
      <trkpt lat="45.43789" lon="4.38895">
        <ele>522.55364990234</ele>
        <time>2015-12-20T18:46:52.000Z</time>
      </trkpt>
      <trkpt lat="45.43782" lon="4.38895">
        <ele>524.1943359375</ele>
        <time>2015-12-20T18:46:55.000Z</time>
      </trkpt>
      <trkpt lat="45.43779" lon="4.38898">
        <ele>524.4462890625</ele>
        <time>2015-12-20T18:46:58.000Z</time>
      </trkpt>
      <trkpt lat="45.43768" lon="4.38897">
        <ele>524.51434326172</ele>
        <time>2015-12-20T18:47:01.000Z</time>
      </trkpt>
      <trkpt lat="45.4376" lon="4.38899">
        <ele>524.82751464844</ele>
        <time>2015-12-20T18:47:03.000Z</time>
      </trkpt>
      <trkpt lat="45.43758" lon="4.38908">
        <ele>526.25659179688</ele>
        <time>2015-12-20T18:47:06.000Z</time>
      </trkpt>
      <trkpt lat="45.43756" lon="4.38908">
        <ele>526.93530273438</ele>
        <time>2015-12-20T18:47:08.000Z</time>
      </trkpt>
      <trkpt lat="45.43745" lon="4.38905">
        <ele>527.50872802734</ele>
        <time>2015-12-20T18:47:11.000Z</time>
      </trkpt>
      <trkpt lat="45.43741" lon="4.38904">
        <ele>527.12261962891</ele>
        <time>2015-12-20T18:47:13.000Z</time>
      </trkpt>
      <trkpt lat="45.43739" lon="4.38904">
        <ele>527.44665527344</ele>
        <time>2015-12-20T18:47:15.000Z</time>
      </trkpt>
      <trkpt lat="45.43735" lon="4.38905">
        <ele>529.40270996094</ele>
        <time>2015-12-20T18:47:18.000Z</time>
      </trkpt>
      <trkpt lat="45.43729" lon="4.38904">
        <ele>529.60345458984</ele>
        <time>2015-12-20T18:47:20.000Z</time>
      </trkpt>
      <trkpt lat="45.43725" lon="4.38902">
        <ele>530.75213623047</ele>
        <time>2015-12-20T18:47:22.000Z</time>
      </trkpt>
      <trkpt lat="45.43716" lon="4.38919">
        <ele>531.59594726562</ele>
        <time>2015-12-20T18:47:25.000Z</time>
      </trkpt>
      <trkpt lat="45.43709" lon="4.38931">
        <ele>531.59185791016</ele>
        <time>2015-12-20T18:47:28.000Z</time>
      </trkpt>
      <trkpt lat="45.43703" lon="4.38939">
        <ele>528.86749267578</ele>
        <time>2015-12-20T18:47:31.000Z</time>
      </trkpt>
      <trkpt lat="45.43699" lon="4.38946">
        <ele>529.81311035156</ele>
        <time>2015-12-20T18:47:33.000Z</time>
      </trkpt>
      <trkpt lat="45.43695" lon="4.38955">
        <ele>527.87902832031</ele>
        <time>2015-12-20T18:47:36.000Z</time>
      </trkpt>
      <trkpt lat="45.43695" lon="4.38963">
        <ele>527.72729492188</ele>
        <time>2015-12-20T18:47:39.000Z</time>
      </trkpt>
      <trkpt lat="45.43695" lon="4.38969">
        <ele>528.17669677734</ele>
        <time>2015-12-20T18:47:41.000Z</time>
      </trkpt>
      <trkpt lat="45.43695" lon="4.38978">
        <ele>529.1435546875</ele>
        <time>2015-12-20T18:47:44.000Z</time>
      </trkpt>
      <trkpt lat="45.43695" lon="4.38988">
        <ele>528.80041503906</ele>
        <time>2015-12-20T18:47:47.000Z</time>
      </trkpt>
      <trkpt lat="45.43696" lon="4.38995">
        <ele>528.54766845703</ele>
        <time>2015-12-20T18:47:49.000Z</time>
      </trkpt>
      <trkpt lat="45.43696" lon="4.39002">
        <ele>528.92706298828</ele>
        <time>2015-12-20T18:47:51.000Z</time>
      </trkpt>
      <trkpt lat="45.43695" lon="4.39007">
        <ele>530.01690673828</ele>
        <time>2015-12-20T18:47:53.000Z</time>
      </trkpt>
      <trkpt lat="45.43697" lon="4.39009">
        <ele>532.08770751953</ele>
        <time>2015-12-20T18:47:56.000Z</time>
      </trkpt>
      <trkpt lat="45.437" lon="4.39021">
        <ele>530.86822509766</ele>
        <time>2015-12-20T18:47:59.000Z</time>
      </trkpt>
      <trkpt lat="45.43702" lon="4.3903">
        <ele>531.08514404297</ele>
        <time>2015-12-20T18:48:02.000Z</time>
      </trkpt>
      <trkpt lat="45.43703" lon="4.39037">
        <ele>532.40966796875</ele>
        <time>2015-12-20T18:48:04.000Z</time>
      </trkpt>
      <trkpt lat="45.43703" lon="4.39048">
        <ele>533.47045898438</ele>
        <time>2015-12-20T18:48:07.000Z</time>
      </trkpt>
      <trkpt lat="45.43704" lon="4.39061">
        <ele>532.67486572266</ele>
        <time>2015-12-20T18:48:10.000Z</time>
      </trkpt>
      <trkpt lat="45.43704" lon="4.39067">
        <ele>532.62072753906</ele>
        <time>2015-12-20T18:48:12.000Z</time>
      </trkpt>
      <trkpt lat="45.43704" lon="4.39073">
        <ele>532.16033935547</ele>
        <time>2015-12-20T18:48:14.000Z</time>
      </trkpt>
      <trkpt lat="45.43704" lon="4.39079">
        <ele>531.88592529297</ele>
        <time>2015-12-20T18:48:16.000Z</time>
      </trkpt>
      <trkpt lat="45.43705" lon="4.39085">
        <ele>531.61236572266</ele>
        <time>2015-12-20T18:48:18.000Z</time>
      </trkpt>
      <trkpt lat="45.43706" lon="4.3909">
        <ele>531.1220703125</ele>
        <time>2015-12-20T18:48:20.000Z</time>
      </trkpt>
      <trkpt lat="45.43707" lon="4.391">
        <ele>531.26196289062</ele>
        <time>2015-12-20T18:48:23.000Z</time>
      </trkpt>
      <trkpt lat="45.43708" lon="4.39105">
        <ele>531.47979736328</ele>
        <time>2015-12-20T18:48:25.000Z</time>
      </trkpt>
      <trkpt lat="45.43708" lon="4.39111">
        <ele>531.52996826172</ele>
        <time>2015-12-20T18:48:27.000Z</time>
      </trkpt>
      <trkpt lat="45.43709" lon="4.3912">
        <ele>531.5302734375</ele>
        <time>2015-12-20T18:48:30.000Z</time>
      </trkpt>
      <trkpt lat="45.43709" lon="4.39134">
        <ele>530.88659667969</ele>
        <time>2015-12-20T18:48:33.000Z</time>
      </trkpt>
      <trkpt lat="45.43708" lon="4.39143">
        <ele>529.59423828125</ele>
        <time>2015-12-20T18:48:35.000Z</time>
      </trkpt>
      <trkpt lat="45.43708" lon="4.39155">
        <ele>528.38739013672</ele>
        <time>2015-12-20T18:48:38.000Z</time>
      </trkpt>
      <trkpt lat="45.43708" lon="4.39163">
        <ele>528.1787109375</ele>
        <time>2015-12-20T18:48:41.000Z</time>
      </trkpt>
      <trkpt lat="45.43707" lon="4.39174">
        <ele>528.02117919922</ele>
        <time>2015-12-20T18:48:44.000Z</time>
      </trkpt>
      <trkpt lat="45.43708" lon="4.3918">
        <ele>526.46929931641</ele>
        <time>2015-12-20T18:48:46.000Z</time>
      </trkpt>
      <trkpt lat="45.4371" lon="4.39185">
        <ele>525.01916503906</ele>
        <time>2015-12-20T18:48:48.000Z</time>
      </trkpt>
      <trkpt lat="45.43712" lon="4.39194">
        <ele>524.45001220703</ele>
        <time>2015-12-20T18:48:51.000Z</time>
      </trkpt>
      <trkpt lat="45.43713" lon="4.39199">
        <ele>524.47680664062</ele>
        <time>2015-12-20T18:48:53.000Z</time>
      </trkpt>
      <trkpt lat="45.43716" lon="4.39204">
        <ele>526.40234375</ele>
        <time>2015-12-20T18:48:56.000Z</time>
      </trkpt>
      <trkpt lat="45.43718" lon="4.39211">
        <ele>527.47326660156</ele>
        <time>2015-12-20T18:48:59.000Z</time>
      </trkpt>
      <trkpt lat="45.43718" lon="4.39216">
        <ele>527.78497314453</ele>
        <time>2015-12-20T18:49:01.000Z</time>
      </trkpt>
      <trkpt lat="45.43719" lon="4.39226">
        <ele>528.37841796875</ele>
        <time>2015-12-20T18:49:04.000Z</time>
      </trkpt>
      <trkpt lat="45.43719" lon="4.39232">
        <ele>528.49798583984</ele>
        <time>2015-12-20T18:49:06.000Z</time>
      </trkpt>
      <trkpt lat="45.43721" lon="4.39238">
        <ele>528.84051513672</ele>
        <time>2015-12-20T18:49:08.000Z</time>
      </trkpt>
      <trkpt lat="45.43722" lon="4.39244">
        <ele>528.98614501953</ele>
        <time>2015-12-20T18:49:10.000Z</time>
      </trkpt>
      <trkpt lat="45.43723" lon="4.39254">
        <ele>528.61492919922</ele>
        <time>2015-12-20T18:49:13.000Z</time>
      </trkpt>
      <trkpt lat="45.43724" lon="4.39263">
        <ele>527.65582275391</ele>
        <time>2015-12-20T18:49:16.000Z</time>
      </trkpt>
      <trkpt lat="45.43725" lon="4.39274">
        <ele>527.53607177734</ele>
        <time>2015-12-20T18:49:19.000Z</time>
      </trkpt>
      <trkpt lat="45.43725" lon="4.39282">
        <ele>527.38305664062</ele>
        <time>2015-12-20T18:49:21.000Z</time>
      </trkpt>
      <trkpt lat="45.43725" lon="4.39287">
        <ele>527.19329833984</ele>
        <time>2015-12-20T18:49:23.000Z</time>
      </trkpt>
      <trkpt lat="45.43724" lon="4.39293">
        <ele>527.4296875</ele>
        <time>2015-12-20T18:49:25.000Z</time>
      </trkpt>
      <trkpt lat="45.43721" lon="4.39302">
        <ele>527.06304931641</ele>
        <time>2015-12-20T18:49:28.000Z</time>
      </trkpt>
      <trkpt lat="45.43718" lon="4.39307">
        <ele>527.32879638672</ele>
        <time>2015-12-20T18:49:30.000Z</time>
      </trkpt>
      <trkpt lat="45.43716" lon="4.39312">
        <ele>528.66387939453</ele>
        <time>2015-12-20T18:49:32.000Z</time>
      </trkpt>
      <trkpt lat="45.43713" lon="4.39319">
        <ele>530.22717285156</ele>
        <time>2015-12-20T18:49:35.000Z</time>
      </trkpt>
      <trkpt lat="45.43711" lon="4.39323">
        <ele>530.52740478516</ele>
        <time>2015-12-20T18:49:37.000Z</time>
      </trkpt>
      <trkpt lat="45.43709" lon="4.39328">
        <ele>531.72009277344</ele>
        <time>2015-12-20T18:49:39.000Z</time>
      </trkpt>
      <trkpt lat="45.43705" lon="4.39334">
        <ele>534.14703369141</ele>
        <time>2015-12-20T18:49:42.000Z</time>
      </trkpt>
      <trkpt lat="45.43703" lon="4.39337">
        <ele>536.86090087891</ele>
        <time>2015-12-20T18:49:44.000Z</time>
      </trkpt>
      <trkpt lat="45.43699" lon="4.3934">
        <ele>536.71673583984</ele>
        <time>2015-12-20T18:49:46.000Z</time>
      </trkpt>
      <trkpt lat="45.43694" lon="4.39344">
        <ele>536.38372802734</ele>
        <time>2015-12-20T18:49:48.000Z</time>
      </trkpt>
      <trkpt lat="45.43689" lon="4.3935">
        <ele>537.33477783203</ele>
        <time>2015-12-20T18:49:51.000Z</time>
      </trkpt>
      <trkpt lat="45.43684" lon="4.39356">
        <ele>537.49133300781</ele>
        <time>2015-12-20T18:49:54.000Z</time>
      </trkpt>
      <trkpt lat="45.43681" lon="4.39363">
        <ele>537.97406005859</ele>
        <time>2015-12-20T18:49:57.000Z</time>
      </trkpt>
      <trkpt lat="45.43675" lon="4.39369">
        <ele>538.01226806641</ele>
        <time>2015-12-20T18:50:00.000Z</time>
      </trkpt>
      <trkpt lat="45.43673" lon="4.39374">
        <ele>536.73712158203</ele>
        <time>2015-12-20T18:50:02.000Z</time>
      </trkpt>
      <trkpt lat="45.43668" lon="4.39381">
        <ele>532.77093505859</ele>
        <time>2015-12-20T18:50:05.000Z</time>
      </trkpt>
      <trkpt lat="45.43664" lon="4.39385">
        <ele>530.54138183594</ele>
        <time>2015-12-20T18:50:08.000Z</time>
      </trkpt>
      <trkpt lat="45.43662" lon="4.39384">
        <ele>530.47509765625</ele>
        <time>2015-12-20T18:50:11.000Z</time>
      </trkpt>
      <trkpt lat="45.4366" lon="4.39385">
        <ele>529.70294189453</ele>
        <time>2015-12-20T18:50:15.000Z</time>
      </trkpt>
      <trkpt lat="45.43655" lon="4.39391">
        <ele>529.46740722656</ele>
        <time>2015-12-20T18:50:18.000Z</time>
      </trkpt>
      <trkpt lat="45.4365" lon="4.39399">
        <ele>530.46856689453</ele>
        <time>2015-12-20T18:50:21.000Z</time>
      </trkpt>
      <trkpt lat="45.43648" lon="4.39403">
        <ele>530.96099853516</ele>
        <time>2015-12-20T18:50:23.000Z</time>
      </trkpt>
      <trkpt lat="45.43644" lon="4.39409">
        <ele>531.49615478516</ele>
        <time>2015-12-20T18:50:26.000Z</time>
      </trkpt>
      <trkpt lat="45.4364" lon="4.39415">
        <ele>532.29656982422</ele>
        <time>2015-12-20T18:50:29.000Z</time>
      </trkpt>
      <trkpt lat="45.43638" lon="4.3942">
        <ele>532.49578857422</ele>
        <time>2015-12-20T18:50:31.000Z</time>
      </trkpt>
      <trkpt lat="45.43633" lon="4.39426">
        <ele>531.98358154297</ele>
        <time>2015-12-20T18:50:34.000Z</time>
      </trkpt>
      <trkpt lat="45.43629" lon="4.39429">
        <ele>533.62347412109</ele>
        <time>2015-12-20T18:50:37.000Z</time>
      </trkpt>
      <trkpt lat="45.43626" lon="4.39431">
        <ele>534.06158447266</ele>
        <time>2015-12-20T18:50:39.000Z</time>
      </trkpt>
      <trkpt lat="45.4362" lon="4.39434">
        <ele>534.12109375</ele>
        <time>2015-12-20T18:50:42.000Z</time>
      </trkpt>
      <trkpt lat="45.43615" lon="4.39437">
        <ele>534.32690429688</ele>
        <time>2015-12-20T18:50:45.000Z</time>
      </trkpt>
      <trkpt lat="45.43612" lon="4.39439">
        <ele>533.52954101562</ele>
        <time>2015-12-20T18:50:47.000Z</time>
      </trkpt>
      <trkpt lat="45.4361" lon="4.39441">
        <ele>533.02606201172</ele>
        <time>2015-12-20T18:50:49.000Z</time>
      </trkpt>
      <trkpt lat="45.43607" lon="4.39442">
        <ele>532.02429199219</ele>
        <time>2015-12-20T18:50:51.000Z</time>
      </trkpt>
      <trkpt lat="45.43601" lon="4.39443">
        <ele>532.30218505859</ele>
        <time>2015-12-20T18:50:54.000Z</time>
      </trkpt>
      <trkpt lat="45.43596" lon="4.39443">
        <ele>532.92834472656</ele>
        <time>2015-12-20T18:50:56.000Z</time>
      </trkpt>
      <trkpt lat="45.43591" lon="4.39444">
        <ele>534.0546875</ele>
        <time>2015-12-20T18:50:59.000Z</time>
      </trkpt>
      <trkpt lat="45.43587" lon="4.39445">
        <ele>535.49108886719</ele>
        <time>2015-12-20T18:51:01.000Z</time>
      </trkpt>
      <trkpt lat="45.43584" lon="4.39446">
        <ele>537.42309570312</ele>
        <time>2015-12-20T18:51:03.000Z</time>
      </trkpt>
      <trkpt lat="45.43583" lon="4.39446">
        <ele>538.73388671875</ele>
        <time>2015-12-20T18:51:05.000Z</time>
      </trkpt>
      <trkpt lat="45.43579" lon="4.39443">
        <ele>541.24682617188</ele>
        <time>2015-12-20T18:51:08.000Z</time>
      </trkpt>
      <trkpt lat="45.43575" lon="4.39442">
        <ele>542.44848632812</ele>
        <time>2015-12-20T18:51:10.000Z</time>
      </trkpt>
      <trkpt lat="45.43572" lon="4.39441">
        <ele>544.41418457031</ele>
        <time>2015-12-20T18:51:12.000Z</time>
      </trkpt>
      <trkpt lat="45.43568" lon="4.39445">
        <ele>544.55169677734</ele>
        <time>2015-12-20T18:51:14.000Z</time>
      </trkpt>
      <trkpt lat="45.43563" lon="4.39451">
        <ele>545.43707275391</ele>
        <time>2015-12-20T18:51:17.000Z</time>
      </trkpt>
      <trkpt lat="45.43559" lon="4.39454">
        <ele>546.31799316406</ele>
        <time>2015-12-20T18:51:19.000Z</time>
      </trkpt>
      <trkpt lat="45.4355" lon="4.39456">
        <ele>543.59899902344</ele>
        <time>2015-12-20T18:51:22.000Z</time>
      </trkpt>
      <trkpt lat="45.43542" lon="4.3946">
        <ele>544.43463134766</ele>
        <time>2015-12-20T18:51:25.000Z</time>
      </trkpt>
      <trkpt lat="45.43537" lon="4.39462">
        <ele>544.48394775391</ele>
        <time>2015-12-20T18:51:27.000Z</time>
      </trkpt>
      <trkpt lat="45.43534" lon="4.39463">
        <ele>547.24566650391</ele>
        <time>2015-12-20T18:51:30.000Z</time>
      </trkpt>
      <trkpt lat="45.43528" lon="4.39464">
        <ele>544.69854736328</ele>
        <time>2015-12-20T18:51:33.000Z</time>
      </trkpt>
      <trkpt lat="45.43525" lon="4.39464">
        <ele>545.61865234375</ele>
        <time>2015-12-20T18:51:35.000Z</time>
      </trkpt>
      <trkpt lat="45.43522" lon="4.39464">
        <ele>546.41253662109</ele>
        <time>2015-12-20T18:51:37.000Z</time>
      </trkpt>
      <trkpt lat="45.43515" lon="4.39466">
        <ele>545.19097900391</ele>
        <time>2015-12-20T18:51:40.000Z</time>
      </trkpt>
      <trkpt lat="45.43505" lon="4.39467">
        <ele>544.43603515625</ele>
        <time>2015-12-20T18:51:43.000Z</time>
      </trkpt>
      <trkpt lat="45.43499" lon="4.39468">
        <ele>544.46105957031</ele>
        <time>2015-12-20T18:51:45.000Z</time>
      </trkpt>
      <trkpt lat="45.43488" lon="4.39471">
        <ele>542.80041503906</ele>
        <time>2015-12-20T18:51:48.000Z</time>
      </trkpt>
      <trkpt lat="45.43482" lon="4.39472">
        <ele>541.10021972656</ele>
        <time>2015-12-20T18:51:51.000Z</time>
      </trkpt>
      <trkpt lat="45.43475" lon="4.39474">
        <ele>540.45562744141</ele>
        <time>2015-12-20T18:51:54.000Z</time>
      </trkpt>
      <trkpt lat="45.43469" lon="4.3948">
        <ele>542.48022460938</ele>
        <time>2015-12-20T18:51:57.000Z</time>
      </trkpt>
      <trkpt lat="45.43462" lon="4.39486">
        <ele>544.74859619141</ele>
        <time>2015-12-20T18:52:00.000Z</time>
      </trkpt>
      <trkpt lat="45.43455" lon="4.39487">
        <ele>543.78253173828</ele>
        <time>2015-12-20T18:52:03.000Z</time>
      </trkpt>
      <trkpt lat="45.43448" lon="4.39491">
        <ele>544.74291992188</ele>
        <time>2015-12-20T18:52:06.000Z</time>
      </trkpt>
      <trkpt lat="45.43444" lon="4.39496">
        <ele>547.2451171875</ele>
        <time>2015-12-20T18:52:08.000Z</time>
      </trkpt>
      <trkpt lat="45.4344" lon="4.39499">
        <ele>548.83953857422</ele>
        <time>2015-12-20T18:52:10.000Z</time>
      </trkpt>
      <trkpt lat="45.43435" lon="4.39499">
        <ele>550.00836181641</ele>
        <time>2015-12-20T18:52:13.000Z</time>
      </trkpt>
      <trkpt lat="45.43431" lon="4.39499">
        <ele>549.552734375</ele>
        <time>2015-12-20T18:52:16.000Z</time>
      </trkpt>
      <trkpt lat="45.43427" lon="4.395">
        <ele>549.7900390625</ele>
        <time>2015-12-20T18:52:18.000Z</time>
      </trkpt>
      <trkpt lat="45.43423" lon="4.39504">
        <ele>549.54278564453</ele>
        <time>2015-12-20T18:52:20.000Z</time>
      </trkpt>
      <trkpt lat="45.43417" lon="4.39505">
        <ele>548.14056396484</ele>
        <time>2015-12-20T18:52:23.000Z</time>
      </trkpt>
      <trkpt lat="45.43412" lon="4.39505">
        <ele>546.33380126953</ele>
        <time>2015-12-20T18:52:25.000Z</time>
      </trkpt>
      <trkpt lat="45.43406" lon="4.39505">
        <ele>545.49597167969</ele>
        <time>2015-12-20T18:52:28.000Z</time>
      </trkpt>
      <trkpt lat="45.434" lon="4.39508">
        <ele>545.98937988281</ele>
        <time>2015-12-20T18:52:30.000Z</time>
      </trkpt>
      <trkpt lat="45.43392" lon="4.39512">
        <ele>546.34588623047</ele>
        <time>2015-12-20T18:52:33.000Z</time>
      </trkpt>
      <trkpt lat="45.43386" lon="4.39514">
        <ele>546.47839355469</ele>
        <time>2015-12-20T18:52:35.000Z</time>
      </trkpt>
      <trkpt lat="45.43381" lon="4.39516">
        <ele>545.98846435547</ele>
        <time>2015-12-20T18:52:37.000Z</time>
      </trkpt>
      <trkpt lat="45.43376" lon="4.3952">
        <ele>545.88854980469</ele>
        <time>2015-12-20T18:52:39.000Z</time>
      </trkpt>
      <trkpt lat="45.43368" lon="4.39525">
        <ele>544.59625244141</ele>
        <time>2015-12-20T18:52:42.000Z</time>
      </trkpt>
      <trkpt lat="45.43363" lon="4.39527">
        <ele>544.45947265625</ele>
        <time>2015-12-20T18:52:45.000Z</time>
      </trkpt>
      <trkpt lat="45.43356" lon="4.3953">
        <ele>545.46301269531</ele>
        <time>2015-12-20T18:52:48.000Z</time>
      </trkpt>
      <trkpt lat="45.43352" lon="4.39531">
        <ele>545.841796875</ele>
        <time>2015-12-20T18:52:50.000Z</time>
      </trkpt>
      <trkpt lat="45.43348" lon="4.39533">
        <ele>545.48883056641</ele>
        <time>2015-12-20T18:52:52.000Z</time>
      </trkpt>
      <trkpt lat="45.43342" lon="4.39535">
        <ele>544.83740234375</ele>
        <time>2015-12-20T18:52:54.000Z</time>
      </trkpt>
      <trkpt lat="45.43336" lon="4.39537">
        <ele>543.33587646484</ele>
        <time>2015-12-20T18:52:57.000Z</time>
      </trkpt>
      <trkpt lat="45.43332" lon="4.39539">
        <ele>544.64245605469</ele>
        <time>2015-12-20T18:53:00.000Z</time>
      </trkpt>
      <trkpt lat="45.43327" lon="4.3954">
        <ele>544.53515625</ele>
        <time>2015-12-20T18:53:02.000Z</time>
      </trkpt>
      <trkpt lat="45.4332" lon="4.39541">
        <ele>542.28271484375</ele>
        <time>2015-12-20T18:53:05.000Z</time>
      </trkpt>
      <trkpt lat="45.43313" lon="4.3954">
        <ele>541.08947753906</ele>
        <time>2015-12-20T18:53:07.000Z</time>
      </trkpt>
      <trkpt lat="45.4331" lon="4.39541">
        <ele>541.33044433594</ele>
        <time>2015-12-20T18:53:09.000Z</time>
      </trkpt>
      <trkpt lat="45.43301" lon="4.39546">
        <ele>541.46801757812</ele>
        <time>2015-12-20T18:53:12.000Z</time>
      </trkpt>
      <trkpt lat="45.43297" lon="4.39548">
        <ele>541.92449951172</ele>
        <time>2015-12-20T18:53:14.000Z</time>
      </trkpt>
      <trkpt lat="45.43294" lon="4.39549">
        <ele>541.61181640625</ele>
        <time>2015-12-20T18:53:16.000Z</time>
      </trkpt>
      <trkpt lat="45.43286" lon="4.39551">
        <ele>541.96649169922</ele>
        <time>2015-12-20T18:53:19.000Z</time>
      </trkpt>
      <trkpt lat="45.43279" lon="4.39554">
        <ele>542.48529052734</ele>
        <time>2015-12-20T18:53:21.000Z</time>
      </trkpt>
      <trkpt lat="45.43268" lon="4.39557">
        <ele>544.01483154297</ele>
        <time>2015-12-20T18:53:24.000Z</time>
      </trkpt>
      <trkpt lat="45.43262" lon="4.3956">
        <ele>546.29455566406</ele>
        <time>2015-12-20T18:53:27.000Z</time>
      </trkpt>
      <trkpt lat="45.43257" lon="4.39562">
        <ele>546.8935546875</ele>
        <time>2015-12-20T18:53:30.000Z</time>
      </trkpt>
      <trkpt lat="45.43253" lon="4.39564">
        <ele>548.65014648438</ele>
        <time>2015-12-20T18:53:32.000Z</time>
      </trkpt>
      <trkpt lat="45.43244" lon="4.39563">
        <ele>548.72985839844</ele>
        <time>2015-12-20T18:53:35.000Z</time>
      </trkpt>
      <trkpt lat="45.43236" lon="4.39562">
        <ele>547.13586425781</ele>
        <time>2015-12-20T18:53:37.000Z</time>
      </trkpt>
      <trkpt lat="45.43229" lon="4.3956">
        <ele>545.56793212891</ele>
        <time>2015-12-20T18:53:40.000Z</time>
      </trkpt>
      <trkpt lat="45.4322" lon="4.39558">
        <ele>546.35919189453</ele>
        <time>2015-12-20T18:53:43.000Z</time>
      </trkpt>
      <trkpt lat="45.43218" lon="4.39554">
        <ele>545.79162597656</ele>
        <time>2015-12-20T18:53:45.000Z</time>
      </trkpt>
      <trkpt lat="45.43216" lon="4.3955">
        <ele>545.54656982422</ele>
        <time>2015-12-20T18:53:47.000Z</time>
      </trkpt>
      <trkpt lat="45.43209" lon="4.39546">
        <ele>545.55749511719</ele>
        <time>2015-12-20T18:53:49.000Z</time>
      </trkpt>
      <trkpt lat="45.43201" lon="4.39541">
        <ele>544.84301757812</ele>
        <time>2015-12-20T18:53:52.000Z</time>
      </trkpt>
      <trkpt lat="45.43189" lon="4.39538">
        <ele>540.56506347656</ele>
        <time>2015-12-20T18:53:56.000Z</time>
      </trkpt>
      <trkpt lat="45.43181" lon="4.39532">
        <ele>541.23638916016</ele>
        <time>2015-12-20T18:54:00.000Z</time>
      </trkpt>
      <trkpt lat="45.43177" lon="4.39527">
        <ele>544.21313476562</ele>
        <time>2015-12-20T18:54:03.000Z</time>
      </trkpt>
      <trkpt lat="45.43173" lon="4.39523">
        <ele>544.61437988281</ele>
        <time>2015-12-20T18:54:05.000Z</time>
      </trkpt>
      <trkpt lat="45.43168" lon="4.39522">
        <ele>544.53259277344</ele>
        <time>2015-12-20T18:54:07.000Z</time>
      </trkpt>
      <trkpt lat="45.43163" lon="4.39521">
        <ele>545.50372314453</ele>
        <time>2015-12-20T18:54:10.000Z</time>
      </trkpt>
      <trkpt lat="45.43158" lon="4.3952">
        <ele>545.00689697266</ele>
        <time>2015-12-20T18:54:12.000Z</time>
      </trkpt>
      <trkpt lat="45.43152" lon="4.39519">
        <ele>544.5146484375</ele>
        <time>2015-12-20T18:54:14.000Z</time>
      </trkpt>
      <trkpt lat="45.43149" lon="4.3952">
        <ele>544.85290527344</ele>
        <time>2015-12-20T18:54:17.000Z</time>
      </trkpt>
      <trkpt lat="45.43147" lon="4.39524">
        <ele>545.13330078125</ele>
        <time>2015-12-20T18:54:20.000Z</time>
      </trkpt>
      <trkpt lat="45.4314" lon="4.39527">
        <ele>544.30078125</ele>
        <time>2015-12-20T18:54:23.000Z</time>
      </trkpt>
      <trkpt lat="45.43133" lon="4.39531">
        <ele>543.36688232422</ele>
        <time>2015-12-20T18:54:25.000Z</time>
      </trkpt>
      <trkpt lat="45.43124" lon="4.39537">
        <ele>544.24060058594</ele>
        <time>2015-12-20T18:54:28.000Z</time>
      </trkpt>
      <trkpt lat="45.43122" lon="4.39539">
        <ele>544.38629150391</ele>
        <time>2015-12-20T18:54:30.000Z</time>
      </trkpt>
      <trkpt lat="45.43117" lon="4.39545">
        <ele>544.06866455078</ele>
        <time>2015-12-20T18:54:32.000Z</time>
      </trkpt>
      <trkpt lat="45.43113" lon="4.39546">
        <ele>543.18286132812</ele>
        <time>2015-12-20T18:54:34.000Z</time>
      </trkpt>
      <trkpt lat="45.43105" lon="4.39547">
        <ele>541.9580078125</ele>
        <time>2015-12-20T18:54:37.000Z</time>
      </trkpt>
      <trkpt lat="45.43098" lon="4.39549">
        <ele>542.36553955078</ele>
        <time>2015-12-20T18:54:39.000Z</time>
      </trkpt>
      <trkpt lat="45.43094" lon="4.39553">
        <ele>543.65557861328</ele>
        <time>2015-12-20T18:54:42.000Z</time>
      </trkpt>
      <trkpt lat="45.43092" lon="4.39556">
        <ele>544.03442382812</ele>
        <time>2015-12-20T18:54:44.000Z</time>
      </trkpt>
      <trkpt lat="45.43087" lon="4.3956">
        <ele>546.90899658203</ele>
        <time>2015-12-20T18:54:47.000Z</time>
      </trkpt>
      <trkpt lat="45.43085" lon="4.39564">
        <ele>549.6728515625</ele>
        <time>2015-12-20T18:54:49.000Z</time>
      </trkpt>
      <trkpt lat="45.4308" lon="4.39569">
        <ele>552.41198730469</ele>
        <time>2015-12-20T18:54:52.000Z</time>
      </trkpt>
      <trkpt lat="45.43076" lon="4.39572">
        <ele>553.01000976562</ele>
        <time>2015-12-20T18:54:54.000Z</time>
      </trkpt>
      <trkpt lat="45.4307" lon="4.39577">
        <ele>553.48858642578</ele>
        <time>2015-12-20T18:54:57.000Z</time>
      </trkpt>
      <trkpt lat="45.43065" lon="4.39581">
        <ele>553.47674560547</ele>
        <time>2015-12-20T18:55:00.000Z</time>
      </trkpt>
      <trkpt lat="45.43061" lon="4.39584">
        <ele>554.30438232422</ele>
        <time>2015-12-20T18:55:02.000Z</time>
      </trkpt>
      <trkpt lat="45.43053" lon="4.39589">
        <ele>554.38897705078</ele>
        <time>2015-12-20T18:55:05.000Z</time>
      </trkpt>
      <trkpt lat="45.43048" lon="4.39592">
        <ele>554.48114013672</ele>
        <time>2015-12-20T18:55:07.000Z</time>
      </trkpt>
      <trkpt lat="45.43042" lon="4.39595">
        <ele>554.47326660156</ele>
        <time>2015-12-20T18:55:09.000Z</time>
      </trkpt>
      <trkpt lat="45.43036" lon="4.39595">
        <ele>554.509765625</ele>
        <time>2015-12-20T18:55:12.000Z</time>
      </trkpt>
      <trkpt lat="45.43031" lon="4.39593">
        <ele>554.90698242188</ele>
        <time>2015-12-20T18:55:15.000Z</time>
      </trkpt>
      <trkpt lat="45.43027" lon="4.39588">
        <ele>555.79168701172</ele>
        <time>2015-12-20T18:55:18.000Z</time>
      </trkpt>
      <trkpt lat="45.43028" lon="4.39577">
        <ele>555.78112792969</ele>
        <time>2015-12-20T18:55:21.000Z</time>
      </trkpt>
      <trkpt lat="45.43031" lon="4.39569">
        <ele>555.58563232422</ele>
        <time>2015-12-20T18:55:24.000Z</time>
      </trkpt>
      <trkpt lat="45.43027" lon="4.39555">
        <ele>552.68078613281</ele>
        <time>2015-12-20T18:55:27.000Z</time>
      </trkpt>
      <trkpt lat="45.43023" lon="4.39546">
        <ele>552.40509033203</ele>
        <time>2015-12-20T18:55:29.000Z</time>
      </trkpt>
      <trkpt lat="45.43018" lon="4.39539">
        <ele>550.87640380859</ele>
        <time>2015-12-20T18:55:31.000Z</time>
      </trkpt>
      <trkpt lat="45.43013" lon="4.39529">
        <ele>548.77105712891</ele>
        <time>2015-12-20T18:55:34.000Z</time>
      </trkpt>
      <trkpt lat="45.43007" lon="4.39522">
        <ele>546.65368652344</ele>
        <time>2015-12-20T18:55:37.000Z</time>
      </trkpt>
      <trkpt lat="45.42999" lon="4.39517">
        <ele>547.39819335938</ele>
        <time>2015-12-20T18:55:40.000Z</time>
      </trkpt>
      <trkpt lat="45.4299" lon="4.39512">
        <ele>546.54913330078</ele>
        <time>2015-12-20T18:55:43.000Z</time>
      </trkpt>
      <trkpt lat="45.42987" lon="4.39504">
        <ele>546.65777587891</ele>
        <time>2015-12-20T18:55:46.000Z</time>
      </trkpt>
      <trkpt lat="45.42986" lon="4.39499">
        <ele>545.72583007812</ele>
        <time>2015-12-20T18:55:48.000Z</time>
      </trkpt>
      <trkpt lat="45.42982" lon="4.39491">
        <ele>544.84893798828</ele>
        <time>2015-12-20T18:55:51.000Z</time>
      </trkpt>
      <trkpt lat="45.42976" lon="4.3949">
        <ele>544.49377441406</ele>
        <time>2015-12-20T18:55:54.000Z</time>
      </trkpt>
      <trkpt lat="45.42972" lon="4.39492">
        <ele>544.47644042969</ele>
        <time>2015-12-20T18:55:56.000Z</time>
      </trkpt>
      <trkpt lat="45.42967" lon="4.39493">
        <ele>543.50103759766</ele>
        <time>2015-12-20T18:55:59.000Z</time>
      </trkpt>
      <trkpt lat="45.42964" lon="4.39494">
        <ele>543.47021484375</ele>
        <time>2015-12-20T18:56:01.000Z</time>
      </trkpt>
      <trkpt lat="45.4296" lon="4.39497">
        <ele>544.31414794922</ele>
        <time>2015-12-20T18:56:04.000Z</time>
      </trkpt>
      <trkpt lat="45.42955" lon="4.39499">
        <ele>544.953125</ele>
        <time>2015-12-20T18:56:08.000Z</time>
      </trkpt>
      <trkpt lat="45.42952" lon="4.39501">
        <ele>545.48986816406</ele>
        <time>2015-12-20T18:56:11.000Z</time>
      </trkpt>
      <trkpt lat="45.42951" lon="4.39502">
        <ele>545.90661621094</ele>
        <time>2015-12-20T18:56:13.000Z</time>
      </trkpt>
      <trkpt lat="45.4295" lon="4.39503">
        <ele>547.24664306641</ele>
        <time>2015-12-20T18:56:15.000Z</time>
      </trkpt>
      <trkpt lat="45.42948" lon="4.39506">
        <ele>548.4658203125</ele>
        <time>2015-12-20T18:56:18.000Z</time>
      </trkpt>
      <trkpt lat="45.42946" lon="4.39508">
        <ele>548.51599121094</ele>
        <time>2015-12-20T18:56:20.000Z</time>
      </trkpt>
      <trkpt lat="45.42945" lon="4.3951">
        <ele>549.482421875</ele>
        <time>2015-12-20T18:56:27.000Z</time>
      </trkpt>
      <trkpt lat="45.42944" lon="4.3951">
        <ele>555.47961425781</ele>
        <time>2015-12-20T18:56:32.000Z</time>
      </trkpt>
      <trkpt lat="45.42943" lon="4.39508">
        <ele>557.20782470703</ele>
        <time>2015-12-20T18:56:35.000Z</time>
      </trkpt>
      <trkpt lat="45.42939" lon="4.39507">
        <ele>559.31750488281</ele>
        <time>2015-12-20T18:56:38.000Z</time>
      </trkpt>
    </trkseg>
  </trk>
</gpx>